<?xml version="1.0" encoding="UTF-8" standalone="no" ?><gpx xmlns="http://www.topografix.com/GPX/1/1" xmlns:gpxx="http://www.garmin.com/xmlschemas/GpxExtensions/v3" xmlns:wptx1="http://www.garmin.com/xmlschemas/WaypointExtension/v1" xmlns:gpxtpx="http://www.garmin.com/xmlschemas/TrackPointExtension/v1" creator="eTrex 30" version="1.1" xmlns:xsi="http://www.w3.org/2001/XMLSchema-instance" xsi:schemaLocation="http://www.topografix.com/GPX/1/1 http://www.topografix.com/GPX/1/1/gpx.xsd http://www.garmin.com/xmlschemas/GpxExtensions/v3 http://www8.garmin.com/xmlschemas/GpxExtensionsv3.xsd http://www.garmin.com/xmlschemas/WaypointExtension/v1 http://www8.garmin.com/xmlschemas/WaypointExtensionv1.xsd http://www.garmin.com/xmlschemas/TrackPointExtension/v1 http://www.garmin.com/xmlschemas/TrackPointExtensionv1.xsd"><metadata><link href="http://www.garmin.com"><text>Garmin International</text></link><time>2012-08-29T22:20:24Z</time></metadata><trk><name>2012-08-09 18:14:59 Auto</name><extensions><gpxx:TrackExtension><gpxx:DisplayColor>Cyan</gpxx:DisplayColor></gpxx:TrackExtension></extensions><trkseg><trkpt lat="-3.6833634786" lon="-80.6872160733"><ele>12.15</ele><time>2012-08-09T23:14:59Z</time></trkpt><trkpt lat="-3.6844748352" lon="-80.6886202935"><ele>12.15</ele><time>2012-08-09T23:15:10Z</time></trkpt><trkpt lat="-3.6846226919" lon="-80.6888056174"><ele>5.91</ele><time>2012-08-09T23:15:12Z</time></trkpt><trkpt lat="-3.6846708879" lon="-80.6888629496"><ele>5.91</ele><time>2012-08-09T23:15:13Z</time></trkpt><trkpt lat="-3.6847397871" lon="-80.6889690645"><ele>2.06</ele><time>2012-08-09T23:15:17Z</time></trkpt><trkpt lat="-3.6849945132" lon="-80.6892628502"><ele>0.14</ele><time>2012-08-09T23:15:23Z</time></trkpt><trkpt lat="-3.6852973513" lon="-80.6896342523"><ele>4.46</ele><time>2012-08-09T23:15:27Z</time></trkpt><trkpt lat="-3.6854736228" lon="-80.6898565404"><ele>7.35</ele><time>2012-08-09T23:15:29Z</time></trkpt><trkpt lat="-3.6857675761" lon="-80.6902207341"><ele>11.19</ele><time>2012-08-09T23:15:32Z</time></trkpt><trkpt lat="-3.6858905386" lon="-80.6903731171"><ele>11.19</ele><time>2012-08-09T23:15:33Z</time></trkpt><trkpt lat="-3.6867729854" lon="-80.6914596632"><ele>7.83</ele><time>2012-08-09T23:15:42Z</time></trkpt><trkpt lat="-3.6879769620" lon="-80.6925738696"><ele>10.23</ele><time>2012-08-09T23:15:52Z</time></trkpt><trkpt lat="-3.6899819132" lon="-80.6940917484"><ele>12.63</ele><time>2012-08-09T23:16:06Z</time></trkpt><trkpt lat="-3.6905585043" lon="-80.6948280986"><ele>12.63</ele><time>2012-08-09T23:16:11Z</time></trkpt><trkpt lat="-3.6914739758" lon="-80.6966361590"><ele>15.52</ele><time>2012-08-09T23:16:21Z</time></trkpt><trkpt lat="-3.6917384248" lon="-80.6971463654"><ele>10.71</ele><time>2012-08-09T23:16:25Z</time></trkpt><trkpt lat="-3.6917793285" lon="-80.6972267479"><ele>7.83</ele><time>2012-08-09T23:16:26Z</time></trkpt><trkpt lat="-3.6918076593" lon="-80.6972814817"><ele>0.14</ele><time>2012-08-09T23:16:27Z</time></trkpt><trkpt lat="-3.6918248422" lon="-80.6973299291"><ele>-0.82</ele><time>2012-08-09T23:16:29Z</time></trkpt><trkpt lat="-3.6919473857" lon="-80.6975577492"><ele>2.54</ele><time>2012-08-09T23:16:34Z</time></trkpt><trkpt lat="-3.6921940651" lon="-80.6980337575"><ele>6.39</ele><time>2012-08-09T23:16:39Z</time></trkpt><trkpt lat="-3.6924857553" lon="-80.6985955965"><ele>10.23</ele><time>2012-08-09T23:16:43Z</time></trkpt><trkpt lat="-3.6929972190" lon="-80.6996019278"><ele>13.12</ele><time>2012-08-09T23:16:50Z</time></trkpt><trkpt lat="-3.6933696270" lon="-80.7002998050"><ele>15.52</ele><time>2012-08-09T23:16:54Z</time></trkpt><trkpt lat="-3.6945286766" lon="-80.7020734996"><ele>16.96</ele><time>2012-08-09T23:17:04Z</time></trkpt><trkpt lat="-3.6966059636" lon="-80.7051566150"><ele>15.52</ele><time>2012-08-09T23:17:21Z</time></trkpt><trkpt lat="-3.6987316143" lon="-80.7082404010"><ele>15.52</ele><time>2012-08-09T23:17:38Z</time></trkpt><trkpt lat="-3.6990138330" lon="-80.7085847296"><ele>16.96</ele><time>2012-08-09T23:17:40Z</time></trkpt><trkpt lat="-3.7016612571" lon="-80.7118309569"><ele>15.52</ele><time>2012-08-09T23:17:59Z</time></trkpt><trkpt lat="-3.7032785453" lon="-80.7142485492"><ele>17.92</ele><time>2012-08-09T23:18:12Z</time></trkpt><trkpt lat="-3.7048506550" lon="-80.7165821549"><ele>16.48</ele><time>2012-08-09T23:18:24Z</time></trkpt><trkpt lat="-3.7054844946" lon="-80.7175265439"><ele>13.12</ele><time>2012-08-09T23:18:29Z</time></trkpt><trkpt lat="-3.7058299966" lon="-80.7180531789"><ele>9.75</ele><time>2012-08-09T23:18:32Z</time></trkpt><trkpt lat="-3.7075567525" lon="-80.7205419336"><ele>8.31</ele><time>2012-08-09T23:18:47Z</time></trkpt><trkpt lat="-3.7090311293" lon="-80.7221900672"><ele>7.83</ele><time>2012-08-09T23:18:59Z</time></trkpt><trkpt lat="-3.7091551814" lon="-80.7223250158"><ele>7.83</ele><time>2012-08-09T23:19:00Z</time></trkpt><trkpt lat="-3.7108515948" lon="-80.7241977006"><ele>6.39</ele><time>2012-08-09T23:19:14Z</time></trkpt><trkpt lat="-3.7118021864" lon="-80.7252629567"><ele>9.75</ele><time>2012-08-09T23:19:22Z</time></trkpt><trkpt lat="-3.7132198177" lon="-80.7268273551"><ele>6.39</ele><time>2012-08-09T23:19:34Z</time></trkpt><trkpt lat="-3.7135694269" lon="-80.7272147667"><ele>2.06</ele><time>2012-08-09T23:19:37Z</time></trkpt><trkpt lat="-3.7150951847" lon="-80.7289172988"><ele>5.42</ele><time>2012-08-09T23:19:50Z</time></trkpt><trkpt lat="-3.7161570881" lon="-80.7303723134"><ele>4.94</ele><time>2012-08-09T23:20:01Z</time></trkpt><trkpt lat="-3.7163977325" lon="-80.7315698359"><ele>4.94</ele><time>2012-08-09T23:20:08Z</time></trkpt><trkpt lat="-3.7161820661" lon="-80.7328603137"><ele>7.35</ele><time>2012-08-09T23:20:15Z</time></trkpt><trkpt lat="-3.7160141766" lon="-80.7334473822"><ele>11.19</ele><time>2012-08-09T23:20:18Z</time></trkpt><trkpt lat="-3.7158325408" lon="-80.7340646256"><ele>15.52</ele><time>2012-08-09T23:20:21Z</time></trkpt><trkpt lat="-3.7156364042" lon="-80.7347024884"><ele>18.88</ele><time>2012-08-09T23:20:24Z</time></trkpt><trkpt lat="-3.7152273674" lon="-80.7359903678"><ele>15.04</ele><time>2012-08-09T23:20:30Z</time></trkpt><trkpt lat="-3.7146232836" lon="-80.7380396593"><ele>17.92</ele><time>2012-08-09T23:20:40Z</time></trkpt><trkpt lat="-3.7144983094" lon="-80.7384585030"><ele>20.81</ele><time>2012-08-09T23:20:42Z</time></trkpt><trkpt lat="-3.7143211998" lon="-80.7398888748"><ele>21.29</ele><time>2012-08-09T23:20:49Z</time></trkpt><trkpt lat="-3.7144290749" lon="-80.7405016758"><ele>16.96</ele><time>2012-08-09T23:20:52Z</time></trkpt><trkpt lat="-3.7145627663" lon="-80.7408996485"><ele>13.12</ele><time>2012-08-09T23:20:54Z</time></trkpt><trkpt lat="-3.7155775633" lon="-80.7427959703"><ele>16.96</ele><time>2012-08-09T23:21:04Z</time></trkpt><trkpt lat="-3.7171791773" lon="-80.7457123697"><ele>14.08</ele><time>2012-08-09T23:21:19Z</time></trkpt><trkpt lat="-3.7184992433" lon="-80.7481307164"><ele>15.04</ele><time>2012-08-09T23:21:31Z</time></trkpt><trkpt lat="-3.7187600043" lon="-80.7489276677"><ele>15.04</ele><time>2012-08-09T23:21:35Z</time></trkpt><trkpt lat="-3.7187815458" lon="-80.7491315156"><ele>13.60</ele><time>2012-08-09T23:21:36Z</time></trkpt><trkpt lat="-3.7187841441" lon="-80.7493396383"><ele>12.63</ele><time>2012-08-09T23:21:37Z</time></trkpt><trkpt lat="-3.7187688053" lon="-80.7495496888"><ele>11.19</ele><time>2012-08-09T23:21:38Z</time></trkpt><trkpt lat="-3.7187352777" lon="-80.7497609966"><ele>10.71</ele><time>2012-08-09T23:21:39Z</time></trkpt><trkpt lat="-3.7186886743" lon="-80.7499702927"><ele>9.75</ele><time>2012-08-09T23:21:40Z</time></trkpt><trkpt lat="-3.7183205411" lon="-80.7514087111"><ele>13.60</ele><time>2012-08-09T23:21:47Z</time></trkpt><trkpt lat="-3.7182907853" lon="-80.7516141515"><ele>13.12</ele><time>2012-08-09T23:21:48Z</time></trkpt><trkpt lat="-3.7183799688" lon="-80.7528870273"><ele>13.12</ele><time>2012-08-09T23:21:54Z</time></trkpt><trkpt lat="-3.7189276423" lon="-80.7540731505"><ele>14.08</ele><time>2012-08-09T23:22:00Z</time></trkpt><trkpt lat="-3.7198442873" lon="-80.7549676672"><ele>14.56</ele><time>2012-08-09T23:22:06Z</time></trkpt><trkpt lat="-3.7209326774" lon="-80.7555901911"><ele>11.19</ele><time>2012-08-09T23:22:12Z</time></trkpt><trkpt lat="-3.7220942415" lon="-80.7562002260"><ele>14.56</ele><time>2012-08-09T23:22:18Z</time></trkpt><trkpt lat="-3.7228541449" lon="-80.7566365879"><ele>17.92</ele><time>2012-08-09T23:22:22Z</time></trkpt><trkpt lat="-3.7230311707" lon="-80.7567595504"><ele>17.92</ele><time>2012-08-09T23:22:23Z</time></trkpt><trkpt lat="-3.7244599499" lon="-80.7581413072"><ele>16.96</ele><time>2012-08-09T23:22:32Z</time></trkpt><trkpt lat="-3.7266967446" lon="-80.7607117016"><ele>14.56</ele><time>2012-08-09T23:22:47Z</time></trkpt><trkpt lat="-3.7271218747" lon="-80.7611924876"><ele>10.71</ele><time>2012-08-09T23:22:50Z</time></trkpt><trkpt lat="-3.7272665463" lon="-80.7613578625"><ele>10.71</ele><time>2012-08-09T23:22:51Z</time></trkpt><trkpt lat="-3.7285635620" lon="-80.7628487516"><ele>14.56</ele><time>2012-08-09T23:23:00Z</time></trkpt><trkpt lat="-3.7300244439" lon="-80.7643957995"><ele>11.19</ele><time>2012-08-09T23:23:10Z</time></trkpt><trkpt lat="-3.7313455157" lon="-80.7651610672"><ele>11.67</ele><time>2012-08-09T23:23:17Z</time></trkpt><trkpt lat="-3.7319266330" lon="-80.7654575352"><ele>14.56</ele><time>2012-08-09T23:23:20Z</time></trkpt><trkpt lat="-3.7350675836" lon="-80.7670463249"><ele>14.56</ele><time>2012-08-09T23:23:36Z</time></trkpt><trkpt lat="-3.7371686753" lon="-80.7681309432"><ele>11.19</ele><time>2012-08-09T23:23:47Z</time></trkpt><trkpt lat="-3.7378460169" lon="-80.7684948016"><ele>7.83</ele><time>2012-08-09T23:23:51Z</time></trkpt><trkpt lat="-3.7385582272" lon="-80.7690252922"><ele>3.98</ele><time>2012-08-09T23:23:56Z</time></trkpt><trkpt lat="-3.7387900706" lon="-80.7692349236"><ele>0.14</ele><time>2012-08-09T23:23:59Z</time></trkpt><trkpt lat="-3.7388516776" lon="-80.7692912500"><ele>-3.71</ele><time>2012-08-09T23:24:01Z</time></trkpt><trkpt lat="-3.7388749793" lon="-80.7693237718"><ele>-7.07</ele><time>2012-08-09T23:24:03Z</time></trkpt><trkpt lat="-3.7391178031" lon="-80.7696198206"><ele>-4.67</ele><time>2012-08-09T23:24:09Z</time></trkpt><trkpt lat="-3.7392525002" lon="-80.7697733771"><ele>-1.79</ele><time>2012-08-09T23:24:11Z</time></trkpt><trkpt lat="-3.7393852696" lon="-80.7699439488"><ele>1.10</ele><time>2012-08-09T23:24:13Z</time></trkpt><trkpt lat="-3.7395301089" lon="-80.7701226510"><ele>2.54</ele><time>2012-08-09T23:24:15Z</time></trkpt><trkpt lat="-3.7406613305" lon="-80.7714460697"><ele>-0.34</ele><time>2012-08-09T23:24:28Z</time></trkpt><trkpt lat="-3.7411846127" lon="-80.7720559370"><ele>3.02</ele><time>2012-08-09T23:24:33Z</time></trkpt><trkpt lat="-3.7418576796" lon="-80.7728347834"><ele>6.39</ele><time>2012-08-09T23:24:39Z</time></trkpt><trkpt lat="-3.7429112010" lon="-80.7742236648"><ele>5.42</ele><time>2012-08-09T23:24:49Z</time></trkpt><trkpt lat="-3.7432922423" lon="-80.7754805312"><ele>5.91</ele><time>2012-08-09T23:24:57Z</time></trkpt><trkpt lat="-3.7435701024" lon="-80.7771041896"><ele>6.87</ele><time>2012-08-09T23:25:07Z</time></trkpt><trkpt lat="-3.7442699913" lon="-80.7781287935"><ele>6.87</ele><time>2012-08-09T23:25:14Z</time></trkpt><trkpt lat="-3.7448368594" lon="-80.7787592802"><ele>3.02</ele><time>2012-08-09T23:25:19Z</time></trkpt><trkpt lat="-3.7450859696" lon="-80.7791909482"><ele>0.14</ele><time>2012-08-09T23:25:22Z</time></trkpt><trkpt lat="-3.7451407034" lon="-80.7793486118"><ele>-0.34</ele><time>2012-08-09T23:25:23Z</time></trkpt><trkpt lat="-3.7451797631" lon="-80.7795071974"><ele>-0.82</ele><time>2012-08-09T23:25:24Z</time></trkpt><trkpt lat="-3.7452016398" lon="-80.7796637714"><ele>-1.30</ele><time>2012-08-09T23:25:25Z</time></trkpt><trkpt lat="-3.7452039868" lon="-80.7798182499"><ele>-0.82</ele><time>2012-08-09T23:25:26Z</time></trkpt><trkpt lat="-3.7451922521" lon="-80.7799698785"><ele>-0.82</ele><time>2012-08-09T23:25:27Z</time></trkpt><trkpt lat="-3.7451690342" lon="-80.7801179867"><ele>-1.79</ele><time>2012-08-09T23:25:28Z</time></trkpt><trkpt lat="-3.7451343331" lon="-80.7802653406"><ele>-1.30</ele><time>2012-08-09T23:25:29Z</time></trkpt><trkpt lat="-3.7450924236" lon="-80.7804144546"><ele>-1.30</ele><time>2012-08-09T23:25:30Z</time></trkpt><trkpt lat="-3.7447811197" lon="-80.7814999949"><ele>-0.34</ele><time>2012-08-09T23:25:37Z</time></trkpt><trkpt lat="-3.7447701395" lon="-80.7816558145"><ele>0.14</ele><time>2012-08-09T23:25:38Z</time></trkpt><trkpt lat="-3.7447752524" lon="-80.7818129752"><ele>0.14</ele><time>2012-08-09T23:25:39Z</time></trkpt><trkpt lat="-3.7447955366" lon="-80.7819698844"><ele>1.10</ele><time>2012-08-09T23:25:40Z</time></trkpt><trkpt lat="-3.7448329199" lon="-80.7821264584"><ele>2.06</ele><time>2012-08-09T23:25:41Z</time></trkpt><trkpt lat="-3.7448893301" lon="-80.7822773326"><ele>2.54</ele><time>2012-08-09T23:25:42Z</time></trkpt><trkpt lat="-3.7449668627" lon="-80.7824163046"><ele>3.98</ele><time>2012-08-09T23:25:43Z</time></trkpt><trkpt lat="-3.7450641766" lon="-80.7825436257"><ele>4.46</ele><time>2012-08-09T23:25:44Z</time></trkpt><trkpt lat="-3.7451769132" lon="-80.7826633193"><ele>4.94</ele><time>2012-08-09T23:25:45Z</time></trkpt><trkpt lat="-3.7453013007" lon="-80.7827803306"><ele>4.94</ele><time>2012-08-09T23:25:46Z</time></trkpt><trkpt lat="-3.7468132284" lon="-80.7842187490"><ele>3.98</ele><time>2012-08-09T23:25:58Z</time></trkpt><trkpt lat="-3.7486791238" lon="-80.7858621888"><ele>3.02</ele><time>2012-08-09T23:26:12Z</time></trkpt><trkpt lat="-3.7498095073" lon="-80.7865619101"><ele>6.87</ele><time>2012-08-09T23:26:19Z</time></trkpt><trkpt lat="-3.7499979325" lon="-80.7866610680"><ele>18.88</ele><time>2012-08-09T23:26:20Z</time></trkpt><trkpt lat="-3.7503907084" lon="-80.7868587133"><ele>22.25</ele><time>2012-08-09T23:26:22Z</time></trkpt><trkpt lat="-3.7508023437" lon="-80.7870649919"><ele>26.09</ele><time>2012-08-09T23:26:24Z</time></trkpt><trkpt lat="-3.7510120589" lon="-80.7871739566"><ele>8.79</ele><time>2012-08-09T23:26:25Z</time></trkpt><trkpt lat="-3.7512214389" lon="-80.7872849330"><ele>10.71</ele><time>2012-08-09T23:26:26Z</time></trkpt><trkpt lat="-3.7514319085" lon="-80.7873946521"><ele>15.52</ele><time>2012-08-09T23:26:27Z</time></trkpt><trkpt lat="-3.7516438030" lon="-80.7875015214"><ele>15.52</ele><time>2012-08-09T23:26:28Z</time></trkpt><trkpt lat="-3.7550488673" lon="-80.7891451288"><ele>15.04</ele><time>2012-08-09T23:26:44Z</time></trkpt><trkpt lat="-3.7587965000" lon="-80.7909725513"><ele>16.48</ele><time>2012-08-09T23:27:01Z</time></trkpt><trkpt lat="-3.7633099873" lon="-80.7931696996"><ele>17.44</ele><time>2012-08-09T23:27:22Z</time></trkpt><trkpt lat="-3.7668699492" lon="-80.7946151588"><ele>17.44</ele><time>2012-08-09T23:27:38Z</time></trkpt><trkpt lat="-3.7716467958" lon="-80.7965152524"><ele>17.44</ele><time>2012-08-09T23:27:59Z</time></trkpt><trkpt lat="-3.7768299971" lon="-80.7985878456"><ele>18.40</ele><time>2012-08-09T23:28:22Z</time></trkpt><trkpt lat="-3.7827662285" lon="-80.8009502850"><ele>19.36</ele><time>2012-08-09T23:28:48Z</time></trkpt><trkpt lat="-3.7887822557" lon="-80.8033589926"><ele>19.36</ele><time>2012-08-09T23:29:14Z</time></trkpt><trkpt lat="-3.7899230327" lon="-80.8038149681"><ele>18.40</ele><time>2012-08-09T23:29:19Z</time></trkpt><trkpt lat="-3.7954244111" lon="-80.8060157206"><ele>17.92</ele><time>2012-08-09T23:29:43Z</time></trkpt><trkpt lat="-3.8018439431" lon="-80.8085753024"><ele>17.92</ele><time>2012-08-09T23:30:11Z</time></trkpt><trkpt lat="-3.8044575043" lon="-80.8096182626"><ele>14.08</ele><time>2012-08-09T23:30:23Z</time></trkpt><trkpt lat="-3.8048495259" lon="-80.8097725734"><ele>10.71</ele><time>2012-08-09T23:30:25Z</time></trkpt><trkpt lat="-3.8054204173" lon="-80.8099968731"><ele>6.39</ele><time>2012-08-09T23:30:28Z</time></trkpt><trkpt lat="-3.8063145149" lon="-80.8103534393"><ele>3.02</ele><time>2012-08-09T23:30:33Z</time></trkpt><trkpt lat="-3.8083233219" lon="-80.8111489657"><ele>6.39</ele><time>2012-08-09T23:30:46Z</time></trkpt><trkpt lat="-3.8088194467" lon="-80.8113530651"><ele>9.75</ele><time>2012-08-09T23:30:49Z</time></trkpt><trkpt lat="-3.8113922719" lon="-80.8123728912"><ele>6.39</ele><time>2012-08-09T23:31:03Z</time></trkpt><trkpt lat="-3.8132978976" lon="-80.8131094091"><ele>10.23</ele><time>2012-08-09T23:31:12Z</time></trkpt><trkpt lat="-3.8142092619" lon="-80.8134656399"><ele>14.08</ele><time>2012-08-09T23:31:16Z</time></trkpt><trkpt lat="-3.8149149343" lon="-80.8137468528"><ele>18.40</ele><time>2012-08-09T23:31:19Z</time></trkpt><trkpt lat="-3.8156320900" lon="-80.8140299097"><ele>22.25</ele><time>2012-08-09T23:31:22Z</time></trkpt><trkpt lat="-3.8163622376" lon="-80.8143250365"><ele>24.65</ele><time>2012-08-09T23:31:25Z</time></trkpt><trkpt lat="-3.8175936230" lon="-80.8148346562"><ele>21.29</ele><time>2012-08-09T23:31:30Z</time></trkpt><trkpt lat="-3.8185954280" lon="-80.8152364846"><ele>17.44</ele><time>2012-08-09T23:31:34Z</time></trkpt><trkpt lat="-3.8210702688" lon="-80.8162261359"><ele>21.29</ele><time>2012-08-09T23:31:44Z</time></trkpt><trkpt lat="-3.8268303126" lon="-80.8185198437"><ele>21.29</ele><time>2012-08-09T23:32:07Z</time></trkpt><trkpt lat="-3.8294903934" lon="-80.8195825852"><ele>18.40</ele><time>2012-08-09T23:32:18Z</time></trkpt><trkpt lat="-3.8303871732" lon="-80.8199483715"><ele>15.04</ele><time>2012-08-09T23:32:22Z</time></trkpt><trkpt lat="-3.8312194124" lon="-80.8202813007"><ele>11.19</ele><time>2012-08-09T23:32:26Z</time></trkpt><trkpt lat="-3.8319766335" lon="-80.8205878269"><ele>7.83</ele><time>2012-08-09T23:32:30Z</time></trkpt><trkpt lat="-3.8331661094" lon="-80.8210602310"><ele>11.19</ele><time>2012-08-09T23:32:36Z</time></trkpt><trkpt lat="-3.8335888088" lon="-80.8212104347"><ele>13.60</ele><time>2012-08-09T23:32:38Z</time></trkpt><trkpt lat="-3.8346733432" lon="-80.8216531668"><ele>16.00</ele><time>2012-08-09T23:32:43Z</time></trkpt><trkpt lat="-3.8382415194" lon="-80.8230878133"><ele>16.48</ele><time>2012-08-09T23:32:59Z</time></trkpt><trkpt lat="-3.8431280013" lon="-80.8250311576"><ele>16.00</ele><time>2012-08-09T23:33:20Z</time></trkpt><trkpt lat="-3.8481780142" lon="-80.8270229492"><ele>16.96</ele><time>2012-08-09T23:33:41Z</time></trkpt><trkpt lat="-3.8525575586" lon="-80.8287776168"><ele>16.00</ele><time>2012-08-09T23:34:00Z</time></trkpt><trkpt lat="-3.8531657495" lon="-80.8290087897"><ele>11.67</ele><time>2012-08-09T23:34:03Z</time></trkpt><trkpt lat="-3.8535881136" lon="-80.8291408885"><ele>8.31</ele><time>2012-08-09T23:34:05Z</time></trkpt><trkpt lat="-3.8554286957" lon="-80.8294117916"><ele>9.27</ele><time>2012-08-09T23:34:13Z</time></trkpt><trkpt lat="-3.8563926984" lon="-80.8293985482"><ele>13.12</ele><time>2012-08-09T23:34:17Z</time></trkpt><trkpt lat="-3.8608914334" lon="-80.8292883262"><ele>14.56</ele><time>2012-08-09T23:34:35Z</time></trkpt><trkpt lat="-3.8666769583" lon="-80.8291693032"><ele>12.63</ele><time>2012-08-09T23:34:59Z</time></trkpt><trkpt lat="-3.8683758862" lon="-80.8293521963"><ele>12.15</ele><time>2012-08-09T23:35:06Z</time></trkpt><trkpt lat="-3.8697624207" lon="-80.8296672720"><ele>15.52</ele><time>2012-08-09T23:35:12Z</time></trkpt><trkpt lat="-3.8700600620" lon="-80.8297363389"><ele>15.52</ele><time>2012-08-09T23:35:13Z</time></trkpt><trkpt lat="-3.8718595728" lon="-80.8301579487"><ele>11.67</ele><time>2012-08-09T23:35:21Z</time></trkpt><trkpt lat="-3.8722770754" lon="-80.8302566037"><ele>8.31</ele><time>2012-08-09T23:35:23Z</time></trkpt><trkpt lat="-3.8728804886" lon="-80.8304367308"><ele>4.46</ele><time>2012-08-09T23:35:26Z</time></trkpt><trkpt lat="-3.8739893306" lon="-80.8310761023"><ele>7.83</ele><time>2012-08-09T23:35:32Z</time></trkpt><trkpt lat="-3.8744554482" lon="-80.8315329999"><ele>11.67</ele><time>2012-08-09T23:35:35Z</time></trkpt><trkpt lat="-3.8748905528" lon="-80.8320394345"><ele>15.04</ele><time>2012-08-09T23:35:38Z</time></trkpt><trkpt lat="-3.8753385656" lon="-80.8325590286"><ele>16.48</ele><time>2012-08-09T23:35:41Z</time></trkpt><trkpt lat="-3.8785054162" lon="-80.8362456411"><ele>14.08</ele><time>2012-08-09T23:36:02Z</time></trkpt><trkpt lat="-3.8806737307" lon="-80.8387800772"><ele>12.63</ele><time>2012-08-09T23:36:17Z</time></trkpt><trkpt lat="-3.8814607076" lon="-80.8402457368"><ele>10.23</ele><time>2012-08-09T23:36:25Z</time></trkpt><trkpt lat="-3.8818699121" lon="-80.8412346337"><ele>13.60</ele><time>2012-08-09T23:36:30Z</time></trkpt><trkpt lat="-3.8829827774" lon="-80.8438319340"><ele>10.23</ele><time>2012-08-09T23:36:43Z</time></trkpt><trkpt lat="-3.8839078043" lon="-80.8453385811"><ele>8.79</ele><time>2012-08-09T23:36:52Z</time></trkpt><trkpt lat="-3.8846640196" lon="-80.8461446688"><ele>12.15</ele><time>2012-08-09T23:36:57Z</time></trkpt><trkpt lat="-3.8852954283" lon="-80.8468015585"><ele>16.00</ele><time>2012-08-09T23:37:01Z</time></trkpt><trkpt lat="-3.8857660722" lon="-80.8473076578"><ele>17.92</ele><time>2012-08-09T23:37:04Z</time></trkpt><trkpt lat="-3.8867023308" lon="-80.8483108040"><ele>14.56</ele><time>2012-08-09T23:37:10Z</time></trkpt><trkpt lat="-3.8871706277" lon="-80.8488048334"><ele>11.67</ele><time>2012-08-09T23:37:13Z</time></trkpt><trkpt lat="-3.8887632731" lon="-80.8501704130"><ele>14.56</ele><time>2012-08-09T23:37:22Z</time></trkpt><trkpt lat="-3.8895202428" lon="-80.8507518657"><ele>17.92</ele><time>2012-08-09T23:37:26Z</time></trkpt><trkpt lat="-3.8902818225" lon="-80.8513296302"><ele>14.56</ele><time>2012-08-09T23:37:30Z</time></trkpt><trkpt lat="-3.8908234611" lon="-80.8517476358"><ele>11.67</ele><time>2012-08-09T23:37:33Z</time></trkpt><trkpt lat="-3.8915130403" lon="-80.8522801381"><ele>8.31</ele><time>2012-08-09T23:37:37Z</time></trkpt><trkpt lat="-3.8928005844" lon="-80.8532646764"><ele>12.15</ele><time>2012-08-09T23:37:44Z</time></trkpt><trkpt lat="-3.8935563806" lon="-80.8538391721"><ele>15.04</ele><time>2012-08-09T23:37:48Z</time></trkpt><trkpt lat="-3.8955982123" lon="-80.8554947656"><ele>11.19</ele><time>2012-08-09T23:37:59Z</time></trkpt><trkpt lat="-3.8957522716" lon="-80.8556812629"><ele>11.19</ele><time>2012-08-09T23:38:00Z</time></trkpt><trkpt lat="-3.8963780645" lon="-80.8569248859"><ele>15.04</ele><time>2012-08-09T23:38:06Z</time></trkpt><trkpt lat="-3.8965784758" lon="-80.8578553610"><ele>18.40</ele><time>2012-08-09T23:38:10Z</time></trkpt><trkpt lat="-3.8969284203" lon="-80.8595206775"><ele>15.04</ele><time>2012-08-09T23:38:17Z</time></trkpt><trkpt lat="-3.8970847428" lon="-80.8602524176"><ele>11.67</ele><time>2012-08-09T23:38:20Z</time></trkpt><trkpt lat="-3.8977349270" lon="-80.8632164262"><ele>15.04</ele><time>2012-08-09T23:38:32Z</time></trkpt><trkpt lat="-3.8977862243" lon="-80.8634473477"><ele>15.04</ele><time>2012-08-09T23:38:33Z</time></trkpt><trkpt lat="-3.8981622364" lon="-80.8651281707"><ele>12.15</ele><time>2012-08-09T23:38:40Z</time></trkpt><trkpt lat="-3.8984089158" lon="-80.8662826102"><ele>8.79</ele><time>2012-08-09T23:38:45Z</time></trkpt><trkpt lat="-3.8985822536" lon="-80.8671022765"><ele>5.91</ele><time>2012-08-09T23:38:49Z</time></trkpt><trkpt lat="-3.8986249175" lon="-80.8673015144"><ele>5.42</ele><time>2012-08-09T23:38:50Z</time></trkpt><trkpt lat="-3.8992805500" lon="-80.8690159488"><ele>6.87</ele><time>2012-08-09T23:38:59Z</time></trkpt><trkpt lat="-3.8997408841" lon="-80.8697327692"><ele>10.23</ele><time>2012-08-09T23:39:03Z</time></trkpt><trkpt lat="-3.9000885654" lon="-80.8702637628"><ele>13.12</ele><time>2012-08-09T23:39:06Z</time></trkpt><trkpt lat="-3.9004214946" lon="-80.8707971033"><ele>17.92</ele><time>2012-08-09T23:39:09Z</time></trkpt><trkpt lat="-3.9007274341" lon="-80.8713130094"><ele>22.73</ele><time>2012-08-09T23:39:12Z</time></trkpt><trkpt lat="-3.9009907935" lon="-80.8718421590"><ele>27.05</ele><time>2012-08-09T23:39:15Z</time></trkpt><trkpt lat="-3.9017247967" lon="-80.8739990741"><ele>27.53</ele><time>2012-08-09T23:39:26Z</time></trkpt><trkpt lat="-3.9018967096" lon="-80.8745752461"><ele>22.73</ele><time>2012-08-09T23:39:29Z</time></trkpt><trkpt lat="-3.9020336699" lon="-80.8749442175"><ele>18.88</ele><time>2012-08-09T23:39:31Z</time></trkpt><trkpt lat="-3.9022135455" lon="-80.8753185533"><ele>14.56</ele><time>2012-08-09T23:39:33Z</time></trkpt><trkpt lat="-3.9024354983" lon="-80.8756950684"><ele>11.67</ele><time>2012-08-09T23:39:35Z</time></trkpt><trkpt lat="-3.9035337791" lon="-80.8768457361"><ele>12.63</ele><time>2012-08-09T23:39:42Z</time></trkpt><trkpt lat="-3.9055765327" lon="-80.8785877470"><ele>8.79</ele><time>2012-08-09T23:39:54Z</time></trkpt><trkpt lat="-3.9063222706" lon="-80.8797089104"><ele>5.91</ele><time>2012-08-09T23:40:00Z</time></trkpt><trkpt lat="-3.9065844566" lon="-80.8803542331"><ele>9.27</ele><time>2012-08-09T23:40:03Z</time></trkpt><trkpt lat="-3.9068582933" lon="-80.8809992205"><ele>13.60</ele><time>2012-08-09T23:40:06Z</time></trkpt><trkpt lat="-3.9071276877" lon="-80.8815886360"><ele>16.48</ele><time>2012-08-09T23:40:09Z</time></trkpt><trkpt lat="-3.9077508822" lon="-80.8824460208"><ele>12.15</ele><time>2012-08-09T23:40:14Z</time></trkpt><trkpt lat="-3.9080755133" lon="-80.8827481885"><ele>9.27</ele><time>2012-08-09T23:40:16Z</time></trkpt><trkpt lat="-3.9086446445" lon="-80.8831351809"><ele>7.35</ele><time>2012-08-09T23:40:19Z</time></trkpt><trkpt lat="-3.9099981543" lon="-80.8840133529"><ele>11.19</ele><time>2012-08-09T23:40:26Z</time></trkpt><trkpt lat="-3.9116794802" lon="-80.8851465862"><ele>7.83</ele><time>2012-08-09T23:40:35Z</time></trkpt><trkpt lat="-3.9138597809" lon="-80.8865889441"><ele>6.39</ele><time>2012-08-09T23:40:47Z</time></trkpt><trkpt lat="-3.9145095460" lon="-80.8870512899"><ele>5.42</ele><time>2012-08-09T23:40:51Z</time></trkpt><trkpt lat="-3.9146351069" lon="-80.8871765155"><ele>4.46</ele><time>2012-08-09T23:40:52Z</time></trkpt><trkpt lat="-3.9147444908" lon="-80.8873112127"><ele>3.02</ele><time>2012-08-09T23:40:53Z</time></trkpt><trkpt lat="-3.9148320816" lon="-80.8874565549"><ele>1.58</ele><time>2012-08-09T23:40:54Z</time></trkpt><trkpt lat="-3.9149016514" lon="-80.8876171522"><ele>0.62</ele><time>2012-08-09T23:40:55Z</time></trkpt><trkpt lat="-3.9149467461" lon="-80.8877869695"><ele>-0.34</ele><time>2012-08-09T23:40:56Z</time></trkpt><trkpt lat="-3.9149674494" lon="-80.8879622351"><ele>-1.30</ele><time>2012-08-09T23:40:57Z</time></trkpt><trkpt lat="-3.9149656054" lon="-80.8881424461"><ele>-0.82</ele><time>2012-08-09T23:40:58Z</time></trkpt><trkpt lat="-3.9149470814" lon="-80.8883247524"><ele>-0.82</ele><time>2012-08-09T23:40:59Z</time></trkpt><trkpt lat="-3.9149223547" lon="-80.8885095734"><ele>-0.34</ele><time>2012-08-09T23:41:00Z</time></trkpt><trkpt lat="-3.9148527011" lon="-80.8892789483"><ele>3.98</ele><time>2012-08-09T23:41:04Z</time></trkpt><trkpt lat="-3.9149055909" lon="-80.8898562100"><ele>7.35</ele><time>2012-08-09T23:41:07Z</time></trkpt><trkpt lat="-3.9153583813" lon="-80.8908510581"><ele>3.02</ele><time>2012-08-09T23:41:13Z</time></trkpt><trkpt lat="-3.9155623131" lon="-80.8911179379"><ele>-0.82</ele><time>2012-08-09T23:41:15Z</time></trkpt><trkpt lat="-3.9156674221" lon="-80.8912481926"><ele>-0.82</ele><time>2012-08-09T23:41:16Z</time></trkpt><trkpt lat="-3.9159767982" lon="-80.8916211035"><ele>-4.19</ele><time>2012-08-09T23:41:19Z</time></trkpt><trkpt lat="-3.9172599837" lon="-80.8931792155"><ele>-0.82</ele><time>2012-08-09T23:41:32Z</time></trkpt><trkpt lat="-3.9186836500" lon="-80.8949023671"><ele>-0.82</ele><time>2012-08-09T23:41:46Z</time></trkpt><trkpt lat="-3.9198197331" lon="-80.8965106867"><ele>-1.79</ele><time>2012-08-09T23:41:58Z</time></trkpt><trkpt lat="-3.9207284991" lon="-80.8982791007"><ele>-1.79</ele><time>2012-08-09T23:42:10Z</time></trkpt><trkpt lat="-3.9211407211" lon="-80.8990997728"><ele>2.06</ele><time>2012-08-09T23:42:15Z</time></trkpt><trkpt lat="-3.9213170763" lon="-80.8994521480"><ele>5.42</ele><time>2012-08-09T23:42:17Z</time></trkpt><trkpt lat="-3.9214925934" lon="-80.8998195268"><ele>9.75</ele><time>2012-08-09T23:42:19Z</time></trkpt><trkpt lat="-3.9216641709" lon="-80.9002029989"><ele>12.63</ele><time>2012-08-09T23:42:21Z</time></trkpt><trkpt lat="-3.9221336413" lon="-80.9011655767"><ele>3.50</ele><time>2012-08-09T23:42:26Z</time></trkpt><trkpt lat="-3.9222271834" lon="-80.9013571031"><ele>3.50</ele><time>2012-08-09T23:42:27Z</time></trkpt><trkpt lat="-3.9223206416" lon="-80.9015480429"><ele>7.83</ele><time>2012-08-09T23:42:28Z</time></trkpt><trkpt lat="-3.9224145189" lon="-80.9017383959"><ele>7.35</ele><time>2012-08-09T23:42:29Z</time></trkpt><trkpt lat="-3.9236753248" lon="-80.9042939544"><ele>5.42</ele><time>2012-08-09T23:42:43Z</time></trkpt><trkpt lat="-3.9245905448" lon="-80.9060014319"><ele>6.87</ele><time>2012-08-09T23:42:53Z</time></trkpt><trkpt lat="-3.9253040962" lon="-80.9070774168"><ele>10.23</ele><time>2012-08-09T23:42:59Z</time></trkpt><trkpt lat="-3.9271178562" lon="-80.9092897363"><ele>10.71</ele><time>2012-08-09T23:43:12Z</time></trkpt><trkpt lat="-3.9289163612" lon="-80.9113381058"><ele>7.35</ele><time>2012-08-09T23:43:24Z</time></trkpt><trkpt lat="-3.9293442573" lon="-80.9118313808"><ele>3.50</ele><time>2012-08-09T23:43:27Z</time></trkpt><trkpt lat="-3.9296160825" lon="-80.9121452831"><ele>2.54</ele><time>2012-08-09T23:43:29Z</time></trkpt><trkpt lat="-3.9301290549" lon="-80.9128025081"><ele>5.91</ele><time>2012-08-09T23:43:33Z</time></trkpt><trkpt lat="-3.9304841962" lon="-80.9133313224"><ele>9.75</ele><time>2012-08-09T23:43:36Z</time></trkpt><trkpt lat="-3.9307058137" lon="-80.9137055743"><ele>12.63</ele><time>2012-08-09T23:43:38Z</time></trkpt><trkpt lat="-3.9310101606" lon="-80.9142717719"><ele>14.56</ele><time>2012-08-09T23:43:41Z</time></trkpt><trkpt lat="-3.9314106479" lon="-80.9150298312"><ele>11.19</ele><time>2012-08-09T23:43:45Z</time></trkpt><trkpt lat="-3.9316000789" lon="-80.9153901692"><ele>8.31</ele><time>2012-08-09T23:43:47Z</time></trkpt><trkpt lat="-3.9317646157" lon="-80.9157018084"><ele>2.54</ele><time>2012-08-09T23:43:49Z</time></trkpt><trkpt lat="-3.9319039229" lon="-80.9159654193"><ele>-2.27</ele><time>2012-08-09T23:43:51Z</time></trkpt><trkpt lat="-3.9320151508" lon="-80.9161725361"><ele>-7.07</ele><time>2012-08-09T23:43:53Z</time></trkpt><trkpt lat="-3.9321024064" lon="-80.9163400903"><ele>-10.92</ele><time>2012-08-09T23:43:55Z</time></trkpt><trkpt lat="-3.9321737364" lon="-80.9164834209"><ele>-14.28</ele><time>2012-08-09T23:43:58Z</time></trkpt><trkpt lat="-3.9322828688" lon="-80.9166886937"><ele>-10.44</ele><time>2012-08-09T23:44:05Z</time></trkpt><trkpt lat="-3.9323222637" lon="-80.9167668130"><ele>-7.55</ele><time>2012-08-09T23:44:08Z</time></trkpt><trkpt lat="-3.9325579628" lon="-80.9171920270"><ele>-6.59</ele><time>2012-08-09T23:44:16Z</time></trkpt><trkpt lat="-3.9329118468" lon="-80.9178556222"><ele>-2.75</ele><time>2012-08-09T23:44:22Z</time></trkpt><trkpt lat="-3.9331178740" lon="-80.9182476439"><ele>0.62</ele><time>2012-08-09T23:44:25Z</time></trkpt><trkpt lat="-3.9334247354" lon="-80.9188297670"><ele>3.02</ele><time>2012-08-09T23:44:29Z</time></trkpt><trkpt lat="-3.9336666372" lon="-80.9192875028"><ele>4.46</ele><time>2012-08-09T23:44:32Z</time></trkpt><trkpt lat="-3.9347396046" lon="-80.9213266522"><ele>4.94</ele><time>2012-08-09T23:44:44Z</time></trkpt><trkpt lat="-3.9366545342" lon="-80.9246909805"><ele>6.39</ele><time>2012-08-09T23:45:02Z</time></trkpt><trkpt lat="-3.9379699063" lon="-80.9267297946"><ele>6.39</ele><time>2012-08-09T23:45:13Z</time></trkpt><trkpt lat="-3.9388657641" lon="-80.9280871600"><ele>9.27</ele><time>2012-08-09T23:45:20Z</time></trkpt><trkpt lat="-3.9395789802" lon="-80.9291284438"><ele>3.02</ele><time>2012-08-09T23:45:26Z</time></trkpt><trkpt lat="-3.9397788048" lon="-80.9294287674"><ele>1.10</ele><time>2012-08-09T23:45:28Z</time></trkpt><trkpt lat="-3.9399693254" lon="-80.9297369700"><ele>3.98</ele><time>2012-08-09T23:45:30Z</time></trkpt><trkpt lat="-3.9401406515" lon="-80.9300104715"><ele>-0.82</ele><time>2012-08-09T23:45:32Z</time></trkpt><trkpt lat="-3.9403942879" lon="-80.9304039180"><ele>-4.19</ele><time>2012-08-09T23:45:35Z</time></trkpt><trkpt lat="-3.9410311449" lon="-80.9313797392"><ele>0.14</ele><time>2012-08-09T23:45:42Z</time></trkpt><trkpt lat="-3.9412170555" lon="-80.9316669870"><ele>3.02</ele><time>2012-08-09T23:45:44Z</time></trkpt><trkpt lat="-3.9414969273" lon="-80.9320942964"><ele>6.87</ele><time>2012-08-09T23:45:47Z</time></trkpt><trkpt lat="-3.9417438582" lon="-80.9324616753"><ele>-1.30</ele><time>2012-08-09T23:45:50Z</time></trkpt><trkpt lat="-3.9418081474" lon="-80.9325617552"><ele>-5.15</ele><time>2012-08-09T23:45:51Z</time></trkpt><trkpt lat="-3.9419142623" lon="-80.9327216819"><ele>-6.11</ele><time>2012-08-09T23:45:53Z</time></trkpt><trkpt lat="-3.9420684893" lon="-80.9329669364"><ele>-9.00</ele><time>2012-08-09T23:45:58Z</time></trkpt><trkpt lat="-3.9423541445" lon="-80.9333512466"><ele>-9.96</ele><time>2012-08-09T23:46:05Z</time></trkpt><trkpt lat="-3.9424659591" lon="-80.9335203096"><ele>-6.59</ele><time>2012-08-09T23:46:07Z</time></trkpt><trkpt lat="-3.9426243771" lon="-80.9337800648"><ele>-3.23</ele><time>2012-08-09T23:46:10Z</time></trkpt><trkpt lat="-3.9431570470" lon="-80.9346298221"><ele>-4.19</ele><time>2012-08-09T23:46:19Z</time></trkpt><trkpt lat="-3.9441855904" lon="-80.9362171032"><ele>-3.23</ele><time>2012-08-09T23:46:34Z</time></trkpt><trkpt lat="-3.9450344257" lon="-80.9375134483"><ele>-6.11</ele><time>2012-08-09T23:46:47Z</time></trkpt><trkpt lat="-3.9452105295" lon="-80.9377912246"><ele>-9.48</ele><time>2012-08-09T23:46:51Z</time></trkpt><trkpt lat="-3.9453750663" lon="-80.9380605351"><ele>-11.88</ele><time>2012-08-09T23:46:58Z</time></trkpt><trkpt lat="-3.9455568697" lon="-80.9383741859"><ele>-8.51</ele><time>2012-08-09T23:47:02Z</time></trkpt><trkpt lat="-3.9457079116" lon="-80.9387185145"><ele>-4.67</ele><time>2012-08-09T23:47:05Z</time></trkpt><trkpt lat="-3.9458931517" lon="-80.9393790923"><ele>-5.63</ele><time>2012-08-09T23:47:12Z</time></trkpt><trkpt lat="-3.9459428564" lon="-80.9395801742"><ele>-9.96</ele><time>2012-08-09T23:47:15Z</time></trkpt><trkpt lat="-3.9459591173" lon="-80.9404463600"><ele>-8.03</ele><time>2012-08-09T23:47:25Z</time></trkpt><trkpt lat="-3.9459350612" lon="-80.9407564066"><ele>-5.15</ele><time>2012-08-09T23:47:28Z</time></trkpt><trkpt lat="-3.9459832571" lon="-80.9418653324"><ele>-3.23</ele><time>2012-08-09T23:47:38Z</time></trkpt><trkpt lat="-3.9460124262" lon="-80.9419565275"><ele>-3.23</ele><time>2012-08-09T23:47:39Z</time></trkpt><trkpt lat="-3.9463125821" lon="-80.9425254073"><ele>-3.23</ele><time>2012-08-09T23:47:44Z</time></trkpt><trkpt lat="-3.9474401996" lon="-80.9438926633"><ele>-3.23</ele><time>2012-08-09T23:47:57Z</time></trkpt><trkpt lat="-3.9475114457" lon="-80.9439878818"><ele>-6.59</ele><time>2012-08-09T23:47:59Z</time></trkpt><trkpt lat="-3.9475261979" lon="-80.9440004546"><ele>-9.96</ele><time>2012-08-09T23:48:01Z</time></trkpt><trkpt lat="-3.9478088357" lon="-80.9443430230"><ele>-9.00</ele><time>2012-08-09T23:48:08Z</time></trkpt><trkpt lat="-3.9479695167" lon="-80.9445281792"><ele>-5.63</ele><time>2012-08-09T23:48:10Z</time></trkpt><trkpt lat="-3.9481436089" lon="-80.9447328653"><ele>-2.27</ele><time>2012-08-09T23:48:12Z</time></trkpt><trkpt lat="-3.9483959042" lon="-80.9450207837"><ele>1.58</ele><time>2012-08-09T23:48:15Z</time></trkpt><trkpt lat="-3.9488875028" lon="-80.9455709718"><ele>-1.79</ele><time>2012-08-09T23:48:21Z</time></trkpt><trkpt lat="-3.9491307456" lon="-80.9458626620"><ele>-5.15</ele><time>2012-08-09T23:48:24Z</time></trkpt><trkpt lat="-3.9498719573" lon="-80.9467201307"><ele>-0.82</ele><time>2012-08-09T23:48:32Z</time></trkpt><trkpt lat="-3.9502414316" lon="-80.9470368829"><ele>2.06</ele><time>2012-08-09T23:48:35Z</time></trkpt><trkpt lat="-3.9514253754" lon="-80.9475524537"><ele>-0.34</ele><time>2012-08-09T23:48:43Z</time></trkpt><trkpt lat="-3.9519607276" lon="-80.9475905914"><ele>-3.23</ele><time>2012-08-09T23:48:46Z</time></trkpt><trkpt lat="-3.9535987191" lon="-80.9473472647"><ele>-0.82</ele><time>2012-08-09T23:48:55Z</time></trkpt><trkpt lat="-3.9542915672" lon="-80.9472426586"><ele>2.06</ele><time>2012-08-09T23:48:59Z</time></trkpt><trkpt lat="-3.9555639401" lon="-80.9470190294"><ele>-1.30</ele><time>2012-08-09T23:49:07Z</time></trkpt><trkpt lat="-3.9575988986" lon="-80.9467223100"><ele>-1.30</ele><time>2012-08-09T23:49:20Z</time></trkpt><trkpt lat="-3.9592185337" lon="-80.9464688413"><ele>2.06</ele><time>2012-08-09T23:49:31Z</time></trkpt><trkpt lat="-3.9597184304" lon="-80.9463955835"><ele>5.42</ele><time>2012-08-09T23:49:34Z</time></trkpt><trkpt lat="-3.9600651897" lon="-80.9463446215"><ele>8.79</ele><time>2012-08-09T23:49:36Z</time></trkpt><trkpt lat="-3.9607832674" lon="-80.9462372493"><ele>12.15</ele><time>2012-08-09T23:49:40Z</time></trkpt><trkpt lat="-3.9638341125" lon="-80.9457686171"><ele>14.08</ele><time>2012-08-09T23:49:57Z</time></trkpt><trkpt lat="-3.9643560536" lon="-80.9456884861"><ele>17.44</ele><time>2012-08-09T23:50:00Z</time></trkpt><trkpt lat="-3.9656117465" lon="-80.9454973787"><ele>20.32</ele><time>2012-08-09T23:50:07Z</time></trkpt><trkpt lat="-3.9672177192" lon="-80.9455784317"><ele>21.77</ele><time>2012-08-09T23:50:15Z</time></trkpt><trkpt lat="-3.9684180915" lon="-80.9460434597"><ele>26.57</ele><time>2012-08-09T23:50:21Z</time></trkpt><trkpt lat="-3.9689372666" lon="-80.9463892132"><ele>29.94</ele><time>2012-08-09T23:50:24Z</time></trkpt><trkpt lat="-3.9696612116" lon="-80.9470160957"><ele>26.09</ele><time>2012-08-09T23:50:29Z</time></trkpt><trkpt lat="-3.9699498005" lon="-80.9472777788"><ele>22.25</ele><time>2012-08-09T23:50:31Z</time></trkpt><trkpt lat="-3.9702317677" lon="-80.9475302417"><ele>18.40</ele><time>2012-08-09T23:50:33Z</time></trkpt><trkpt lat="-3.9706656989" lon="-80.9479134623"><ele>15.04</ele><time>2012-08-09T23:50:36Z</time></trkpt><trkpt lat="-3.9708158188" lon="-80.9480506741"><ele>15.04</ele><time>2012-08-09T23:50:37Z</time></trkpt><trkpt lat="-3.9714566991" lon="-80.9486218169"><ele>18.40</ele><time>2012-08-09T23:50:41Z</time></trkpt><trkpt lat="-3.9719690848" lon="-80.9490711708"><ele>22.73</ele><time>2012-08-09T23:50:44Z</time></trkpt><trkpt lat="-3.9724909421" lon="-80.9495351929"><ele>24.17</ele><time>2012-08-09T23:50:47Z</time></trkpt><trkpt lat="-3.9733698685" lon="-80.9503158834"><ele>20.32</ele><time>2012-08-09T23:50:52Z</time></trkpt><trkpt lat="-3.9738989342" lon="-80.9507923946"><ele>16.96</ele><time>2012-08-09T23:50:55Z</time></trkpt><trkpt lat="-3.9744193666" lon="-80.9512524772"><ele>14.08</ele><time>2012-08-09T23:50:58Z</time></trkpt><trkpt lat="-3.9759744611" lon="-80.9526417777"><ele>17.44</ele><time>2012-08-09T23:51:07Z</time></trkpt><trkpt lat="-3.9768569078" lon="-80.9534268267"><ele>20.81</ele><time>2012-08-09T23:51:12Z</time></trkpt><trkpt lat="-3.9780903887" lon="-80.9545285441"><ele>17.44</ele><time>2012-08-09T23:51:19Z</time></trkpt><trkpt lat="-3.9806975797" lon="-80.9568595514"><ele>16.48</ele><time>2012-08-09T23:51:34Z</time></trkpt><trkpt lat="-3.9825640619" lon="-80.9585865587"><ele>16.00</ele><time>2012-08-09T23:51:46Z</time></trkpt><trkpt lat="-3.9831901900" lon="-80.9598083887"><ele>16.00</ele><time>2012-08-09T23:51:53Z</time></trkpt><trkpt lat="-3.9833194390" lon="-80.9606169909"><ele>18.88</ele><time>2012-08-09T23:51:57Z</time></trkpt><trkpt lat="-3.9832952153" lon="-80.9612397663"><ele>22.73</ele><time>2012-08-09T23:52:00Z</time></trkpt><trkpt lat="-3.9829335362" lon="-80.9628024884"><ele>19.36</ele><time>2012-08-09T23:52:08Z</time></trkpt><trkpt lat="-3.9828368928" lon="-80.9631830268"><ele>15.52</ele><time>2012-08-09T23:52:10Z</time></trkpt><trkpt lat="-3.9827480447" lon="-80.9635566082"><ele>11.67</ele><time>2012-08-09T23:52:12Z</time></trkpt><trkpt lat="-3.9827135950" lon="-80.9637364000"><ele>11.67</ele><time>2012-08-09T23:52:13Z</time></trkpt><trkpt lat="-3.9826719370" lon="-80.9642301779"><ele>7.35</ele><time>2012-08-09T23:52:16Z</time></trkpt><trkpt lat="-3.9829551615" lon="-80.9654908162"><ele>8.31</ele><time>2012-08-09T23:52:24Z</time></trkpt><trkpt lat="-3.9837109577" lon="-80.9665053617"><ele>10.23</ele><time>2012-08-09T23:52:32Z</time></trkpt><trkpt lat="-3.9839432202" lon="-80.9667155799"><ele>6.87</ele><time>2012-08-09T23:52:34Z</time></trkpt><trkpt lat="-3.9851324446" lon="-80.9678004496"><ele>10.71</ele><time>2012-08-09T23:52:43Z</time></trkpt><trkpt lat="-3.9855556469" lon="-80.9682193771"><ele>14.08</ele><time>2012-08-09T23:52:46Z</time></trkpt><trkpt lat="-3.9861350879" lon="-80.9687649552"><ele>17.44</ele><time>2012-08-09T23:52:50Z</time></trkpt><trkpt lat="-3.9885479864" lon="-80.9710294101"><ele>17.92</ele><time>2012-08-09T23:53:06Z</time></trkpt><trkpt lat="-3.9892991725" lon="-80.9717431292"><ele>21.77</ele><time>2012-08-09T23:53:11Z</time></trkpt><trkpt lat="-3.9898750931" lon="-80.9722423553"><ele>25.13</ele><time>2012-08-09T23:53:15Z</time></trkpt><trkpt lat="-3.9912560955" lon="-80.9729556553"><ele>28.50</ele><time>2012-08-09T23:53:23Z</time></trkpt><trkpt lat="-3.9916519728" lon="-80.9730638657"><ele>28.98</ele><time>2012-08-09T23:53:25Z</time></trkpt><trkpt lat="-3.9929054026" lon="-80.9733672906"><ele>32.82</ele><time>2012-08-09T23:53:31Z</time></trkpt><trkpt lat="-3.9937652182" lon="-80.9735773411"><ele>36.19</ele><time>2012-08-09T23:53:35Z</time></trkpt><trkpt lat="-3.9939820580" lon="-80.9736319911"><ele>36.67</ele><time>2012-08-09T23:53:36Z</time></trkpt><trkpt lat="-3.9952530060" lon="-80.9739475697"><ele>40.03</ele><time>2012-08-09T23:53:42Z</time></trkpt><trkpt lat="-3.9958952274" lon="-80.9741000365"><ele>42.92</ele><time>2012-08-09T23:53:45Z</time></trkpt><trkpt lat="-3.9976174571" lon="-80.9745579399"><ele>40.03</ele><time>2012-08-09T23:53:53Z</time></trkpt><trkpt lat="-3.9980439283" lon="-80.9747255780"><ele>36.19</ele><time>2012-08-09T23:53:55Z</time></trkpt><trkpt lat="-3.9984626044" lon="-80.9749233071"><ele>32.82</ele><time>2012-08-09T23:53:57Z</time></trkpt><trkpt lat="-3.9988687914" lon="-80.9751581680"><ele>28.98</ele><time>2012-08-09T23:53:59Z</time></trkpt><trkpt lat="-3.9994590450" lon="-80.9755759221"><ele>27.05</ele><time>2012-08-09T23:54:02Z</time></trkpt><trkpt lat="-4.0019839257" lon="-80.9775125608"><ele>23.69</ele><time>2012-08-09T23:54:15Z</time></trkpt><trkpt lat="-4.0027473494" lon="-80.9781012218"><ele>20.32</ele><time>2012-08-09T23:54:19Z</time></trkpt><trkpt lat="-4.0035186522" lon="-80.9786161222"><ele>16.48</ele><time>2012-08-09T23:54:23Z</time></trkpt><trkpt lat="-4.0050153248" lon="-80.9791119117"><ele>15.52</ele><time>2012-08-09T23:54:30Z</time></trkpt><trkpt lat="-4.0066415817" lon="-80.9790746961"><ele>16.96</ele><time>2012-08-09T23:54:37Z</time></trkpt><trkpt lat="-4.0106418449" lon="-80.9784099273"><ele>18.40</ele><time>2012-08-09T23:54:54Z</time></trkpt><trkpt lat="-4.0113197733" lon="-80.9782997891"><ele>16.96</ele><time>2012-08-09T23:54:57Z</time></trkpt><trkpt lat="-4.0138992202" lon="-80.9778193384"><ele>15.04</ele><time>2012-08-09T23:55:09Z</time></trkpt><trkpt lat="-4.0145450458" lon="-80.9774611797"><ele>11.19</ele><time>2012-08-09T23:55:13Z</time></trkpt><trkpt lat="-4.0146887954" lon="-80.9773367085"><ele>10.71</ele><time>2012-08-09T23:55:14Z</time></trkpt><trkpt lat="-4.0148239955" lon="-80.9772005863"><ele>10.23</ele><time>2012-08-09T23:55:15Z</time></trkpt><trkpt lat="-4.0149486344" lon="-80.9770546574"><ele>9.75</ele><time>2012-08-09T23:55:16Z</time></trkpt><trkpt lat="-4.0150631312" lon="-80.9768990893"><ele>10.23</ele><time>2012-08-09T23:55:17Z</time></trkpt><trkpt lat="-4.0151667316" lon="-80.9767334629"><ele>10.23</ele><time>2012-08-09T23:55:18Z</time></trkpt><trkpt lat="-4.0152568370" lon="-80.9765565209"><ele>10.71</ele><time>2012-08-09T23:55:19Z</time></trkpt><trkpt lat="-4.0153358784" lon="-80.9763712808"><ele>11.19</ele><time>2012-08-09T23:55:20Z</time></trkpt><trkpt lat="-4.0154075436" lon="-80.9761815984"><ele>12.63</ele><time>2012-08-09T23:55:21Z</time></trkpt><trkpt lat="-4.0156129841" lon="-80.9756043367"><ele>16.96</ele><time>2012-08-09T23:55:24Z</time></trkpt><trkpt lat="-4.0158221964" lon="-80.9750098921"><ele>18.88</ele><time>2012-08-09T23:55:27Z</time></trkpt><trkpt lat="-4.0164026432" lon="-80.9733659495"><ele>21.77</ele><time>2012-08-09T23:55:35Z</time></trkpt><trkpt lat="-4.0169463772" lon="-80.9718280379"><ele>25.61</ele><time>2012-08-09T23:55:42Z</time></trkpt><trkpt lat="-4.0179528762" lon="-80.9689963795"><ele>24.17</ele><time>2012-08-09T23:55:55Z</time></trkpt><trkpt lat="-4.0186272003" lon="-80.9677616414"><ele>22.25</ele><time>2012-08-09T23:56:02Z</time></trkpt><trkpt lat="-4.0195474494" lon="-80.9670716431"><ele>24.65</ele><time>2012-08-09T23:56:08Z</time></trkpt><trkpt lat="-4.0200589132" lon="-80.9668078646"><ele>28.02</ele><time>2012-08-09T23:56:11Z</time></trkpt><trkpt lat="-4.0206021443" lon="-80.9665191080"><ele>31.38</ele><time>2012-08-09T23:56:14Z</time></trkpt><trkpt lat="-4.0226216801" lon="-80.9654436260"><ele>28.02</ele><time>2012-08-09T23:56:24Z</time></trkpt><trkpt lat="-4.0228338260" lon="-80.9653327335"><ele>28.50</ele><time>2012-08-09T23:56:25Z</time></trkpt><trkpt lat="-4.0246405452" lon="-80.9643815551"><ele>27.53</ele><time>2012-08-09T23:56:35Z</time></trkpt><trkpt lat="-4.0253587905" lon="-80.9639992565"><ele>24.65</ele><time>2012-08-09T23:56:41Z</time></trkpt><trkpt lat="-4.0258121677" lon="-80.9637555946"><ele>20.81</ele><time>2012-08-09T23:56:45Z</time></trkpt><trkpt lat="-4.0259244014" lon="-80.9636945743"><ele>20.81</ele><time>2012-08-09T23:56:46Z</time></trkpt><trkpt lat="-4.0262598451" lon="-80.9635297861"><ele>21.29</ele><time>2012-08-09T23:56:50Z</time></trkpt><trkpt lat="-4.0263024252" lon="-80.9635252599"><ele>20.81</ele><time>2012-08-09T23:56:51Z</time></trkpt><trkpt lat="-4.0263444185" lon="-80.9635291155"><ele>20.81</ele><time>2012-08-09T23:56:52Z</time></trkpt><trkpt lat="-4.0263923630" lon="-80.9635412693"><ele>20.81</ele><time>2012-08-09T23:56:53Z</time></trkpt><trkpt lat="-4.0264473483" lon="-80.9635590389"><ele>20.32</ele><time>2012-08-09T23:56:54Z</time></trkpt><trkpt lat="-4.0267832112" lon="-80.9636639804"><ele>19.36</ele><time>2012-08-09T23:57:02Z</time></trkpt><trkpt lat="-4.0268060099" lon="-80.9636678360"><ele>18.88</ele><time>2012-08-09T23:57:03Z</time></trkpt><trkpt lat="-4.0270750690" lon="-80.9636090789"><ele>18.88</ele><time>2012-08-09T23:57:08Z</time></trkpt><trkpt lat="-4.0273602214" lon="-80.9634615574"><ele>18.40</ele><time>2012-08-09T23:57:13Z</time></trkpt><trkpt lat="-4.0275797434" lon="-80.9632449690"><ele>18.40</ele><time>2012-08-09T23:57:19Z</time></trkpt><trkpt lat="-4.0276138578" lon="-80.9631802607"><ele>18.40</ele><time>2012-08-09T23:57:30Z</time></trkpt><trkpt lat="-4.0275831800" lon="-80.9632252716"><ele>18.40</ele><time>2012-08-09T23:57:47Z</time></trkpt><trkpt lat="-4.0275646560" lon="-80.9632185660"><ele>18.88</ele><time>2012-08-09T23:58:15Z</time></trkpt><trkpt lat="-4.0275642369" lon="-80.9632148780"><ele>18.88</ele><time>2012-08-09T23:58:43Z</time></trkpt><trkpt lat="-4.0275671706" lon="-80.9632155485"><ele>19.36</ele><time>2012-08-09T23:59:02Z</time></trkpt><trkpt lat="-4.0275658295" lon="-80.9632191528"><ele>19.36</ele><time>2012-08-09T23:59:24Z</time></trkpt><trkpt lat="-4.0275825933" lon="-80.9632079210"><ele>19.36</ele><time>2012-08-09T23:59:40Z</time></trkpt><trkpt lat="-4.0275835153" lon="-80.9632076696"><ele>19.36</ele><time>2012-08-09T23:59:56Z</time></trkpt><trkpt lat="-4.0277112555" lon="-80.9628766682"><ele>19.36</ele><time>2012-08-10T00:00:10Z</time></trkpt><trkpt lat="-4.0278350562" lon="-80.9626218583"><ele>18.88</ele><time>2012-08-10T00:00:19Z</time></trkpt><trkpt lat="-4.0283144172" lon="-80.9623522963"><ele>18.40</ele><time>2012-08-10T00:00:26Z</time></trkpt><trkpt lat="-4.0294444654" lon="-80.9616917185"><ele>16.96</ele><time>2012-08-10T00:00:36Z</time></trkpt><trkpt lat="-4.0307366196" lon="-80.9609443042"><ele>14.08</ele><time>2012-08-10T00:00:45Z</time></trkpt><trkpt lat="-4.0326008387" lon="-80.9598632064"><ele>17.92</ele><time>2012-08-10T00:00:56Z</time></trkpt><trkpt lat="-4.0333511028" lon="-80.9594470449"><ele>21.29</ele><time>2012-08-10T00:01:00Z</time></trkpt><trkpt lat="-4.0362711903" lon="-80.9577579238"><ele>21.29</ele><time>2012-08-10T00:01:15Z</time></trkpt><trkpt lat="-4.0391062014" lon="-80.9561029170"><ele>24.17</ele><time>2012-08-10T00:01:29Z</time></trkpt><trkpt lat="-4.0416568983" lon="-80.9546262771"><ele>21.29</ele><time>2012-08-10T00:01:42Z</time></trkpt><trkpt lat="-4.0433153417" lon="-80.9540967923"><ele>20.81</ele><time>2012-08-10T00:01:50Z</time></trkpt><trkpt lat="-4.0454668086" lon="-80.9540257137"><ele>22.25</ele><time>2012-08-10T00:02:00Z</time></trkpt><trkpt lat="-4.0495547466" lon="-80.9540163260"><ele>23.69</ele><time>2012-08-10T00:02:19Z</time></trkpt><trkpt lat="-4.0510220826" lon="-80.9543703776"><ele>23.69</ele><time>2012-08-10T00:02:26Z</time></trkpt><trkpt lat="-4.0535700973" lon="-80.9556248132"><ele>26.09</ele><time>2012-08-10T00:02:39Z</time></trkpt><trkpt lat="-4.0545696393" lon="-80.9563956968"><ele>29.94</ele><time>2012-08-10T00:02:45Z</time></trkpt><trkpt lat="-4.0549707972" lon="-80.9568766505"><ele>34.74</ele><time>2012-08-10T00:02:48Z</time></trkpt><trkpt lat="-4.0552956797" lon="-80.9574021958"><ele>39.07</ele><time>2012-08-10T00:02:51Z</time></trkpt><trkpt lat="-4.0555533394" lon="-80.9579436667"><ele>42.92</ele><time>2012-08-10T00:02:54Z</time></trkpt><trkpt lat="-4.0557495598" lon="-80.9585028235"><ele>45.80</ele><time>2012-08-10T00:02:57Z</time></trkpt><trkpt lat="-4.0560033638" lon="-80.9592541773"><ele>49.16</ele><time>2012-08-10T00:03:01Z</time></trkpt><trkpt lat="-4.0560696647" lon="-80.9594472125"><ele>49.16</ele><time>2012-08-10T00:03:02Z</time></trkpt><trkpt lat="-4.0568167437" lon="-80.9616039600"><ele>49.65</ele><time>2012-08-10T00:03:12Z</time></trkpt><trkpt lat="-4.0573583823" lon="-80.9631597251"><ele>46.28</ele><time>2012-08-10T00:03:19Z</time></trkpt><trkpt lat="-4.0576652437" lon="-80.9640223067"><ele>42.92</ele><time>2012-08-10T00:03:23Z</time></trkpt><trkpt lat="-4.0587589983" lon="-80.9671417996"><ele>39.07</ele><time>2012-08-10T00:03:37Z</time></trkpt><trkpt lat="-4.0590019897" lon="-80.9678431135"><ele>35.71</ele><time>2012-08-10T00:03:40Z</time></trkpt><trkpt lat="-4.0593163110" lon="-80.9687688109"><ele>32.34</ele><time>2012-08-10T00:03:44Z</time></trkpt><trkpt lat="-4.0597074945" lon="-80.9698839393"><ele>28.98</ele><time>2012-08-10T00:03:49Z</time></trkpt><trkpt lat="-4.0612404607" lon="-80.9743119311"><ele>26.57</ele><time>2012-08-10T00:04:09Z</time></trkpt><trkpt lat="-4.0621051379" lon="-80.9767745342"><ele>23.21</ele><time>2012-08-10T00:04:21Z</time></trkpt><trkpt lat="-4.0624135081" lon="-80.9776156582"><ele>19.84</ele><time>2012-08-10T00:04:26Z</time></trkpt><trkpt lat="-4.0627999138" lon="-80.9788029548"><ele>23.69</ele><time>2012-08-10T00:04:33Z</time></trkpt><trkpt lat="-4.0634909179" lon="-80.9806867875"><ele>26.09</ele><time>2012-08-10T00:04:44Z</time></trkpt><trkpt lat="-4.0641793236" lon="-80.9826741368"><ele>26.57</ele><time>2012-08-10T00:04:53Z</time></trkpt><trkpt lat="-4.0645306092" lon="-80.9836394805"><ele>30.42</ele><time>2012-08-10T00:04:57Z</time></trkpt><trkpt lat="-4.0647997521" lon="-80.9843745735"><ele>34.26</ele><time>2012-08-10T00:05:00Z</time></trkpt><trkpt lat="-4.0658184886" lon="-80.9865974542"><ele>35.71</ele><time>2012-08-10T00:05:10Z</time></trkpt><trkpt lat="-4.0677868109" lon="-80.9901188593"><ele>35.71</ele><time>2012-08-10T00:05:26Z</time></trkpt><trkpt lat="-4.0688071400" lon="-80.9919338766"><ele>39.07</ele><time>2012-08-10T00:05:34Z</time></trkpt><trkpt lat="-4.0691813920" lon="-80.9925900958"><ele>42.44</ele><time>2012-08-10T00:05:37Z</time></trkpt><trkpt lat="-4.0695446637" lon="-80.9932348318"><ele>45.32</ele><time>2012-08-10T00:05:40Z</time></trkpt><trkpt lat="-4.0699070133" lon="-80.9938690905"><ele>46.76</ele><time>2012-08-10T00:05:43Z</time></trkpt><trkpt lat="-4.0702304710" lon="-80.9944528900"><ele>42.92</ele><time>2012-08-10T00:05:46Z</time></trkpt><trkpt lat="-4.0704467241" lon="-80.9948429838"><ele>39.55</ele><time>2012-08-10T00:05:48Z</time></trkpt><trkpt lat="-4.0706482250" lon="-80.9952024836"><ele>34.74</ele><time>2012-08-10T00:05:50Z</time></trkpt><trkpt lat="-4.0708033741" lon="-80.9954970237"><ele>29.46</ele><time>2012-08-10T00:05:52Z</time></trkpt><trkpt lat="-4.0708544198" lon="-80.9956193995"><ele>26.09</ele><time>2012-08-10T00:05:53Z</time></trkpt><trkpt lat="-4.0708856843" lon="-80.9957375005"><ele>23.69</ele><time>2012-08-10T00:05:54Z</time></trkpt><trkpt lat="-4.0709037054" lon="-80.9958571941"><ele>21.29</ele><time>2012-08-10T00:05:55Z</time></trkpt><trkpt lat="-4.0709311981" lon="-80.9960875288"><ele>16.96</ele><time>2012-08-10T00:05:57Z</time></trkpt><trkpt lat="-4.0709518176" lon="-80.9962016065"><ele>15.52</ele><time>2012-08-10T00:05:58Z</time></trkpt><trkpt lat="-4.0709822439" lon="-80.9963134211"><ele>14.56</ele><time>2012-08-10T00:05:59Z</time></trkpt><trkpt lat="-4.0710173640" lon="-80.9964169376"><ele>14.08</ele><time>2012-08-10T00:06:00Z</time></trkpt><trkpt lat="-4.0710581001" lon="-80.9965114854"><ele>15.04</ele><time>2012-08-10T00:06:01Z</time></trkpt><trkpt lat="-4.0711067151" lon="-80.9966045246"><ele>15.04</ele><time>2012-08-10T00:06:02Z</time></trkpt><trkpt lat="-4.0713328589" lon="-80.9969966300"><ele>19.36</ele><time>2012-08-10T00:06:06Z</time></trkpt><trkpt lat="-4.0713980701" lon="-80.9970812034"><ele>20.32</ele><time>2012-08-10T00:06:07Z</time></trkpt><trkpt lat="-4.0714697354" lon="-80.9971560538"><ele>21.77</ele><time>2012-08-10T00:06:08Z</time></trkpt><trkpt lat="-4.0715473518" lon="-80.9972212650"><ele>23.21</ele><time>2012-08-10T00:06:09Z</time></trkpt><trkpt lat="-4.0716268960" lon="-80.9972765017"><ele>24.17</ele><time>2012-08-10T00:06:10Z</time></trkpt><trkpt lat="-4.0717064403" lon="-80.9973267931"><ele>25.61</ele><time>2012-08-10T00:06:11Z</time></trkpt><trkpt lat="-4.0719352663" lon="-80.9974979516"><ele>28.50</ele><time>2012-08-10T00:06:14Z</time></trkpt><trkpt lat="-4.0720035788" lon="-80.9975733049"><ele>29.46</ele><time>2012-08-10T00:06:15Z</time></trkpt><trkpt lat="-4.0720659401" lon="-80.9976620693"><ele>28.98</ele><time>2012-08-10T00:06:16Z</time></trkpt><trkpt lat="-4.0721203387" lon="-80.9977595508"><ele>29.94</ele><time>2012-08-10T00:06:17Z</time></trkpt><trkpt lat="-4.0721702110" lon="-80.9978625644"><ele>29.94</ele><time>2012-08-10T00:06:18Z</time></trkpt><trkpt lat="-4.0726119373" lon="-80.9986902773"><ele>33.78</ele><time>2012-08-10T00:06:25Z</time></trkpt><trkpt lat="-4.0729185473" lon="-80.9992313292"><ele>37.63</ele><time>2012-08-10T00:06:29Z</time></trkpt><trkpt lat="-4.0731673222" lon="-80.9996728040"><ele>40.99</ele><time>2012-08-10T00:06:32Z</time></trkpt><trkpt lat="-4.0734310169" lon="-81.0001394246"><ele>44.84</ele><time>2012-08-10T00:06:35Z</time></trkpt><trkpt lat="-4.0737099666" lon="-81.0006308556"><ele>48.20</ele><time>2012-08-10T00:06:38Z</time></trkpt><trkpt lat="-4.0739924368" lon="-81.0011302494"><ele>51.57</ele><time>2012-08-10T00:06:41Z</time></trkpt><trkpt lat="-4.0741799399" lon="-81.0014621727"><ele>52.05</ele><time>2012-08-10T00:06:43Z</time></trkpt><trkpt lat="-4.0748658311" lon="-81.0026684962"><ele>55.41</ele><time>2012-08-10T00:06:50Z</time></trkpt><trkpt lat="-4.0758145787" lon="-81.0046190489"><ele>58.78</ele><time>2012-08-10T00:07:00Z</time></trkpt><trkpt lat="-4.0763172414" lon="-81.0067087412"><ele>60.22</ele><time>2012-08-10T00:07:09Z</time></trkpt><trkpt lat="-4.0766720474" lon="-81.0082262848"><ele>56.37</ele><time>2012-08-10T00:07:15Z</time></trkpt><trkpt lat="-4.0768546052" lon="-81.0089901276"><ele>52.53</ele><time>2012-08-10T00:07:18Z</time></trkpt><trkpt lat="-4.0770358220" lon="-81.0097662080"><ele>49.16</ele><time>2012-08-10T00:07:21Z</time></trkpt><trkpt lat="-4.0773396660" lon="-81.0110860225"><ele>45.80</ele><time>2012-08-10T00:07:26Z</time></trkpt><trkpt lat="-4.0776621178" lon="-81.0124494229"><ele>41.95</ele><time>2012-08-10T00:07:31Z</time></trkpt><trkpt lat="-4.0778642055" lon="-81.0132690892"><ele>38.11</ele><time>2012-08-10T00:07:34Z</time></trkpt><trkpt lat="-4.0780631080" lon="-81.0140873305"><ele>34.74</ele><time>2012-08-10T00:07:37Z</time></trkpt><trkpt lat="-4.0782594122" lon="-81.0149142891"><ele>33.30</ele><time>2012-08-10T00:07:40Z</time></trkpt><trkpt lat="-4.0785740688" lon="-81.0162408091"><ele>30.42</ele><time>2012-08-10T00:07:45Z</time></trkpt><trkpt lat="-4.0787771624" lon="-81.0169664305"><ele>26.57</ele><time>2012-08-10T00:07:48Z</time></trkpt><trkpt lat="-4.0789556131" lon="-81.0174273513"><ele>23.21</ele><time>2012-08-10T00:07:50Z</time></trkpt><trkpt lat="-4.0793074016" lon="-81.0180844925"><ele>19.84</ele><time>2012-08-10T00:07:53Z</time></trkpt><trkpt lat="-4.0797467809" lon="-81.0186876543"><ele>18.40</ele><time>2012-08-10T00:07:56Z</time></trkpt><trkpt lat="-4.0810125321" lon="-81.0197999328"><ele>16.96</ele><time>2012-08-10T00:08:03Z</time></trkpt><trkpt lat="-4.0828289744" lon="-81.0206586588"><ele>17.92</ele><time>2012-08-10T00:08:11Z</time></trkpt><trkpt lat="-4.0873199143" lon="-81.0226222873"><ele>17.44</ele><time>2012-08-10T00:08:30Z</time></trkpt><trkpt lat="-4.0875541884" lon="-81.0227253009"><ele>17.44</ele><time>2012-08-10T00:08:31Z</time></trkpt><trkpt lat="-4.0918151289" lon="-81.0245869216"><ele>16.48</ele><time>2012-08-10T00:08:49Z</time></trkpt><trkpt lat="-4.0924188774" lon="-81.0248516221"><ele>13.60</ele><time>2012-08-10T00:08:52Z</time></trkpt><trkpt lat="-4.0929940436" lon="-81.0251004808"><ele>9.27</ele><time>2012-08-10T00:08:55Z</time></trkpt><trkpt lat="-4.0948108211" lon="-81.0258980189"><ele>13.12</ele><time>2012-08-10T00:09:04Z</time></trkpt><trkpt lat="-4.0952420700" lon="-81.0260864440"><ele>14.08</ele><time>2012-08-10T00:09:06Z</time></trkpt><trkpt lat="-4.0973402280" lon="-81.0270032566"><ele>10.71</ele><time>2012-08-10T00:09:16Z</time></trkpt><trkpt lat="-4.0997660346" lon="-81.0280758049"><ele>11.67</ele><time>2012-08-10T00:09:28Z</time></trkpt><trkpt lat="-4.1006660834" lon="-81.0285218898"><ele>12.15</ele><time>2012-08-10T00:09:33Z</time></trkpt><trkpt lat="-4.1008062288" lon="-81.0286248196"><ele>10.71</ele><time>2012-08-10T00:09:34Z</time></trkpt><trkpt lat="-4.1009392496" lon="-81.0287342872"><ele>9.75</ele><time>2012-08-10T00:09:35Z</time></trkpt><trkpt lat="-4.1011936404" lon="-81.0289844871"><ele>7.35</ele><time>2012-08-10T00:09:37Z</time></trkpt><trkpt lat="-4.1013062093" lon="-81.0291261412"><ele>6.39</ele><time>2012-08-10T00:09:38Z</time></trkpt><trkpt lat="-4.1014113184" lon="-81.0292796139"><ele>5.42</ele><time>2012-08-10T00:09:39Z</time></trkpt><trkpt lat="-4.1021299828" lon="-81.0304970015"><ele>9.27</ele><time>2012-08-10T00:09:46Z</time></trkpt><trkpt lat="-4.1025261953" lon="-81.0311901849"><ele>12.15</ele><time>2012-08-10T00:09:50Z</time></trkpt><trkpt lat="-4.1028799955" lon="-81.0319848731"><ele>7.83</ele><time>2012-08-10T00:09:55Z</time></trkpt><trkpt lat="-4.1029738728" lon="-81.0322965123"><ele>4.94</ele><time>2012-08-10T00:09:57Z</time></trkpt><trkpt lat="-4.1033333726" lon="-81.0338898282"><ele>4.46</ele><time>2012-08-10T00:10:08Z</time></trkpt><trkpt lat="-4.1033523157" lon="-81.0340267047"><ele>4.94</ele><time>2012-08-10T00:10:10Z</time></trkpt><trkpt lat="-4.1033685766" lon="-81.0341458954"><ele>1.58</ele><time>2012-08-10T00:10:14Z</time></trkpt><trkpt lat="-4.1035071295" lon="-81.0346820857"><ele>1.10</ele><time>2012-08-10T00:10:21Z</time></trkpt><trkpt lat="-4.1035628691" lon="-81.0349179525"><ele>4.94</ele><time>2012-08-10T00:10:23Z</time></trkpt><trkpt lat="-4.1036264878" lon="-81.0351687390"><ele>8.31</ele><time>2012-08-10T00:10:25Z</time></trkpt><trkpt lat="-4.1037198622" lon="-81.0355750937"><ele>12.15</ele><time>2012-08-10T00:10:28Z</time></trkpt><trkpt lat="-4.1039291583" lon="-81.0365669243"><ele>8.79</ele><time>2012-08-10T00:10:36Z</time></trkpt><trkpt lat="-4.1039978899" lon="-81.0369019490"><ele>5.42</ele><time>2012-08-10T00:10:39Z</time></trkpt><trkpt lat="-4.1043056734" lon="-81.0382714681"><ele>3.98</ele><time>2012-08-10T00:10:51Z</time></trkpt><trkpt lat="-4.1043273825" lon="-81.0383759066"><ele>-0.34</ele><time>2012-08-10T00:10:54Z</time></trkpt><trkpt lat="-4.1043413803" lon="-81.0384241864"><ele>-2.75</ele><time>2012-08-10T00:10:57Z</time></trkpt><trkpt lat="-4.1044423822" lon="-81.0388726182"><ele>-1.30</ele><time>2012-08-10T00:11:04Z</time></trkpt><trkpt lat="-4.1045838688" lon="-81.0395060387"><ele>2.06</ele><time>2012-08-10T00:11:10Z</time></trkpt><trkpt lat="-4.1049073264" lon="-81.0409441218"><ele>2.06</ele><time>2012-08-10T00:11:21Z</time></trkpt><trkpt lat="-4.1049609706" lon="-81.0411523283"><ele>0.14</ele><time>2012-08-10T00:11:23Z</time></trkpt><trkpt lat="-4.1050051432" lon="-81.0413192958"><ele>-1.79</ele><time>2012-08-10T00:11:25Z</time></trkpt></trkseg><trkseg><trkpt lat="-4.1057101451" lon="-81.0445735697"><ele>2.06</ele><time>2012-08-10T00:12:02Z</time></trkpt></trkseg><trkseg><trkpt lat="-4.1060306691" lon="-81.0460521374"><ele>4.46</ele><time>2012-08-10T00:12:25Z</time></trkpt></trkseg><trkseg><trkpt lat="-4.1063205991" lon="-81.0474048089"><ele>-0.34</ele><time>2012-08-10T00:12:45Z</time></trkpt><trkpt lat="-4.1063317470" lon="-81.0474507418"><ele>-0.34</ele><time>2012-08-10T00:12:47Z</time></trkpt><trkpt lat="-4.1063407157" lon="-81.0474835988"><ele>-1.30</ele><time>2012-08-10T00:12:56Z</time></trkpt><trkpt lat="-4.1063433141" lon="-81.0475107562"><ele>-1.79</ele><time>2012-08-10T00:13:23Z</time></trkpt><trkpt lat="-4.1063452419" lon="-81.0475205630"><ele>-1.79</ele><time>2012-08-10T00:13:26Z</time></trkpt><trkpt lat="-4.1063468345" lon="-81.0475306213"><ele>-1.79</ele><time>2012-08-10T00:13:27Z</time></trkpt><trkpt lat="-4.1063600779" lon="-81.0475484747"><ele>-1.79</ele><time>2012-08-10T00:13:28Z</time></trkpt><trkpt lat="-4.1064230260" lon="-81.0478629638"><ele>-1.79</ele><time>2012-08-10T00:13:38Z</time></trkpt><trkpt lat="-4.1065292247" lon="-81.0485743359"><ele>-1.79</ele><time>2012-08-10T00:13:51Z</time></trkpt><trkpt lat="-4.1066694539" lon="-81.0493427049"><ele>-1.79</ele><time>2012-08-10T00:14:04Z</time></trkpt><trkpt lat="-4.1066981200" lon="-81.0493607260"><ele>-1.79</ele><time>2012-08-10T00:14:05Z</time></trkpt><trkpt lat="-4.1067175660" lon="-81.0493673477"><ele>-1.79</ele><time>2012-08-10T00:14:06Z</time></trkpt><trkpt lat="-4.1067580506" lon="-81.0492856242"><ele>-2.27</ele><time>2012-08-10T00:14:21Z</time></trkpt><trkpt lat="-4.1068208311" lon="-81.0492467321"><ele>-2.27</ele><time>2012-08-10T00:14:26Z</time></trkpt><trkpt lat="-4.1068582982" lon="-81.0492330696"><ele>-2.27</ele><time>2012-08-10T00:14:27Z</time></trkpt><trkpt lat="-4.1071096715" lon="-81.0491800122"><ele>-2.27</ele><time>2012-08-10T00:14:43Z</time></trkpt><trkpt lat="-4.1071592923" lon="-81.0491517652"><ele>-2.27</ele><time>2012-08-10T00:14:57Z</time></trkpt><trkpt lat="-4.1071377508" lon="-81.0491846222"><ele>-2.27</ele><time>2012-08-10T00:15:17Z</time></trkpt><trkpt lat="-4.1070724558" lon="-81.0491994582"><ele>-2.27</ele><time>2012-08-10T00:15:35Z</time></trkpt><trkpt lat="-4.1070800833" lon="-81.0491954349"><ele>-2.75</ele><time>2012-08-10T00:15:47Z</time></trkpt><trkpt lat="-4.1070946679" lon="-81.0491870530"><ele>-2.75</ele><time>2012-08-10T00:15:48Z</time></trkpt><trkpt lat="-4.1071141139" lon="-81.0491792578"><ele>-2.75</ele><time>2012-08-10T00:15:49Z</time></trkpt><trkpt lat="-4.1071354039" lon="-81.0491741449"><ele>-2.75</ele><time>2012-08-10T00:15:50Z</time></trkpt><trkpt lat="-4.1071605496" lon="-81.0491688643"><ele>-2.75</ele><time>2012-08-10T00:15:51Z</time></trkpt><trkpt lat="-4.1075228155" lon="-81.0491797607"><ele>-2.75</ele><time>2012-08-10T00:16:04Z</time></trkpt><trkpt lat="-4.1078261565" lon="-81.0491141304"><ele>-2.75</ele><time>2012-08-10T00:16:16Z</time></trkpt><trkpt lat="-4.1080549825" lon="-81.0490846261"><ele>-2.75</ele><time>2012-08-10T00:16:29Z</time></trkpt><trkpt lat="-4.1080653761" lon="-81.0490724724"><ele>-2.75</ele><time>2012-08-10T00:16:32Z</time></trkpt><trkpt lat="-4.1080818046" lon="-81.0490618274"><ele>-2.75</ele><time>2012-08-10T00:16:33Z</time></trkpt><trkpt lat="-4.1081050225" lon="-81.0490554571"><ele>-2.75</ele><time>2012-08-10T00:16:34Z</time></trkpt><trkpt lat="-4.1081388015" lon="-81.0490513500"><ele>-2.75</ele><time>2012-08-10T00:16:35Z</time></trkpt><trkpt lat="-4.1081743408" lon="-81.0490505118"><ele>-1.79</ele><time>2012-08-10T00:16:36Z</time></trkpt><trkpt lat="-4.1082069464" lon="-81.0490477458"><ele>-1.79</ele><time>2012-08-10T00:16:37Z</time></trkpt><trkpt lat="-4.1084634326" lon="-81.0489721410"><ele>-1.30</ele><time>2012-08-10T00:16:55Z</time></trkpt><trkpt lat="-4.1085120477" lon="-81.0489590652"><ele>-1.30</ele><time>2012-08-10T00:17:14Z</time></trkpt><trkpt lat="-4.1084604990" lon="-81.0489518568"><ele>-1.30</ele><time>2012-08-10T00:17:33Z</time></trkpt><trkpt lat="-4.1084713954" lon="-81.0489800200"><ele>-1.30</ele><time>2012-08-10T00:17:35Z</time></trkpt><trkpt lat="-4.1085330863" lon="-81.0494729597"><ele>-0.82</ele><time>2012-08-10T00:17:46Z</time></trkpt><trkpt lat="-4.1085578129" lon="-81.0496690124"><ele>-0.82</ele><time>2012-08-10T00:17:56Z</time></trkpt><trkpt lat="-4.1085692961" lon="-81.0499891173"><ele>-0.82</ele><time>2012-08-10T00:18:08Z</time></trkpt><trkpt lat="-4.1085419711" lon="-81.0500111617"><ele>-0.82</ele><time>2012-08-10T00:18:16Z</time></trkpt><trkpt lat="-4.1085113771" lon="-81.0500214715"><ele>-0.82</ele><time>2012-08-10T00:18:17Z</time></trkpt><trkpt lat="-4.1081477702" lon="-81.0499763768"><ele>-0.82</ele><time>2012-08-10T00:18:33Z</time></trkpt><trkpt lat="-4.1081486084" lon="-81.0498493072"><ele>-0.82</ele><time>2012-08-10T00:18:52Z</time></trkpt><trkpt lat="-4.1081286594" lon="-81.0496075731"><ele>-0.34</ele><time>2012-08-10T00:19:04Z</time></trkpt><trkpt lat="-4.1080516297" lon="-81.0492383502"><ele>-1.79</ele><time>2012-08-10T00:19:18Z</time></trkpt><trkpt lat="-4.1080415715" lon="-81.0490649287"><ele>-1.30</ele><time>2012-08-10T00:19:32Z</time></trkpt><trkpt lat="-4.1080461815" lon="-81.0490611568"><ele>-1.79</ele><time>2012-08-10T00:20:00Z</time></trkpt><trkpt lat="-4.1079713311" lon="-81.0490308981"><ele>-1.79</ele><time>2012-08-10T00:20:18Z</time></trkpt><trkpt lat="-4.1080317646" lon="-81.0490434710"><ele>-1.30</ele><time>2012-08-10T00:20:29Z</time></trkpt><trkpt lat="-4.1080379672" lon="-81.0490614921"><ele>-1.30</ele><time>2012-08-10T00:20:30Z</time></trkpt><trkpt lat="-4.1081221215" lon="-81.0495551862"><ele>-1.30</ele><time>2012-08-10T00:20:45Z</time></trkpt><trkpt lat="-4.1081232112" lon="-81.0496571939"><ele>-1.30</ele><time>2012-08-10T00:20:56Z</time></trkpt><trkpt lat="-4.1081531346" lon="-81.0499534104"><ele>-1.30</ele><time>2012-08-10T00:21:08Z</time></trkpt><trkpt lat="-4.1081512906" lon="-81.0500381514"><ele>-1.30</ele><time>2012-08-10T00:21:21Z</time></trkpt><trkpt lat="-4.1081295814" lon="-81.0500732716"><ele>-1.79</ele><time>2012-08-10T00:21:46Z</time></trkpt><trkpt lat="-4.1080177668" lon="-81.0500534065"><ele>-1.79</ele><time>2012-08-10T00:22:06Z</time></trkpt><trkpt lat="-4.1079780366" lon="-81.0500734393"><ele>-2.27</ele><time>2012-08-10T00:22:22Z</time></trkpt><trkpt lat="-4.1079646256" lon="-81.0500746127"><ele>-2.27</ele><time>2012-08-10T00:22:23Z</time></trkpt><trkpt lat="-4.1077958141" lon="-81.0501267482"><ele>-1.79</ele><time>2012-08-10T00:22:41Z</time></trkpt><trkpt lat="-4.1077859234" lon="-81.0501415841"><ele>-1.79</ele><time>2012-08-10T00:22:45Z</time></trkpt><trkpt lat="-4.1077808104" lon="-81.0501549952"><ele>-1.79</ele><time>2012-08-10T00:22:46Z</time></trkpt><trkpt lat="-4.1078364663" lon="-81.0503683146"><ele>-1.79</ele><time>2012-08-10T00:23:03Z</time></trkpt><trkpt lat="-4.1078224685" lon="-81.0503339488"><ele>-1.79</ele><time>2012-08-10T00:23:13Z</time></trkpt><trkpt lat="-4.1078254022" lon="-81.0503150057"><ele>-1.79</ele><time>2012-08-10T00:23:26Z</time></trkpt><trkpt lat="-4.1078236420" lon="-81.0503522214"><ele>-1.79</ele><time>2012-08-10T00:23:42Z</time></trkpt><trkpt lat="-4.1078008432" lon="-81.0503196158"><ele>-1.79</ele><time>2012-08-10T00:23:57Z</time></trkpt><trkpt lat="-4.1077883542" lon="-81.0503332783"><ele>-1.79</ele><time>2012-08-10T00:24:10Z</time></trkpt><trkpt lat="-4.1077913716" lon="-81.0502943024"><ele>-1.30</ele><time>2012-08-10T00:24:30Z</time></trkpt><trkpt lat="-4.1077931318" lon="-81.0502793826"><ele>-1.30</ele><time>2012-08-10T00:24:52Z</time></trkpt><trkpt lat="-4.1078054532" lon="-81.0503164306"><ele>-1.30</ele><time>2012-08-10T00:25:15Z</time></trkpt><trkpt lat="-4.1078346223" lon="-81.0504597612"><ele>-1.30</ele><time>2012-08-10T00:25:28Z</time></trkpt><trkpt lat="-4.1078362986" lon="-81.0504727531"><ele>-1.30</ele><time>2012-08-10T00:25:29Z</time></trkpt><trkpt lat="-4.1078409925" lon="-81.0504885949"><ele>-1.30</ele><time>2012-08-10T00:25:30Z</time></trkpt><trkpt lat="-4.1078475304" lon="-81.0505051911"><ele>-1.30</ele><time>2012-08-10T00:25:31Z</time></trkpt><trkpt lat="-4.1078547388" lon="-81.0505225416"><ele>-1.30</ele><time>2012-08-10T00:25:32Z</time></trkpt><trkpt lat="-4.1078664735" lon="-81.0505359527"><ele>-1.30</ele><time>2012-08-10T00:25:33Z</time></trkpt><trkpt lat="-4.1078793816" lon="-81.0505439155"><ele>-1.30</ele><time>2012-08-10T00:25:34Z</time></trkpt><trkpt lat="-4.1079555731" lon="-81.0505687259"><ele>-1.30</ele><time>2012-08-10T00:25:45Z</time></trkpt><trkpt lat="-4.1079662181" lon="-81.0505367070"><ele>-1.30</ele><time>2012-08-10T00:25:53Z</time></trkpt><trkpt lat="-4.1079717502" lon="-81.0505372938"><ele>-1.30</ele><time>2012-08-10T00:26:07Z</time></trkpt><trkpt lat="-4.1079771146" lon="-81.0505269002"><ele>0.14</ele><time>2012-08-10T00:26:35Z</time></trkpt><trkpt lat="-4.1079720855" lon="-81.0505326837"><ele>0.14</ele><time>2012-08-10T00:27:15Z</time></trkpt><trkpt lat="-4.1079789586" lon="-81.0505409818"><ele>0.14</ele><time>2012-08-10T00:27:28Z</time></trkpt><trkpt lat="-4.1079752706" lon="-81.0505434964"><ele>0.14</ele><time>2012-08-10T00:27:51Z</time></trkpt><trkpt lat="-4.1079761088" lon="-81.0505432449"><ele>0.62</ele><time>2012-08-10T00:28:24Z</time></trkpt><trkpt lat="-4.1079767793" lon="-81.0505423229"><ele>0.62</ele><time>2012-08-10T00:28:47Z</time></trkpt><trkpt lat="-4.1079766117" lon="-81.0505430773"><ele>0.62</ele><time>2012-08-10T00:29:18Z</time></trkpt><trkpt lat="-4.1079380549" lon="-81.0505607631"><ele>0.62</ele><time>2012-08-10T00:29:37Z</time></trkpt><trkpt lat="-4.1078860871" lon="-81.0505729169"><ele>-0.34</ele><time>2012-08-10T00:29:42Z</time></trkpt><trkpt lat="-4.1078114882" lon="-81.0504163429"><ele>-1.30</ele><time>2012-08-10T00:29:59Z</time></trkpt><trkpt lat="-4.1078184452" lon="-81.0503637884"><ele>-1.79</ele><time>2012-08-10T00:30:18Z</time></trkpt><trkpt lat="-4.1078223847" lon="-81.0503843240"><ele>-1.30</ele><time>2012-08-10T00:30:39Z</time></trkpt><trkpt lat="-4.1078067105" lon="-81.0503714997"><ele>-1.30</ele><time>2012-08-10T00:31:00Z</time></trkpt><trkpt lat="-4.1078046989" lon="-81.0503677279"><ele>-1.30</ele><time>2012-08-10T00:31:15Z</time></trkpt><trkpt lat="-4.1077995859" lon="-81.0503402352"><ele>-1.30</ele><time>2012-08-10T00:31:33Z</time></trkpt><trkpt lat="-4.1077968199" lon="-81.0503518023"><ele>-1.30</ele><time>2012-08-10T00:31:46Z</time></trkpt><trkpt lat="-4.1077991668" lon="-81.0503409058"><ele>-0.82</ele><time>2012-08-10T00:31:57Z</time></trkpt><trkpt lat="-4.1078110691" lon="-81.0503281653"><ele>-0.82</ele><time>2012-08-10T00:32:12Z</time></trkpt><trkpt lat="-4.1077978257" lon="-81.0503101442"><ele>-0.82</ele><time>2012-08-10T00:32:44Z</time></trkpt><trkpt lat="-4.1078002565" lon="-81.0502761975"><ele>-0.34</ele><time>2012-08-10T00:33:04Z</time></trkpt><trkpt lat="-4.1077996697" lon="-81.0502609424"><ele>-0.34</ele><time>2012-08-10T00:33:05Z</time></trkpt><trkpt lat="-4.1077988315" lon="-81.0502415802"><ele>-0.34</ele><time>2012-08-10T00:33:06Z</time></trkpt><trkpt lat="-4.1077966522" lon="-81.0502183624"><ele>-0.34</ele><time>2012-08-10T00:33:07Z</time></trkpt><trkpt lat="-4.1077950597" lon="-81.0501953959"><ele>-0.34</ele><time>2012-08-10T00:33:08Z</time></trkpt><trkpt lat="-4.1077867616" lon="-81.0501306038"><ele>-0.34</ele><time>2012-08-10T00:33:12Z</time></trkpt><trkpt lat="-4.1076783836" lon="-81.0500815697"><ele>-0.34</ele><time>2012-08-10T00:33:17Z</time></trkpt><trkpt lat="-4.1076368932" lon="-81.0500832461"><ele>-0.34</ele><time>2012-08-10T00:33:18Z</time></trkpt><trkpt lat="-4.1075454466" lon="-81.0500904545"><ele>-0.34</ele><time>2012-08-10T00:33:20Z</time></trkpt><trkpt lat="-4.1072378308" lon="-81.0501503851"><ele>-0.82</ele><time>2012-08-10T00:33:30Z</time></trkpt><trkpt lat="-4.1069166362" lon="-81.0501923785"><ele>-0.82</ele><time>2012-08-10T00:33:39Z</time></trkpt><trkpt lat="-4.1068033967" lon="-81.0502609424"><ele>-1.30</ele><time>2012-08-10T00:33:50Z</time></trkpt><trkpt lat="-4.1067718808" lon="-81.0503343679"><ele>-1.30</ele><time>2012-08-10T00:33:52Z</time></trkpt><trkpt lat="-4.1067649238" lon="-81.0503803845"><ele>-1.30</ele><time>2012-08-10T00:33:53Z</time></trkpt><trkpt lat="-4.1067503393" lon="-81.0505316779"><ele>-1.30</ele><time>2012-08-10T00:34:00Z</time></trkpt><trkpt lat="-4.1067297198" lon="-81.0510756634"><ele>-1.30</ele><time>2012-08-10T00:34:09Z</time></trkpt><trkpt lat="-4.1066464875" lon="-81.0520772170"><ele>0.14</ele><time>2012-08-10T00:34:24Z</time></trkpt><trkpt lat="-4.1065981239" lon="-81.0521287657"><ele>0.14</ele><time>2012-08-10T00:34:34Z</time></trkpt><trkpt lat="-4.1066589765" lon="-81.0520565137"><ele>0.14</ele><time>2012-08-10T00:34:49Z</time></trkpt><trkpt lat="-4.1066404525" lon="-81.0520498082"><ele>0.14</ele><time>2012-08-10T00:35:12Z</time></trkpt><trkpt lat="-4.1066419613" lon="-81.0520542506"><ele>-0.82</ele><time>2012-08-10T00:35:17Z</time></trkpt><trkpt lat="-4.1066494212" lon="-81.0520621296"><ele>-1.30</ele><time>2012-08-10T00:35:34Z</time></trkpt><trkpt lat="-4.1066470742" lon="-81.0520735290"><ele>-0.82</ele><time>2012-08-10T00:35:54Z</time></trkpt><trkpt lat="-4.1066231020" lon="-81.0520441085"><ele>-1.79</ele><time>2012-08-10T00:36:17Z</time></trkpt><trkpt lat="-4.1066581383" lon="-81.0520538315"><ele>-1.30</ele><time>2012-08-10T00:36:30Z</time></trkpt><trkpt lat="-4.1066590603" lon="-81.0520469584"><ele>-1.30</ele><time>2012-08-10T00:36:46Z</time></trkpt><trkpt lat="-4.1066611558" lon="-81.0520612914"><ele>-1.30</ele><time>2012-08-10T00:37:03Z</time></trkpt><trkpt lat="-4.1066691186" lon="-81.0520737804"><ele>-1.30</ele><time>2012-08-10T00:37:12Z</time></trkpt><trkpt lat="-4.1066803504" lon="-81.0520990938"><ele>-1.30</ele><time>2012-08-10T00:37:13Z</time></trkpt><trkpt lat="-4.1066908278" lon="-81.0521315318"><ele>-1.30</ele><time>2012-08-10T00:37:14Z</time></trkpt><trkpt lat="-4.1066996288" lon="-81.0521708429"><ele>-1.30</ele><time>2012-08-10T00:37:15Z</time></trkpt><trkpt lat="-4.1067032330" lon="-81.0522189550"><ele>-1.30</ele><time>2012-08-10T00:37:16Z</time></trkpt><trkpt lat="-4.1067043226" lon="-81.0522762872"><ele>-1.30</ele><time>2012-08-10T00:37:17Z</time></trkpt><trkpt lat="-4.1067475732" lon="-81.0530470032"><ele>-1.30</ele><time>2012-08-10T00:37:28Z</time></trkpt><trkpt lat="-4.1069218330" lon="-81.0536779929"><ele>-1.30</ele><time>2012-08-10T00:37:39Z</time></trkpt><trkpt lat="-4.1071074922" lon="-81.0544267483"><ele>-1.30</ele><time>2012-08-10T00:37:50Z</time></trkpt><trkpt lat="-4.1071235016" lon="-81.0544875171"><ele>-1.30</ele><time>2012-08-10T00:37:51Z</time></trkpt><trkpt lat="-4.1073885374" lon="-81.0552966222"><ele>-0.82</ele><time>2012-08-10T00:38:02Z</time></trkpt><trkpt lat="-4.1074270103" lon="-81.0561620537"><ele>-0.82</ele><time>2012-08-10T00:38:13Z</time></trkpt><trkpt lat="-4.1073804908" lon="-81.0567728430"><ele>-1.30</ele><time>2012-08-10T00:38:25Z</time></trkpt><trkpt lat="-4.1073518246" lon="-81.0572386254"><ele>-1.79</ele><time>2012-08-10T00:38:38Z</time></trkpt><trkpt lat="-4.1073505674" lon="-81.0573654436"><ele>-2.27</ele><time>2012-08-10T00:38:44Z</time></trkpt><trkpt lat="-4.1073137708" lon="-81.0581296217"><ele>-1.30</ele><time>2012-08-10T00:38:55Z</time></trkpt><trkpt lat="-4.1073559318" lon="-81.0588666424"><ele>2.06</ele><time>2012-08-10T00:39:05Z</time></trkpt><trkpt lat="-4.1074122582" lon="-81.0591500346"><ele>5.42</ele><time>2012-08-10T00:39:08Z</time></trkpt><trkpt lat="-4.1074340511" lon="-81.0592472646"><ele>5.42</ele><time>2012-08-10T00:39:09Z</time></trkpt><trkpt lat="-4.1075149365" lon="-81.0595461633"><ele>6.87</ele><time>2012-08-10T00:39:12Z</time></trkpt><trkpt lat="-4.1079737619" lon="-81.0610728431"><ele>7.83</ele><time>2012-08-10T00:39:25Z</time></trkpt><trkpt lat="-4.1080368776" lon="-81.0611799639"><ele>7.83</ele><time>2012-08-10T00:39:26Z</time></trkpt><trkpt lat="-4.1081098840" lon="-81.0612789541"><ele>6.39</ele><time>2012-08-10T00:39:27Z</time></trkpt><trkpt lat="-4.1088427976" lon="-81.0620354209"><ele>6.39</ele><time>2012-08-10T00:39:36Z</time></trkpt><trkpt lat="-4.1089377645" lon="-81.0621333215"><ele>3.02</ele><time>2012-08-10T00:39:40Z</time></trkpt><trkpt lat="-4.1090055741" lon="-81.0622037295"><ele>-0.34</ele><time>2012-08-10T00:39:44Z</time></trkpt><trkpt lat="-4.1093273554" lon="-81.0625343956"><ele>3.98</ele><time>2012-08-10T00:39:50Z</time></trkpt><trkpt lat="-4.1095446143" lon="-81.0627640598"><ele>8.79</ele><time>2012-08-10T00:39:53Z</time></trkpt><trkpt lat="-4.1097817384" lon="-81.0630040336"><ele>12.15</ele><time>2012-08-10T00:39:56Z</time></trkpt><trkpt lat="-4.1105646919" lon="-81.0636264738"><ele>16.00</ele><time>2012-08-10T00:40:05Z</time></trkpt><trkpt lat="-4.1110568773" lon="-81.0638486780"><ele>19.36</ele><time>2012-08-10T00:40:10Z</time></trkpt><trkpt lat="-4.1113787424" lon="-81.0639494285"><ele>22.73</ele><time>2012-08-10T00:40:13Z</time></trkpt><trkpt lat="-4.1117115878" lon="-81.0640384443"><ele>26.57</ele><time>2012-08-10T00:40:16Z</time></trkpt><trkpt lat="-4.1120584309" lon="-81.0641257837"><ele>29.94</ele><time>2012-08-10T00:40:19Z</time></trkpt><trkpt lat="-4.1125444137" lon="-81.0642600618"><ele>32.82</ele><time>2012-08-10T00:40:23Z</time></trkpt><trkpt lat="-4.1128369421" lon="-81.0643589683"><ele>33.78</ele><time>2012-08-10T00:40:25Z</time></trkpt><trkpt lat="-4.1134680156" lon="-81.0646023788"><ele>37.63</ele><time>2012-08-10T00:40:30Z</time></trkpt><trkpt lat="-4.1136027128" lon="-81.0646578670"><ele>37.63</ele><time>2012-08-10T00:40:31Z</time></trkpt><trkpt lat="-4.1141267493" lon="-81.0648671631"><ele>40.99</ele><time>2012-08-10T00:40:35Z</time></trkpt><trkpt lat="-4.1146398894" lon="-81.0650776327"><ele>43.88</ele><time>2012-08-10T00:40:39Z</time></trkpt><trkpt lat="-4.1151367687" lon="-81.0652784631"><ele>47.72</ele><time>2012-08-10T00:40:43Z</time></trkpt><trkpt lat="-4.1154958494" lon="-81.0654051136"><ele>51.09</ele><time>2012-08-10T00:40:46Z</time></trkpt><trkpt lat="-4.1158633120" lon="-81.0654963925"><ele>54.45</ele><time>2012-08-10T00:40:49Z</time></trkpt><trkpt lat="-4.1159931477" lon="-81.0655137431"><ele>55.41</ele><time>2012-08-10T00:40:50Z</time></trkpt><trkpt lat="-4.1171750799" lon="-81.0653989948"><ele>54.45</ele><time>2012-08-10T00:40:58Z</time></trkpt><trkpt lat="-4.1176515911" lon="-81.0653342027"><ele>50.61</ele><time>2012-08-10T00:41:01Z</time></trkpt><trkpt lat="-4.1179887112" lon="-81.0653015133"><ele>47.24</ele><time>2012-08-10T00:41:03Z</time></trkpt><trkpt lat="-4.1192229465" lon="-81.0651432630"><ele>52.05</ele><time>2012-08-10T00:41:11Z</time></trkpt><trkpt lat="-4.1195154749" lon="-81.0651017725"><ele>56.86</ele><time>2012-08-10T00:41:13Z</time></trkpt><trkpt lat="-4.1196640022" lon="-81.0650798958"><ele>60.22</ele><time>2012-08-10T00:41:14Z</time></trkpt><trkpt lat="-4.1199700255" lon="-81.0650325380"><ele>63.58</ele><time>2012-08-10T00:41:16Z</time></trkpt><trkpt lat="-4.1209723335" lon="-81.0648855194"><ele>49.65</ele><time>2012-08-10T00:41:22Z</time></trkpt><trkpt lat="-4.1211480182" lon="-81.0648674145"><ele>50.61</ele><time>2012-08-10T00:41:23Z</time></trkpt><trkpt lat="-4.1213231999" lon="-81.0648554284"><ele>54.93</ele><time>2012-08-10T00:41:24Z</time></trkpt><trkpt lat="-4.1214975435" lon="-81.0648544226"><ele>55.41</ele><time>2012-08-10T00:41:25Z</time></trkpt><trkpt lat="-4.1227182001" lon="-81.0651348811"><ele>54.93</ele><time>2012-08-10T00:41:33Z</time></trkpt><trkpt lat="-4.1230039392" lon="-81.0652307700"><ele>58.30</ele><time>2012-08-10T00:41:35Z</time></trkpt><trkpt lat="-4.1234180052" lon="-81.0653715860"><ele>62.62</ele><time>2012-08-10T00:41:38Z</time></trkpt><trkpt lat="-4.1238305625" lon="-81.0655046906"><ele>65.99</ele><time>2012-08-10T00:41:41Z</time></trkpt><trkpt lat="-4.1242375039" lon="-81.0656377953"><ele>67.43</ele><time>2012-08-10T00:41:44Z</time></trkpt><trkpt lat="-4.1263543535" lon="-81.0661861394"><ele>71.27</ele><time>2012-08-10T00:41:59Z</time></trkpt><trkpt lat="-4.1266308725" lon="-81.0662600677"><ele>74.64</ele><time>2012-08-10T00:42:01Z</time></trkpt><trkpt lat="-4.1269043740" lon="-81.0663296375"><ele>78.00</ele><time>2012-08-10T00:42:03Z</time></trkpt><trkpt lat="-4.1271764506" lon="-81.0664018895"><ele>80.89</ele><time>2012-08-10T00:42:05Z</time></trkpt><trkpt lat="-4.1275782790" lon="-81.0665108543"><ele>84.73</ele><time>2012-08-10T00:42:08Z</time></trkpt><trkpt lat="-4.1279760841" lon="-81.0666157119"><ele>86.18</ele><time>2012-08-10T00:42:11Z</time></trkpt><trkpt lat="-4.1300826240" lon="-81.0671906266"><ele>87.14</ele><time>2012-08-10T00:42:25Z</time></trkpt><trkpt lat="-4.1323504318" lon="-81.0678528808"><ele>90.98</ele><time>2012-08-10T00:42:38Z</time></trkpt><trkpt lat="-4.1327918228" lon="-81.0680653621"><ele>95.79</ele><time>2012-08-10T00:42:41Z</time></trkpt><trkpt lat="-4.1330670845" lon="-81.0682366043"><ele>99.15</ele><time>2012-08-10T00:42:43Z</time></trkpt><trkpt lat="-4.1333291028" lon="-81.0684276279"><ele>103.00</ele><time>2012-08-10T00:42:45Z</time></trkpt><trkpt lat="-4.1337068751" lon="-81.0687564500"><ele>106.36</ele><time>2012-08-10T00:42:48Z</time></trkpt><trkpt lat="-4.1345863882" lon="-81.0699424893"><ele>106.84</ele><time>2012-08-10T00:42:56Z</time></trkpt><trkpt lat="-4.1351086646" lon="-81.0714775510"><ele>105.88</ele><time>2012-08-10T00:43:04Z</time></trkpt><trkpt lat="-4.1353574395" lon="-81.0724096186"><ele>109.25</ele><time>2012-08-10T00:43:09Z</time></trkpt><trkpt lat="-4.1355339624" lon="-81.0729867965"><ele>113.09</ele><time>2012-08-10T00:43:12Z</time></trkpt><trkpt lat="-4.1356513090" lon="-81.0733601265"><ele>114.05</ele><time>2012-08-10T00:43:14Z</time></trkpt><trkpt lat="-4.1360158380" lon="-81.0745484289"><ele>110.21</ele><time>2012-08-10T00:43:20Z</time></trkpt><trkpt lat="-4.1361368727" lon="-81.0751990322"><ele>105.88</ele><time>2012-08-10T00:43:23Z</time></trkpt><trkpt lat="-4.1361698136" lon="-81.0756483860"><ele>102.52</ele><time>2012-08-10T00:43:25Z</time></trkpt><trkpt lat="-4.1361713223" lon="-81.0763302539"><ele>98.67</ele><time>2012-08-10T00:43:28Z</time></trkpt><trkpt lat="-4.1361793689" lon="-81.0778618790"><ele>95.79</ele><time>2012-08-10T00:43:35Z</time></trkpt><trkpt lat="-4.1362990625" lon="-81.0787004046"><ele>92.42</ele><time>2012-08-10T00:43:39Z</time></trkpt><trkpt lat="-4.1369139589" lon="-81.0801258311"><ele>89.54</ele><time>2012-08-10T00:43:46Z</time></trkpt><trkpt lat="-4.1376995947" lon="-81.0815609805"><ele>86.18</ele><time>2012-08-10T00:43:53Z</time></trkpt><trkpt lat="-4.1382093821" lon="-81.0825251509"><ele>82.81</ele><time>2012-08-10T00:43:58Z</time></trkpt><trkpt lat="-4.1385605000" lon="-81.0832570586"><ele>79.45</ele><time>2012-08-10T00:44:02Z</time></trkpt><trkpt lat="-4.1391302180" lon="-81.0850681365"><ele>81.37</ele><time>2012-08-10T00:44:11Z</time></trkpt><trkpt lat="-4.1399370600" lon="-81.0878169816"><ele>78.00</ele><time>2012-08-10T00:44:24Z</time></trkpt><trkpt lat="-4.1401225515" lon="-81.0884386674"><ele>73.68</ele><time>2012-08-10T00:44:27Z</time></trkpt><trkpt lat="-4.1402574163" lon="-81.0888341255"><ele>70.79</ele><time>2012-08-10T00:44:29Z</time></trkpt><trkpt lat="-4.1405283194" lon="-81.0894097947"><ele>66.95</ele><time>2012-08-10T00:44:32Z</time></trkpt><trkpt lat="-4.1407583188" lon="-81.0897873994"><ele>66.47</ele><time>2012-08-10T00:44:34Z</time></trkpt><trkpt lat="-4.1418208927" lon="-81.0909280926"><ele>65.51</ele><time>2012-08-10T00:44:41Z</time></trkpt><trkpt lat="-4.1423856653" lon="-81.0913080443"><ele>61.66</ele><time>2012-08-10T00:44:44Z</time></trkpt><trkpt lat="-4.1427905951" lon="-81.0915308353"><ele>58.30</ele><time>2012-08-10T00:44:46Z</time></trkpt><trkpt lat="-4.1431994643" lon="-81.0917456634"><ele>53.97</ele><time>2012-08-10T00:44:48Z</time></trkpt><trkpt lat="-4.1436032206" lon="-81.0919594858"><ele>50.13</ele><time>2012-08-10T00:44:50Z</time></trkpt><trkpt lat="-4.1440107487" lon="-81.0921779182"><ele>46.76</ele><time>2012-08-10T00:44:52Z</time></trkpt><trkpt lat="-4.1446259804" lon="-81.0925054830"><ele>42.44</ele><time>2012-08-10T00:44:55Z</time></trkpt><trkpt lat="-4.1454281285" lon="-81.0929349717"><ele>39.07</ele><time>2012-08-10T00:44:59Z</time></trkpt><trkpt lat="-4.1456281208" lon="-81.0930428468"><ele>39.07</ele><time>2012-08-10T00:45:00Z</time></trkpt><trkpt lat="-4.1466295905" lon="-81.0935752653"><ele>42.44</ele><time>2012-08-10T00:45:05Z</time></trkpt><trkpt lat="-4.1468300857" lon="-81.0936814640"><ele>42.44</ele><time>2012-08-10T00:45:06Z</time></trkpt><trkpt lat="-4.1485786345" lon="-81.0946148727"><ele>39.55</ele><time>2012-08-10T00:45:15Z</time></trkpt><trkpt lat="-4.1501564439" lon="-81.0951622948"><ele>37.63</ele><time>2012-08-10T00:45:23Z</time></trkpt><trkpt lat="-4.1509642079" lon="-81.0952145979"><ele>40.51</ele><time>2012-08-10T00:45:27Z</time></trkpt><trkpt lat="-4.1515578143" lon="-81.0951783881"><ele>44.84</ele><time>2012-08-10T00:45:30Z</time></trkpt><trkpt lat="-4.1529511381" lon="-81.0947053973"><ele>41.47</ele><time>2012-08-10T00:45:37Z</time></trkpt><trkpt lat="-4.1537498496" lon="-81.0942591447"><ele>38.11</ele><time>2012-08-10T00:45:41Z</time></trkpt><trkpt lat="-4.1545128543" lon="-81.0938480962"><ele>34.26</ele><time>2012-08-10T00:45:45Z</time></trkpt><trkpt lat="-4.1548695881" lon="-81.0936823860"><ele>32.82</ele><time>2012-08-10T00:45:47Z</time></trkpt><trkpt lat="-4.1550400760" lon="-81.0936339386"><ele>32.34</ele><time>2012-08-10T00:45:48Z</time></trkpt><trkpt lat="-4.1552056186" lon="-81.0936155822"><ele>33.30</ele><time>2012-08-10T00:45:49Z</time></trkpt><trkpt lat="-4.1553691495" lon="-81.0936203599"><ele>32.34</ele><time>2012-08-10T00:45:50Z</time></trkpt><trkpt lat="-4.1555297468" lon="-81.0936445836"><ele>32.34</ele><time>2012-08-10T00:45:51Z</time></trkpt><trkpt lat="-4.1556858178" lon="-81.0936906841"><ele>32.82</ele><time>2012-08-10T00:45:52Z</time></trkpt><trkpt lat="-4.1558335070" lon="-81.0937565658"><ele>34.74</ele><time>2012-08-10T00:45:53Z</time></trkpt><trkpt lat="-4.1559711378" lon="-81.0938428994"><ele>36.19</ele><time>2012-08-10T00:45:54Z</time></trkpt><trkpt lat="-4.1560956929" lon="-81.0939437337"><ele>37.63</ele><time>2012-08-10T00:45:55Z</time></trkpt><trkpt lat="-4.1562075075" lon="-81.0940586496"><ele>39.55</ele><time>2012-08-10T00:45:56Z</time></trkpt><trkpt lat="-4.1563046537" lon="-81.0941870604"><ele>41.47</ele><time>2012-08-10T00:45:57Z</time></trkpt><trkpt lat="-4.1563888919" lon="-81.0943257809"><ele>42.92</ele><time>2012-08-10T00:45:58Z</time></trkpt><trkpt lat="-4.1564550251" lon="-81.0944761522"><ele>44.36</ele><time>2012-08-10T00:45:59Z</time></trkpt><trkpt lat="-4.1565023828" lon="-81.0946409404"><ele>44.36</ele><time>2012-08-10T00:46:00Z</time></trkpt><trkpt lat="-4.1565339826" lon="-81.0948105901"><ele>45.32</ele><time>2012-08-10T00:46:01Z</time></trkpt><trkpt lat="-4.1565573681" lon="-81.0949850176"><ele>45.80</ele><time>2012-08-10T00:46:02Z</time></trkpt><trkpt lat="-4.1567822546" lon="-81.0967293754"><ele>42.44</ele><time>2012-08-10T00:46:11Z</time></trkpt><trkpt lat="-4.1569852643" lon="-81.0981923528"><ele>39.55</ele><time>2012-08-10T00:46:18Z</time></trkpt><trkpt lat="-4.1570806503" lon="-81.0987810977"><ele>35.71</ele><time>2012-08-10T00:46:21Z</time></trkpt><trkpt lat="-4.1571912076" lon="-81.0991411004"><ele>32.82</ele><time>2012-08-10T00:46:23Z</time></trkpt><trkpt lat="-4.1573421657" lon="-81.0994775500"><ele>28.98</ele><time>2012-08-10T00:46:25Z</time></trkpt><trkpt lat="-4.1575439181" lon="-81.0998103116"><ele>25.61</ele><time>2012-08-10T00:46:27Z</time></trkpt><trkpt lat="-4.1576639470" lon="-81.0999751836"><ele>25.61</ele><time>2012-08-10T00:46:28Z</time></trkpt><trkpt lat="-4.1582153924" lon="-81.1005398724"><ele>22.25</ele><time>2012-08-10T00:46:32Z</time></trkpt><trkpt lat="-4.1590227373" lon="-81.1012784019"><ele>25.61</ele><time>2012-08-10T00:46:38Z</time></trkpt><trkpt lat="-4.1592943110" lon="-81.1015266739"><ele>28.98</ele><time>2012-08-10T00:46:40Z</time></trkpt><trkpt lat="-4.1595647950" lon="-81.1017722636"><ele>32.34</ele><time>2012-08-10T00:46:42Z</time></trkpt><trkpt lat="-4.1599755082" lon="-81.1021477729"><ele>36.19</ele><time>2012-08-10T00:46:45Z</time></trkpt><trkpt lat="-4.1618545633" lon="-81.1039147619"><ele>35.71</ele><time>2012-08-10T00:46:59Z</time></trkpt><trkpt lat="-4.1622239538" lon="-81.1042601801"><ele>40.03</ele><time>2012-08-10T00:47:02Z</time></trkpt><trkpt lat="-4.1625937633" lon="-81.1046102084"><ele>43.88</ele><time>2012-08-10T00:47:05Z</time></trkpt><trkpt lat="-4.1628454719" lon="-81.1048484221"><ele>44.84</ele><time>2012-08-10T00:47:07Z</time></trkpt><trkpt lat="-4.1635173652" lon="-81.1054636538"><ele>41.47</ele><time>2012-08-10T00:47:12Z</time></trkpt><trkpt lat="-4.1639592592" lon="-81.1058737803"><ele>37.63</ele><time>2012-08-10T00:47:15Z</time></trkpt><trkpt lat="-4.1645040829" lon="-81.1064798757"><ele>34.74</ele><time>2012-08-10T00:47:19Z</time></trkpt><trkpt lat="-4.1650506668" lon="-81.1076872889"><ele>35.23</ele><time>2012-08-10T00:47:26Z</time></trkpt><trkpt lat="-4.1652906407" lon="-81.1093904078"><ele>35.23</ele><time>2012-08-10T00:47:35Z</time></trkpt><trkpt lat="-4.1654562671" lon="-81.1106274929"><ele>31.38</ele><time>2012-08-10T00:47:41Z</time></trkpt><trkpt lat="-4.1655619629" lon="-81.1114352569"><ele>28.98</ele><time>2012-08-10T00:47:45Z</time></trkpt><trkpt lat="-4.1656591091" lon="-81.1121830903"><ele>32.34</ele><time>2012-08-10T00:47:49Z</time></trkpt><trkpt lat="-4.1657011863" lon="-81.1125416681"><ele>35.23</ele><time>2012-08-10T00:47:51Z</time></trkpt><trkpt lat="-4.1657443531" lon="-81.1128905229"><ele>39.55</ele><time>2012-08-10T00:47:53Z</time></trkpt><trkpt lat="-4.1657891963" lon="-81.1132386234"><ele>42.92</ele><time>2012-08-10T00:47:55Z</time></trkpt><trkpt lat="-4.1658617835" lon="-81.1137677729"><ele>45.80</ele><time>2012-08-10T00:47:58Z</time></trkpt><trkpt lat="-4.1660594288" lon="-81.1152263917"><ele>42.92</ele><time>2012-08-10T00:48:06Z</time></trkpt><trkpt lat="-4.1661539767" lon="-81.1157635879"><ele>38.59</ele><time>2012-08-10T00:48:09Z</time></trkpt><trkpt lat="-4.1663436592" lon="-81.1162769794"><ele>34.26</ele><time>2012-08-10T00:48:12Z</time></trkpt><trkpt lat="-4.1665265523" lon="-81.1166014429"><ele>31.86</ele><time>2012-08-10T00:48:14Z</time></trkpt><trkpt lat="-4.1666406300" lon="-81.1167539936"><ele>30.90</ele><time>2012-08-10T00:48:15Z</time></trkpt><trkpt lat="-4.1667736508" lon="-81.1169047840"><ele>31.38</ele><time>2012-08-10T00:48:16Z</time></trkpt><trkpt lat="-4.1669137124" lon="-81.1170449294"><ele>30.42</ele><time>2012-08-10T00:48:17Z</time></trkpt><trkpt lat="-4.1670603119" lon="-81.1171778664"><ele>29.94</ele><time>2012-08-10T00:48:18Z</time></trkpt><trkpt lat="-4.1677565128" lon="-81.1176721472"><ele>26.57</ele><time>2012-08-10T00:48:22Z</time></trkpt><trkpt lat="-4.1683039349" lon="-81.1180226784"><ele>22.73</ele><time>2012-08-10T00:48:25Z</time></trkpt><trkpt lat="-4.1686645243" lon="-81.1182543542"><ele>19.84</ele><time>2012-08-10T00:48:27Z</time></trkpt><trkpt lat="-4.1690184083" lon="-81.1184794083"><ele>16.00</ele><time>2012-08-10T00:48:29Z</time></trkpt><trkpt lat="-4.1693644971" lon="-81.1187027860"><ele>12.15</ele><time>2012-08-10T00:48:31Z</time></trkpt><trkpt lat="-4.1698633879" lon="-81.1190316919"><ele>8.31</ele><time>2012-08-10T00:48:34Z</time></trkpt><trkpt lat="-4.1703365464" lon="-81.1193433311"><ele>6.87</ele><time>2012-08-10T00:48:37Z</time></trkpt><trkpt lat="-4.1711560450" lon="-81.1198998895"><ele>5.42</ele><time>2012-08-10T00:48:44Z</time></trkpt><trkpt lat="-4.1715501621" lon="-81.1201685295"><ele>2.06</ele><time>2012-08-10T00:48:49Z</time></trkpt><trkpt lat="-4.1717958357" lon="-81.1203346588"><ele>-1.30</ele><time>2012-08-10T00:48:54Z</time></trkpt><trkpt lat="-4.1721596941" lon="-81.1205639876"><ele>0.14</ele><time>2012-08-10T00:49:04Z</time></trkpt><trkpt lat="-4.1727262270" lon="-81.1211737711"><ele>3.02</ele><time>2012-08-10T00:49:12Z</time></trkpt><trkpt lat="-4.1731181648" lon="-81.1216819659"><ele>6.39</ele><time>2012-08-10T00:49:17Z</time></trkpt><trkpt lat="-4.1743059643" lon="-81.1231659818"><ele>6.87</ele><time>2012-08-10T00:49:31Z</time></trkpt><trkpt lat="-4.1744579282" lon="-81.1233408283"><ele>2.54</ele><time>2012-08-10T00:49:34Z</time></trkpt><trkpt lat="-4.1745632049" lon="-81.1234706640"><ele>-0.34</ele><time>2012-08-10T00:49:37Z</time></trkpt><trkpt lat="-4.1750734951" lon="-81.1241126340"><ele>3.02</ele><time>2012-08-10T00:49:49Z</time></trkpt><trkpt lat="-4.1758525092" lon="-81.1251030397"><ele>4.94</ele><time>2012-08-10T00:50:00Z</time></trkpt><trkpt lat="-4.1765856743" lon="-81.1260215286"><ele>3.98</ele><time>2012-08-10T00:50:11Z</time></trkpt><trkpt lat="-4.1769705713" lon="-81.1265241913"><ele>0.14</ele><time>2012-08-10T00:50:19Z</time></trkpt><trkpt lat="-4.1773646884" lon="-81.1270036362"><ele>-0.82</ele><time>2012-08-10T00:50:27Z</time></trkpt><trkpt lat="-4.1775744036" lon="-81.1272704322"><ele>2.54</ele><time>2012-08-10T00:50:30Z</time></trkpt><trkpt lat="-4.1777142137" lon="-81.1274491344"><ele>3.50</ele><time>2012-08-10T00:50:32Z</time></trkpt><trkpt lat="-4.1785132606" lon="-81.1284299009"><ele>3.98</ele><time>2012-08-10T00:50:43Z</time></trkpt><trkpt lat="-4.1788133327" lon="-81.1288299691"><ele>0.62</ele><time>2012-08-10T00:50:48Z</time></trkpt><trkpt lat="-4.1789154243" lon="-81.1289878003"><ele>-3.23</ele><time>2012-08-10T00:50:51Z</time></trkpt><trkpt lat="-4.1789112333" lon="-81.1289776582"><ele>-5.63</ele><time>2012-08-10T00:50:55Z</time></trkpt><trkpt lat="-4.1790216230" lon="-81.1290798336"><ele>-3.71</ele><time>2012-08-10T00:50:59Z</time></trkpt><trkpt lat="-4.1791490279" lon="-81.1292482261"><ele>0.14</ele><time>2012-08-10T00:51:02Z</time></trkpt><trkpt lat="-4.1793735791" lon="-81.1295215599"><ele>3.98</ele><time>2012-08-10T00:51:06Z</time></trkpt><trkpt lat="-4.1805317905" lon="-81.1309526023"><ele>4.94</ele><time>2012-08-10T00:51:23Z</time></trkpt><trkpt lat="-4.1812225431" lon="-81.1318193749"><ele>3.98</ele><time>2012-08-10T00:51:33Z</time></trkpt><trkpt lat="-4.1815357748" lon="-81.1322507914"><ele>3.98</ele><time>2012-08-10T00:51:40Z</time></trkpt><trkpt lat="-4.1815199330" lon="-81.1324149091"><ele>3.50</ele><time>2012-08-10T00:51:52Z</time></trkpt><trkpt lat="-4.1816385370" lon="-81.1325465888"><ele>3.50</ele><time>2012-08-10T00:52:09Z</time></trkpt><trkpt lat="-4.1818634234" lon="-81.1326268036"><ele>3.98</ele><time>2012-08-10T00:52:21Z</time></trkpt><trkpt lat="-4.1819022316" lon="-81.1326582357"><ele>3.98</ele><time>2012-08-10T00:52:22Z</time></trkpt><trkpt lat="-4.1823970154" lon="-81.1330620758"><ele>7.83</ele><time>2012-08-10T00:52:30Z</time></trkpt><trkpt lat="-4.1826728638" lon="-81.1332162190"><ele>12.15</ele><time>2012-08-10T00:52:33Z</time></trkpt><trkpt lat="-4.1829873528" lon="-81.1333436240"><ele>16.00</ele><time>2012-08-10T00:52:36Z</time></trkpt><trkpt lat="-4.1833180189" lon="-81.1334617250"><ele>17.44</ele><time>2012-08-10T00:52:39Z</time></trkpt><trkpt lat="-4.1845476441" lon="-81.1337119248"><ele>17.92</ele><time>2012-08-10T00:52:48Z</time></trkpt><trkpt lat="-4.1851919610" lon="-81.1337458715"><ele>21.29</ele><time>2012-08-10T00:52:52Z</time></trkpt><trkpt lat="-4.1856854036" lon="-81.1337690055"><ele>25.13</ele><time>2012-08-10T00:52:55Z</time></trkpt><trkpt lat="-4.1861945204" lon="-81.1337928101"><ele>29.46</ele><time>2012-08-10T00:52:58Z</time></trkpt><trkpt lat="-4.1868663300" lon="-81.1338250805"><ele>32.34</ele><time>2012-08-10T00:53:02Z</time></trkpt><trkpt lat="-4.1876434162" lon="-81.1339509767"><ele>28.50</ele><time>2012-08-10T00:53:07Z</time></trkpt><trkpt lat="-4.1877905186" lon="-81.1340107396"><ele>27.53</ele><time>2012-08-10T00:53:08Z</time></trkpt><trkpt lat="-4.1889811680" lon="-81.1345681362"><ele>31.86</ele><time>2012-08-10T00:53:16Z</time></trkpt><trkpt lat="-4.1894227266" lon="-81.1347822938"><ele>35.23</ele><time>2012-08-10T00:53:19Z</time></trkpt><trkpt lat="-4.1898533888" lon="-81.1350505985"><ele>39.07</ele><time>2012-08-10T00:53:22Z</time></trkpt><trkpt lat="-4.1906300560" lon="-81.1357104219"><ele>42.92</ele><time>2012-08-10T00:53:28Z</time></trkpt><trkpt lat="-4.1911694314" lon="-81.1360891163"><ele>46.76</ele><time>2012-08-10T00:53:32Z</time></trkpt><trkpt lat="-4.1915876046" lon="-81.1363211274"><ele>50.13</ele><time>2012-08-10T00:53:35Z</time></trkpt><trkpt lat="-4.1920001619" lon="-81.1365372129"><ele>54.45</ele><time>2012-08-10T00:53:38Z</time></trkpt><trkpt lat="-4.1924023256" lon="-81.1367495265"><ele>58.30</ele><time>2012-08-10T00:53:41Z</time></trkpt><trkpt lat="-4.1927945986" lon="-81.1369563919"><ele>61.18</ele><time>2012-08-10T00:53:44Z</time></trkpt><trkpt lat="-4.1929263622" lon="-81.1370270513"><ele>61.18</ele><time>2012-08-10T00:53:45Z</time></trkpt><trkpt lat="-4.1934287734" lon="-81.1372969486"><ele>64.07</ele><time>2012-08-10T00:53:49Z</time></trkpt><trkpt lat="-4.1939088888" lon="-81.1375554465"><ele>67.91</ele><time>2012-08-10T00:53:53Z</time></trkpt><trkpt lat="-4.1942730825" lon="-81.1377485655"><ele>72.24</ele><time>2012-08-10T00:53:56Z</time></trkpt><trkpt lat="-4.1956390813" lon="-81.1387004144"><ele>71.76</ele><time>2012-08-10T00:54:07Z</time></trkpt><trkpt lat="-4.1967014037" lon="-81.1391981319"><ele>70.31</ele><time>2012-08-10T00:54:14Z</time></trkpt><trkpt lat="-4.1971566249" lon="-81.1394350883"><ele>68.39</ele><time>2012-08-10T00:54:17Z</time></trkpt><trkpt lat="-4.1972910706" lon="-81.1395404488"><ele>67.43</ele><time>2012-08-10T00:54:18Z</time></trkpt><trkpt lat="-4.1974105965" lon="-81.1396608967"><ele>65.99</ele><time>2012-08-10T00:54:19Z</time></trkpt><trkpt lat="-4.1975167114" lon="-81.1397942528"><ele>64.07</ele><time>2012-08-10T00:54:20Z</time></trkpt><trkpt lat="-4.1976126004" lon="-81.1399373319"><ele>62.14</ele><time>2012-08-10T00:54:21Z</time></trkpt><trkpt lat="-4.1977923084" lon="-81.1402315367"><ele>58.78</ele><time>2012-08-10T00:54:23Z</time></trkpt><trkpt lat="-4.1980038676" lon="-81.1405098159"><ele>54.45</ele><time>2012-08-10T00:54:25Z</time></trkpt><trkpt lat="-4.1981303506" lon="-81.1406238098"><ele>53.01</ele><time>2012-08-10T00:54:26Z</time></trkpt><trkpt lat="-4.1985479370" lon="-81.1409263965"><ele>49.65</ele><time>2012-08-10T00:54:29Z</time></trkpt><trkpt lat="-4.1988380346" lon="-81.1411278136"><ele>49.16</ele><time>2012-08-10T00:54:31Z</time></trkpt><trkpt lat="-4.1995897237" lon="-81.1416160595"><ele>48.68</ele><time>2012-08-10T00:54:36Z</time></trkpt><trkpt lat="-4.1997588705" lon="-81.1416893173"><ele>49.16</ele><time>2012-08-10T00:54:37Z</time></trkpt><trkpt lat="-4.1999338847" lon="-81.1417483259"><ele>47.24</ele><time>2012-08-10T00:54:38Z</time></trkpt><trkpt lat="-4.2001130898" lon="-81.1417916603"><ele>45.80</ele><time>2012-08-10T00:54:39Z</time></trkpt><trkpt lat="-4.2003023531" lon="-81.1418190692"><ele>44.36</ele><time>2012-08-10T00:54:40Z</time></trkpt><trkpt lat="-4.2004941311" lon="-81.1418313067"><ele>42.92</ele><time>2012-08-10T00:54:41Z</time></trkpt><trkpt lat="-4.2006784491" lon="-81.1418172251"><ele>40.99</ele><time>2012-08-10T00:54:42Z</time></trkpt><trkpt lat="-4.2010639329" lon="-81.1417905707"><ele>37.63</ele><time>2012-08-10T00:54:44Z</time></trkpt><trkpt lat="-4.2016688548" lon="-81.1417730525"><ele>34.26</ele><time>2012-08-10T00:54:47Z</time></trkpt><trkpt lat="-4.2033961974" lon="-81.1415374372"><ele>33.78</ele><time>2012-08-10T00:54:56Z</time></trkpt><trkpt lat="-4.2050586641" lon="-81.1413677037"><ele>33.78</ele><time>2012-08-10T00:55:05Z</time></trkpt><trkpt lat="-4.2065044586" lon="-81.1418624036"><ele>31.38</ele><time>2012-08-10T00:55:13Z</time></trkpt><trkpt lat="-4.2068133317" lon="-81.1420297064"><ele>28.98</ele><time>2012-08-10T00:55:15Z</time></trkpt><trkpt lat="-4.2069503758" lon="-81.1421326362"><ele>27.53</ele><time>2012-08-10T00:55:16Z</time></trkpt><trkpt lat="-4.2070806306" lon="-81.1422501504"><ele>26.09</ele><time>2012-08-10T00:55:17Z</time></trkpt><trkpt lat="-4.2072032578" lon="-81.1423793994"><ele>25.13</ele><time>2012-08-10T00:55:18Z</time></trkpt><trkpt lat="-4.2073127255" lon="-81.1425213888"><ele>24.17</ele><time>2012-08-10T00:55:19Z</time></trkpt><trkpt lat="-4.2074053455" lon="-81.1426710058"><ele>24.17</ele><time>2012-08-10T00:55:20Z</time></trkpt><trkpt lat="-4.2074806150" lon="-81.1428286694"><ele>24.65</ele><time>2012-08-10T00:55:21Z</time></trkpt><trkpt lat="-4.2075426411" lon="-81.1429953855"><ele>23.69</ele><time>2012-08-10T00:55:22Z</time></trkpt><trkpt lat="-4.2075907532" lon="-81.1431702320"><ele>24.17</ele><time>2012-08-10T00:55:23Z</time></trkpt><trkpt lat="-4.2076216824" lon="-81.1433511972"><ele>24.17</ele><time>2012-08-10T00:55:24Z</time></trkpt><trkpt lat="-4.2076350935" lon="-81.1435348447"><ele>24.17</ele><time>2012-08-10T00:55:25Z</time></trkpt><trkpt lat="-4.2076407932" lon="-81.1437200848"><ele>24.65</ele><time>2012-08-10T00:55:26Z</time></trkpt><trkpt lat="-4.2076631729" lon="-81.1456140596"><ele>27.05</ele><time>2012-08-10T00:55:36Z</time></trkpt><trkpt lat="-4.2076194193" lon="-81.1457651015"><ele>24.65</ele><time>2012-08-10T00:55:37Z</time></trkpt><trkpt lat="-4.2074678745" lon="-81.1461982783"><ele>21.29</ele><time>2012-08-10T00:55:40Z</time></trkpt><trkpt lat="-4.2074332573" lon="-81.1463422794"><ele>20.32</ele><time>2012-08-10T00:55:41Z</time></trkpt><trkpt lat="-4.2074131407" lon="-81.1464850232"><ele>19.36</ele><time>2012-08-10T00:55:42Z</time></trkpt><trkpt lat="-4.2074136436" lon="-81.1466258392"><ele>18.40</ele><time>2012-08-10T00:55:43Z</time></trkpt><trkpt lat="-4.2074386217" lon="-81.1467617936"><ele>18.40</ele><time>2012-08-10T00:55:44Z</time></trkpt><trkpt lat="-4.2074824590" lon="-81.1468897015"><ele>18.40</ele><time>2012-08-10T00:55:45Z</time></trkpt><trkpt lat="-4.2075360194" lon="-81.1470161006"><ele>18.40</ele><time>2012-08-10T00:55:46Z</time></trkpt><trkpt lat="-4.2077446450" lon="-81.1475395504"><ele>18.40</ele><time>2012-08-10T00:55:50Z</time></trkpt><trkpt lat="-4.2077738140" lon="-81.1476785224"><ele>18.40</ele><time>2012-08-10T00:55:51Z</time></trkpt><trkpt lat="-4.2078403663" lon="-81.1487685051"><ele>21.77</ele><time>2012-08-10T00:55:58Z</time></trkpt><trkpt lat="-4.2078951001" lon="-81.1496459227"><ele>25.13</ele><time>2012-08-10T00:56:03Z</time></trkpt><trkpt lat="-4.2082294542" lon="-81.1521974578"><ele>25.61</ele><time>2012-08-10T00:56:16Z</time></trkpt><trkpt lat="-4.2083090823" lon="-81.1527595483"><ele>23.69</ele><time>2012-08-10T00:56:19Z</time></trkpt><trkpt lat="-4.2085128464" lon="-81.1536006723"><ele>20.32</ele><time>2012-08-10T00:56:24Z</time></trkpt><trkpt lat="-4.2087459471" lon="-81.1540154926"><ele>17.92</ele><time>2012-08-10T00:56:27Z</time></trkpt><trkpt lat="-4.2088477872" lon="-81.1541447416"><ele>16.96</ele><time>2012-08-10T00:56:28Z</time></trkpt><trkpt lat="-4.2099980358" lon="-81.1553868558"><ele>15.04</ele><time>2012-08-10T00:56:37Z</time></trkpt><trkpt lat="-4.2117725685" lon="-81.1573286913"><ele>13.60</ele><time>2012-08-10T00:56:51Z</time></trkpt><trkpt lat="-4.2121623270" lon="-81.1578170210"><ele>10.71</ele><time>2012-08-10T00:56:55Z</time></trkpt><trkpt lat="-4.2124302126" lon="-81.1583840568"><ele>7.35</ele><time>2012-08-10T00:56:59Z</time></trkpt><trkpt lat="-4.2127214000" lon="-81.1590519268"><ele>7.35</ele><time>2012-08-10T00:57:04Z</time></trkpt><trkpt lat="-4.2127939872" lon="-81.1591538507"><ele>7.35</ele><time>2012-08-10T00:57:05Z</time></trkpt><trkpt lat="-4.2128781416" lon="-81.1592470575"><ele>7.35</ele><time>2012-08-10T00:57:06Z</time></trkpt><trkpt lat="-4.2129750364" lon="-81.1593307927"><ele>7.35</ele><time>2012-08-10T00:57:07Z</time></trkpt><trkpt lat="-4.2130926345" lon="-81.1593987700"><ele>7.35</ele><time>2012-08-10T00:57:08Z</time></trkpt><trkpt lat="-4.2132217158" lon="-81.1594557669"><ele>7.35</ele><time>2012-08-10T00:57:09Z</time></trkpt><trkpt lat="-4.2133581731" lon="-81.1595036276"><ele>7.35</ele><time>2012-08-10T00:57:10Z</time></trkpt><trkpt lat="-4.2139052600" lon="-81.1597270053"><ele>10.23</ele><time>2012-08-10T00:57:14Z</time></trkpt><trkpt lat="-4.2140210979" lon="-81.1598080583"><ele>11.19</ele><time>2012-08-10T00:57:15Z</time></trkpt><trkpt lat="-4.2141268775" lon="-81.1598967388"><ele>10.71</ele><time>2012-08-10T00:57:16Z</time></trkpt><trkpt lat="-4.2142251972" lon="-81.1599953100"><ele>11.19</ele><time>2012-08-10T00:57:17Z</time></trkpt><trkpt lat="-4.2143225949" lon="-81.1601009220"><ele>10.71</ele><time>2012-08-10T00:57:18Z</time></trkpt><trkpt lat="-4.2154439259" lon="-81.1613406893"><ele>10.71</ele><time>2012-08-10T00:57:28Z</time></trkpt><trkpt lat="-4.2159491032" lon="-81.1619008519"><ele>12.63</ele><time>2012-08-10T00:57:32Z</time></trkpt><trkpt lat="-4.2181263864" lon="-81.1643050332"><ele>14.56</ele><time>2012-08-10T00:57:48Z</time></trkpt><trkpt lat="-4.2186936736" lon="-81.1649100389"><ele>17.92</ele><time>2012-08-10T00:57:52Z</time></trkpt><trkpt lat="-4.2197083030" lon="-81.1660114210"><ele>14.08</ele><time>2012-08-10T00:58:00Z</time></trkpt><trkpt lat="-4.2200117279" lon="-81.1663092300"><ele>10.23</ele><time>2012-08-10T00:58:03Z</time></trkpt><trkpt lat="-4.2201163340" lon="-81.1663842481"><ele>9.27</ele><time>2012-08-10T00:58:04Z</time></trkpt><trkpt lat="-4.2202296574" lon="-81.1664446816"><ele>8.79</ele><time>2012-08-10T00:58:05Z</time></trkpt><trkpt lat="-4.2203519493" lon="-81.1664893571"><ele>9.27</ele><time>2012-08-10T00:58:06Z</time></trkpt><trkpt lat="-4.2204745766" lon="-81.1665254831"><ele>9.27</ele><time>2012-08-10T00:58:07Z</time></trkpt><trkpt lat="-4.2205919232" lon="-81.1665569153"><ele>18.88</ele><time>2012-08-10T00:58:08Z</time></trkpt><trkpt lat="-4.2207985371" lon="-81.1666285805"><ele>19.36</ele><time>2012-08-10T00:58:10Z</time></trkpt><trkpt lat="-4.2208858766" lon="-81.1666790396"><ele>20.32</ele><time>2012-08-10T00:58:11Z</time></trkpt><trkpt lat="-4.2209645826" lon="-81.1667417362"><ele>20.32</ele><time>2012-08-10T00:58:12Z</time></trkpt><trkpt lat="-4.2210307997" lon="-81.1668178439"><ele>20.32</ele><time>2012-08-10T00:58:13Z</time></trkpt><trkpt lat="-4.2210843600" lon="-81.1669043452"><ele>19.84</ele><time>2012-08-10T00:58:14Z</time></trkpt><trkpt lat="-4.2211267725" lon="-81.1669962946"><ele>19.84</ele><time>2012-08-10T00:58:15Z</time></trkpt><trkpt lat="-4.2211609706" lon="-81.1670895014"><ele>19.84</ele><time>2012-08-10T00:58:16Z</time></trkpt><trkpt lat="-4.2212428618" lon="-81.1672621686"><ele>19.84</ele><time>2012-08-10T00:58:18Z</time></trkpt><trkpt lat="-4.2212936562" lon="-81.1673284695"><ele>19.84</ele><time>2012-08-10T00:58:19Z</time></trkpt><trkpt lat="-4.2213546764" lon="-81.1673785932"><ele>20.32</ele><time>2012-08-10T00:58:20Z</time></trkpt><trkpt lat="-4.2214218993" lon="-81.1674130429"><ele>20.81</ele><time>2012-08-10T00:58:21Z</time></trkpt><trkpt lat="-4.2214908823" lon="-81.1674328241"><ele>21.77</ele><time>2012-08-10T00:58:22Z</time></trkpt><trkpt lat="-4.2215622962" lon="-81.1674350873"><ele>22.73</ele><time>2012-08-10T00:58:23Z</time></trkpt><trkpt lat="-4.2216306087" lon="-81.1674094386"><ele>23.69</ele><time>2012-08-10T00:58:24Z</time></trkpt><trkpt lat="-4.2216933053" lon="-81.1673680320"><ele>24.65</ele><time>2012-08-10T00:58:25Z</time></trkpt><trkpt lat="-4.2217451893" lon="-81.1673110351"><ele>25.61</ele><time>2012-08-10T00:58:26Z</time></trkpt><trkpt lat="-4.2217854224" lon="-81.1672393698"><ele>26.57</ele><time>2012-08-10T00:58:27Z</time></trkpt><trkpt lat="-4.2218174413" lon="-81.1671615019"><ele>27.05</ele><time>2012-08-10T00:58:28Z</time></trkpt><trkpt lat="-4.2218484543" lon="-81.1670832150"><ele>28.02</ele><time>2012-08-10T00:58:29Z</time></trkpt><trkpt lat="-4.2218828201" lon="-81.1670087837"><ele>28.50</ele><time>2012-08-10T00:58:30Z</time></trkpt><trkpt lat="-4.2219228018" lon="-81.1669402197"><ele>28.98</ele><time>2012-08-10T00:58:31Z</time></trkpt><trkpt lat="-4.2219701596" lon="-81.1668781936"><ele>29.46</ele><time>2012-08-10T00:58:32Z</time></trkpt><trkpt lat="-4.2220265698" lon="-81.1668227054"><ele>30.42</ele><time>2012-08-10T00:58:33Z</time></trkpt><trkpt lat="-4.2220936250" lon="-81.1667763535"><ele>30.90</ele><time>2012-08-10T00:58:34Z</time></trkpt><trkpt lat="-4.2221648712" lon="-81.1667367909"><ele>32.34</ele><time>2012-08-10T00:58:35Z</time></trkpt><trkpt lat="-4.2222359497" lon="-81.1667034309"><ele>33.78</ele><time>2012-08-10T00:58:36Z</time></trkpt><trkpt lat="-4.2223097105" lon="-81.1666805483"><ele>35.23</ele><time>2012-08-10T00:58:37Z</time></trkpt><trkpt lat="-4.2223848123" lon="-81.1666700710"><ele>36.67</ele><time>2012-08-10T00:58:38Z</time></trkpt><trkpt lat="-4.2224605847" lon="-81.1666685622"><ele>38.11</ele><time>2012-08-10T00:58:39Z</time></trkpt><trkpt lat="-4.2225364409" lon="-81.1666712444"><ele>39.07</ele><time>2012-08-10T00:58:40Z</time></trkpt><trkpt lat="-4.2227941845" lon="-81.1667126510"><ele>41.47</ele><time>2012-08-10T00:58:43Z</time></trkpt><trkpt lat="-4.2231686879" lon="-81.1668650340"><ele>45.32</ele><time>2012-08-10T00:58:47Z</time></trkpt><trkpt lat="-4.2232489027" lon="-81.1669180077"><ele>45.80</ele><time>2012-08-10T00:58:48Z</time></trkpt><trkpt lat="-4.2233183049" lon="-81.1669754237"><ele>46.76</ele><time>2012-08-10T00:58:49Z</time></trkpt><trkpt lat="-4.2233822588" lon="-81.1670449935"><ele>47.72</ele><time>2012-08-10T00:58:50Z</time></trkpt><trkpt lat="-4.2234415188" lon="-81.1671235319"><ele>48.20</ele><time>2012-08-10T00:58:51Z</time></trkpt><trkpt lat="-4.2234983481" lon="-81.1672084406"><ele>47.72</ele><time>2012-08-10T00:58:52Z</time></trkpt><trkpt lat="-4.2238850892" lon="-81.1679071561"><ele>51.09</ele><time>2012-08-10T00:58:59Z</time></trkpt><trkpt lat="-4.2239826545" lon="-81.1681097466"><ele>53.01</ele><time>2012-08-10T00:59:01Z</time></trkpt><trkpt lat="-4.2240453511" lon="-81.1682015285"><ele>54.45</ele><time>2012-08-10T00:59:02Z</time></trkpt><trkpt lat="-4.2241196148" lon="-81.1682876945"><ele>55.89</ele><time>2012-08-10T00:59:03Z</time></trkpt><trkpt lat="-4.2242848221" lon="-81.1684486270"><ele>58.78</ele><time>2012-08-10T00:59:05Z</time></trkpt><trkpt lat="-4.2244522925" lon="-81.1686168518"><ele>62.14</ele><time>2012-08-10T00:59:07Z</time></trkpt><trkpt lat="-4.2246877402" lon="-81.1688539758"><ele>65.51</ele><time>2012-08-10T00:59:10Z</time></trkpt><trkpt lat="-4.2249173205" lon="-81.1690910999"><ele>66.95</ele><time>2012-08-10T00:59:13Z</time></trkpt><trkpt lat="-4.2256675009" lon="-81.1699193157"><ele>65.03</ele><time>2012-08-10T00:59:23Z</time></trkpt><trkpt lat="-4.2257493921" lon="-81.1699808389"><ele>65.51</ele><time>2012-08-10T00:59:24Z</time></trkpt><trkpt lat="-4.2258396652" lon="-81.1700266879"><ele>67.43</ele><time>2012-08-10T00:59:25Z</time></trkpt><trkpt lat="-4.2259347159" lon="-81.1700601317"><ele>69.35</ele><time>2012-08-10T00:59:26Z</time></trkpt><trkpt lat="-4.2260321975" lon="-81.1700806674"><ele>71.27</ele><time>2012-08-10T00:59:27Z</time></trkpt><trkpt lat="-4.2261330318" lon="-81.1700883787"><ele>72.72</ele><time>2012-08-10T00:59:28Z</time></trkpt><trkpt lat="-4.2262353748" lon="-81.1700810026"><ele>75.12</ele><time>2012-08-10T00:59:29Z</time></trkpt><trkpt lat="-4.2263319343" lon="-81.1700492352"><ele>77.04</ele><time>2012-08-10T00:59:30Z</time></trkpt><trkpt lat="-4.2264243867" lon="-81.1700034700"><ele>78.48</ele><time>2012-08-10T00:59:31Z</time></trkpt><trkpt lat="-4.2265118100" lon="-81.1699461378"><ele>79.93</ele><time>2012-08-10T00:59:32Z</time></trkpt><trkpt lat="-4.2265918572" lon="-81.1698762327"><ele>80.89</ele><time>2012-08-10T00:59:33Z</time></trkpt><trkpt lat="-4.2266694736" lon="-81.1698001251"><ele>81.37</ele><time>2012-08-10T00:59:34Z</time></trkpt><trkpt lat="-4.2270231061" lon="-81.1693811137"><ele>81.37</ele><time>2012-08-10T00:59:39Z</time></trkpt><trkpt lat="-4.2270695418" lon="-81.1692894157"><ele>81.37</ele><time>2012-08-10T00:59:40Z</time></trkpt><trkpt lat="-4.2271030694" lon="-81.1691917665"><ele>81.37</ele><time>2012-08-10T00:59:41Z</time></trkpt><trkpt lat="-4.2271209229" lon="-81.1690890882"><ele>81.37</ele><time>2012-08-10T00:59:42Z</time></trkpt><trkpt lat="-4.2271245271" lon="-81.1689862423"><ele>81.85</ele><time>2012-08-10T00:59:43Z</time></trkpt><trkpt lat="-4.2271098588" lon="-81.1688823067"><ele>82.81</ele><time>2012-08-10T00:59:44Z</time></trkpt><trkpt lat="-4.2270847131" lon="-81.1687757727"><ele>83.29</ele><time>2012-08-10T00:59:45Z</time></trkpt><trkpt lat="-4.2270680331" lon="-81.1686692387"><ele>84.25</ele><time>2012-08-10T00:59:46Z</time></trkpt><trkpt lat="-4.2270699609" lon="-81.1685637105"><ele>84.25</ele><time>2012-08-10T00:59:47Z</time></trkpt><trkpt lat="-4.2271002196" lon="-81.1684694141"><ele>85.21</ele><time>2012-08-10T00:59:48Z</time></trkpt><trkpt lat="-4.2271583062" lon="-81.1683921330"><ele>86.18</ele><time>2012-08-10T00:59:49Z</time></trkpt><trkpt lat="-4.2272336595" lon="-81.1683311965"><ele>87.62</ele><time>2012-08-10T00:59:50Z</time></trkpt><trkpt lat="-4.2273208313" lon="-81.1682893708"><ele>89.54</ele><time>2012-08-10T00:59:51Z</time></trkpt><trkpt lat="-4.2274174746" lon="-81.1682697572"><ele>91.94</ele><time>2012-08-10T00:59:52Z</time></trkpt><trkpt lat="-4.2275183089" lon="-81.1682735290"><ele>93.87</ele><time>2012-08-10T00:59:53Z</time></trkpt><trkpt lat="-4.2276143655" lon="-81.1682975013"><ele>95.79</ele><time>2012-08-10T00:59:54Z</time></trkpt><trkpt lat="-4.2276967596" lon="-81.1683441885"><ele>97.23</ele><time>2012-08-10T00:59:55Z</time></trkpt><trkpt lat="-4.2277689278" lon="-81.1684083100"><ele>98.67</ele><time>2012-08-10T00:59:56Z</time></trkpt><trkpt lat="-4.2278396711" lon="-81.1684801430"><ele>99.15</ele><time>2012-08-10T00:59:57Z</time></trkpt><trkpt lat="-4.2281384859" lon="-81.1687740125"><ele>99.15</ele><time>2012-08-10T01:00:01Z</time></trkpt><trkpt lat="-4.2282312736" lon="-81.1688318476"><ele>99.15</ele><time>2012-08-10T01:00:02Z</time></trkpt><trkpt lat="-4.2283289228" lon="-81.1688763555"><ele>99.15</ele><time>2012-08-10T01:00:03Z</time></trkpt><trkpt lat="-4.2284330260" lon="-81.1689073686"><ele>99.63</ele><time>2012-08-10T01:00:04Z</time></trkpt><trkpt lat="-4.2285429966" lon="-81.1689195223"><ele>99.63</ele><time>2012-08-10T01:00:05Z</time></trkpt><trkpt lat="-4.2286492791" lon="-81.1689299997"><ele>101.08</ele><time>2012-08-10T01:00:06Z</time></trkpt><trkpt lat="-4.2287460901" lon="-81.1689515412"><ele>102.52</ele><time>2012-08-10T01:00:07Z</time></trkpt><trkpt lat="-4.2288347706" lon="-81.1689877510"><ele>103.48</ele><time>2012-08-10T01:00:08Z</time></trkpt><trkpt lat="-4.2289137281" lon="-81.1690351926"><ele>104.44</ele><time>2012-08-10T01:00:09Z</time></trkpt><trkpt lat="-4.2289755866" lon="-81.1690900940"><ele>105.40</ele><time>2012-08-10T01:00:10Z</time></trkpt><trkpt lat="-4.2290202621" lon="-81.1691475939"><ele>104.92</ele><time>2012-08-10T01:00:11Z</time></trkpt><trkpt lat="-4.2290514428" lon="-81.1692005675"><ele>104.44</ele><time>2012-08-10T01:00:12Z</time></trkpt><trkpt lat="-4.2290604953" lon="-81.1692526191"><ele>103.96</ele><time>2012-08-10T01:00:13Z</time></trkpt><trkpt lat="-4.2290348466" lon="-81.1692945287"><ele>103.00</ele><time>2012-08-10T01:00:14Z</time></trkpt><trkpt lat="-4.2289864831" lon="-81.1693337560"><ele>102.04</ele><time>2012-08-10T01:00:15Z</time></trkpt><trkpt lat="-4.2289206013" lon="-81.1693578120"><ele>101.08</ele><time>2012-08-10T01:00:16Z</time></trkpt><trkpt lat="-4.2287247162" lon="-81.1693951115"><ele>100.11</ele><time>2012-08-10T01:00:17Z</time></trkpt><trkpt lat="-4.2286259774" lon="-81.1693794373"><ele>99.15</ele><time>2012-08-10T01:00:18Z</time></trkpt><trkpt lat="-4.2285382189" lon="-81.1693673674"><ele>98.67</ele><time>2012-08-10T01:00:19Z</time></trkpt><trkpt lat="-4.2284481134" lon="-81.1693664454"><ele>98.67</ele><time>2012-08-10T01:00:20Z</time></trkpt><trkpt lat="-4.2283564154" lon="-81.1693810299"><ele>98.67</ele><time>2012-08-10T01:00:21Z</time></trkpt><trkpt lat="-4.2282679863" lon="-81.1694138870"><ele>99.15</ele><time>2012-08-10T01:00:22Z</time></trkpt><trkpt lat="-4.2281860113" lon="-81.1694571376"><ele>99.15</ele><time>2012-08-10T01:00:23Z</time></trkpt><trkpt lat="-4.2281217221" lon="-81.1695205886"><ele>100.60</ele><time>2012-08-10T01:00:24Z</time></trkpt><trkpt lat="-4.2280792259" lon="-81.1696013901"><ele>102.04</ele><time>2012-08-10T01:00:25Z</time></trkpt><trkpt lat="-4.2280469555" lon="-81.1696911603"><ele>103.48</ele><time>2012-08-10T01:00:26Z</time></trkpt><trkpt lat="-4.2280218937" lon="-81.1697871331"><ele>104.92</ele><time>2012-08-10T01:00:27Z</time></trkpt><trkpt lat="-4.2280031182" lon="-81.1698880512"><ele>106.36</ele><time>2012-08-10T01:00:28Z</time></trkpt><trkpt lat="-4.2279897071" lon="-81.1699916515"><ele>107.81</ele><time>2012-08-10T01:00:29Z</time></trkpt><trkpt lat="-4.2279836722" lon="-81.1700997781"><ele>109.73</ele><time>2012-08-10T01:00:30Z</time></trkpt><trkpt lat="-4.2279762123" lon="-81.1704217270"><ele>114.05</ele><time>2012-08-10T01:00:33Z</time></trkpt><trkpt lat="-4.2279893719" lon="-81.1706194561"><ele>115.50</ele><time>2012-08-10T01:00:35Z</time></trkpt><trkpt lat="-4.2280093208" lon="-81.1707171053"><ele>115.98</ele><time>2012-08-10T01:00:36Z</time></trkpt><trkpt lat="-4.2280410044" lon="-81.1708129104"><ele>116.94</ele><time>2012-08-10T01:00:37Z</time></trkpt><trkpt lat="-4.2280867696" lon="-81.1709041893"><ele>116.94</ele><time>2012-08-10T01:00:38Z</time></trkpt><trkpt lat="-4.2281445209" lon="-81.1709882598"><ele>117.90</ele><time>2012-08-10T01:00:39Z</time></trkpt><trkpt lat="-4.2282148451" lon="-81.1710620206"><ele>117.90</ele><time>2012-08-10T01:00:40Z</time></trkpt><trkpt lat="-4.2282917909" lon="-81.1711231247"><ele>118.86</ele><time>2012-08-10T01:00:41Z</time></trkpt><trkpt lat="-4.2283660546" lon="-81.1711794510"><ele>119.82</ele><time>2012-08-10T01:00:42Z</time></trkpt><trkpt lat="-4.2286263127" lon="-81.1713973805"><ele>122.22</ele><time>2012-08-10T01:00:46Z</time></trkpt><trkpt lat="-4.2286702339" lon="-81.1714545451"><ele>122.22</ele><time>2012-08-10T01:00:47Z</time></trkpt><trkpt lat="-4.2286983971" lon="-81.1715181638"><ele>122.71</ele><time>2012-08-10T01:00:48Z</time></trkpt><trkpt lat="-4.2287020013" lon="-81.1715846322"><ele>122.71</ele><time>2012-08-10T01:00:49Z</time></trkpt><trkpt lat="-4.2286768556" lon="-81.1716492567"><ele>122.71</ele><time>2012-08-10T01:00:50Z</time></trkpt><trkpt lat="-4.2286303360" lon="-81.1717051640"><ele>122.71</ele><time>2012-08-10T01:00:51Z</time></trkpt><trkpt lat="-4.2285679746" lon="-81.1717453972"><ele>122.71</ele><time>2012-08-10T01:00:52Z</time></trkpt><trkpt lat="-4.2284963094" lon="-81.1717614066"><ele>120.30</ele><time>2012-08-10T01:00:53Z</time></trkpt><trkpt lat="-4.2284181900" lon="-81.1717572156"><ele>119.34</ele><time>2012-08-10T01:00:54Z</time></trkpt><trkpt lat="-4.2283375561" lon="-81.1717450619"><ele>118.86</ele><time>2012-08-10T01:00:55Z</time></trkpt><trkpt lat="-4.2282517254" lon="-81.1717343330"><ele>117.90</ele><time>2012-08-10T01:00:56Z</time></trkpt><trkpt lat="-4.2281612009" lon="-81.1717365123"><ele>117.42</ele><time>2012-08-10T01:00:57Z</time></trkpt><trkpt lat="-4.2280703411" lon="-81.1717566289"><ele>118.38</ele><time>2012-08-10T01:00:58Z</time></trkpt><trkpt lat="-4.2279866897" lon="-81.1717961077"><ele>118.38</ele><time>2012-08-10T01:00:59Z</time></trkpt><trkpt lat="-4.2279176228" lon="-81.1718568765"><ele>118.38</ele><time>2012-08-10T01:01:00Z</time></trkpt><trkpt lat="-4.2278685886" lon="-81.1719341576"><ele>118.86</ele><time>2012-08-10T01:01:01Z</time></trkpt><trkpt lat="-4.2278416827" lon="-81.1720206589"><ele>120.78</ele><time>2012-08-10T01:01:02Z</time></trkpt><trkpt lat="-4.2278408445" lon="-81.1721118540"><ele>122.22</ele><time>2012-08-10T01:01:03Z</time></trkpt><trkpt lat="-4.2278646491" lon="-81.1722048093"><ele>124.15</ele><time>2012-08-10T01:01:04Z</time></trkpt><trkpt lat="-4.2279051337" lon="-81.1722969264"><ele>126.55</ele><time>2012-08-10T01:01:05Z</time></trkpt><trkpt lat="-4.2279512342" lon="-81.1723877024"><ele>128.95</ele><time>2012-08-10T01:01:06Z</time></trkpt><trkpt lat="-4.2280463688" lon="-81.1725682486"><ele>131.84</ele><time>2012-08-10T01:01:08Z</time></trkpt><trkpt lat="-4.2281776294" lon="-81.1728518084"><ele>135.68</ele><time>2012-08-10T01:01:11Z</time></trkpt><trkpt lat="-4.2283138353" lon="-81.1733486038"><ele>136.64</ele><time>2012-08-10T01:01:16Z</time></trkpt><trkpt lat="-4.2283583432" lon="-81.1734374519"><ele>136.64</ele><time>2012-08-10T01:01:17Z</time></trkpt><trkpt lat="-4.2284212075" lon="-81.1735021602"><ele>136.64</ele><time>2012-08-10T01:01:18Z</time></trkpt><trkpt lat="-4.2284977343" lon="-81.1735394597"><ele>136.64</ele><time>2012-08-10T01:01:19Z</time></trkpt><trkpt lat="-4.2285774462" lon="-81.1735590734"><ele>136.64</ele><time>2012-08-10T01:01:20Z</time></trkpt><trkpt lat="-4.2286560684" lon="-81.1735644378"><ele>136.64</ele><time>2012-08-10T01:01:21Z</time></trkpt><trkpt lat="-4.2287345231" lon="-81.1735592410"><ele>136.64</ele><time>2012-08-10T01:01:22Z</time></trkpt><trkpt lat="-4.2288078647" lon="-81.1735478416"><ele>136.64</ele><time>2012-08-10T01:01:23Z</time></trkpt><trkpt lat="-4.2288709804" lon="-81.1735318322"><ele>136.64</ele><time>2012-08-10T01:01:24Z</time></trkpt><trkpt lat="-4.2289209366" lon="-81.1735156551"><ele>136.64</ele><time>2012-08-10T01:01:25Z</time></trkpt><trkpt lat="-4.2289485130" lon="-81.1734846421"><ele>136.64</ele><time>2012-08-10T01:01:26Z</time></trkpt><trkpt lat="-4.2289593257" lon="-81.1734451633"><ele>137.61</ele><time>2012-08-10T01:01:27Z</time></trkpt><trkpt lat="-4.2289517820" lon="-81.1733895913"><ele>137.61</ele><time>2012-08-10T01:01:28Z</time></trkpt><trkpt lat="-4.2289140634" lon="-81.1732679699"><ele>138.09</ele><time>2012-08-10T01:01:29Z</time></trkpt><trkpt lat="-4.2288853135" lon="-81.1731403973"><ele>138.09</ele><time>2012-08-10T01:01:30Z</time></trkpt><trkpt lat="-4.2288885824" lon="-81.1730432510"><ele>139.53</ele><time>2012-08-10T01:01:31Z</time></trkpt><trkpt lat="-4.2288965452" lon="-81.1729223840"><ele>140.49</ele><time>2012-08-10T01:01:32Z</time></trkpt><trkpt lat="-4.2289314978" lon="-81.1728150118"><ele>141.93</ele><time>2012-08-10T01:01:33Z</time></trkpt><trkpt lat="-4.2289928533" lon="-81.1727696657"><ele>143.85</ele><time>2012-08-10T01:01:34Z</time></trkpt><trkpt lat="-4.2290663626" lon="-81.1727312766"><ele>145.30</ele><time>2012-08-10T01:01:35Z</time></trkpt><trkpt lat="-4.2291372735" lon="-81.1727066338"><ele>149.14</ele><time>2012-08-10T01:01:36Z</time></trkpt><trkpt lat="-4.2292244453" lon="-81.1727119144"><ele>150.10</ele><time>2012-08-10T01:01:37Z</time></trkpt><trkpt lat="-4.2294015549" lon="-81.1727363057"><ele>153.95</ele><time>2012-08-10T01:01:39Z</time></trkpt><trkpt lat="-4.2294907384" lon="-81.1727561709"><ele>155.87</ele><time>2012-08-10T01:01:40Z</time></trkpt><trkpt lat="-4.2295750603" lon="-81.1727816518"><ele>157.79</ele><time>2012-08-10T01:01:41Z</time></trkpt><trkpt lat="-4.2296543531" lon="-81.1728177778"><ele>158.75</ele><time>2012-08-10T01:01:42Z</time></trkpt><trkpt lat="-4.2297270242" lon="-81.1728633754"><ele>159.72</ele><time>2012-08-10T01:01:43Z</time></trkpt><trkpt lat="-4.2297913134" lon="-81.1729181930"><ele>160.20</ele><time>2012-08-10T01:01:44Z</time></trkpt><trkpt lat="-4.2298454605" lon="-81.1729795486"><ele>159.72</ele><time>2012-08-10T01:01:45Z</time></trkpt><trkpt lat="-4.2298934888" lon="-81.1730454303"><ele>148.18</ele><time>2012-08-10T01:01:46Z</time></trkpt><trkpt lat="-4.2299301177" lon="-81.1731097195"><ele>146.26</ele><time>2012-08-10T01:01:47Z</time></trkpt><trkpt lat="-4.2299483903" lon="-81.1731785350"><ele>150.10</ele><time>2012-08-10T01:01:48Z</time></trkpt><trkpt lat="-4.2299542576" lon="-81.1732511222"><ele>153.47</ele><time>2012-08-10T01:01:49Z</time></trkpt><trkpt lat="-4.2299542576" lon="-81.1733230390"><ele>153.47</ele><time>2012-08-10T01:01:50Z</time></trkpt><trkpt lat="-4.2299497314" lon="-81.1733931117"><ele>152.51</ele><time>2012-08-10T01:01:51Z</time></trkpt><trkpt lat="-4.2299426068" lon="-81.1734610051"><ele>150.58</ele><time>2012-08-10T01:01:52Z</time></trkpt><trkpt lat="-4.2299431935" lon="-81.1736510228"><ele>149.62</ele><time>2012-08-10T01:01:55Z</time></trkpt><trkpt lat="-4.2299635615" lon="-81.1737223528"><ele>150.10</ele><time>2012-08-10T01:01:56Z</time></trkpt><trkpt lat="-4.2299943231" lon="-81.1737992987"><ele>150.58</ele><time>2012-08-10T01:01:57Z</time></trkpt><trkpt lat="-4.2300338857" lon="-81.1738772504"><ele>150.58</ele><time>2012-08-10T01:01:58Z</time></trkpt><trkpt lat="-4.2300847638" lon="-81.1739546154"><ele>152.99</ele><time>2012-08-10T01:01:59Z</time></trkpt><trkpt lat="-4.2301493883" lon="-81.1740288790"><ele>154.91</ele><time>2012-08-10T01:02:00Z</time></trkpt><trkpt lat="-4.2302293517" lon="-81.1740939226"><ele>157.79</ele><time>2012-08-10T01:02:01Z</time></trkpt><trkpt lat="-4.2303192057" lon="-81.1741544399"><ele>160.68</ele><time>2012-08-10T01:02:02Z</time></trkpt><trkpt lat="-4.2304109875" lon="-81.1742141191"><ele>163.56</ele><time>2012-08-10T01:02:03Z</time></trkpt><trkpt lat="-4.2305989098" lon="-81.1743290350"><ele>166.45</ele><time>2012-08-10T01:02:05Z</time></trkpt><trkpt lat="-4.2306995764" lon="-81.1743754707"><ele>167.89</ele><time>2012-08-10T01:02:06Z</time></trkpt><trkpt lat="-4.2308093794" lon="-81.1744112615"><ele>169.33</ele><time>2012-08-10T01:02:07Z</time></trkpt><trkpt lat="-4.2309256364" lon="-81.1744337250"><ele>170.29</ele><time>2012-08-10T01:02:08Z</time></trkpt><trkpt lat="-4.2310434021" lon="-81.1744372454"><ele>171.25</ele><time>2012-08-10T01:02:09Z</time></trkpt><trkpt lat="-4.2311618384" lon="-81.1744271033"><ele>171.73</ele><time>2012-08-10T01:02:10Z</time></trkpt><trkpt lat="-4.2312784307" lon="-81.1744001135"><ele>171.73</ele><time>2012-08-10T01:02:11Z</time></trkpt><trkpt lat="-4.2313836236" lon="-81.1743525881"><ele>172.69</ele><time>2012-08-10T01:02:12Z</time></trkpt><trkpt lat="-4.2314831167" lon="-81.1743101757"><ele>172.69</ele><time>2012-08-10T01:02:13Z</time></trkpt><trkpt lat="-4.2315795086" lon="-81.1742741335"><ele>173.17</ele><time>2012-08-10T01:02:14Z</time></trkpt><trkpt lat="-4.2316773254" lon="-81.1742531788"><ele>173.17</ele><time>2012-08-10T01:02:15Z</time></trkpt><trkpt lat="-4.2317745555" lon="-81.1742473952"><ele>174.14</ele><time>2012-08-10T01:02:16Z</time></trkpt><trkpt lat="-4.2318707798" lon="-81.1742553581"><ele>174.62</ele><time>2012-08-10T01:02:17Z</time></trkpt><trkpt lat="-4.2319613043" lon="-81.1742758937"><ele>174.62</ele><time>2012-08-10T01:02:18Z</time></trkpt><trkpt lat="-4.2320405133" lon="-81.1743116844"><ele>175.58</ele><time>2012-08-10T01:02:19Z</time></trkpt><trkpt lat="-4.2321121786" lon="-81.1743628141"><ele>176.06</ele><time>2012-08-10T01:02:20Z</time></trkpt><trkpt lat="-4.2321817484" lon="-81.1744229961"><ele>175.58</ele><time>2012-08-10T01:02:21Z</time></trkpt><trkpt lat="-4.2322470434" lon="-81.1744904704"><ele>176.06</ele><time>2012-08-10T01:02:22Z</time></trkpt><trkpt lat="-4.2323033698" lon="-81.1745659914"><ele>176.06</ele><time>2012-08-10T01:02:23Z</time></trkpt><trkpt lat="-4.2323514819" lon="-81.1746488046"><ele>176.06</ele><time>2012-08-10T01:02:24Z</time></trkpt><trkpt lat="-4.2323947325" lon="-81.1747330427"><ele>176.06</ele><time>2012-08-10T01:02:25Z</time></trkpt><trkpt lat="-4.2325112410" lon="-81.1749762017"><ele>176.54</ele><time>2012-08-10T01:02:28Z</time></trkpt><trkpt lat="-4.2325689923" lon="-81.1750452686"><ele>176.54</ele><time>2012-08-10T01:02:29Z</time></trkpt><trkpt lat="-4.2326321080" lon="-81.1751109827"><ele>177.02</ele><time>2012-08-10T01:02:30Z</time></trkpt><trkpt lat="-4.2327009235" lon="-81.1751744337"><ele>177.50</ele><time>2012-08-10T01:02:31Z</time></trkpt><trkpt lat="-4.2327636201" lon="-81.1752429139"><ele>178.94</ele><time>2012-08-10T01:02:32Z</time></trkpt><trkpt lat="-4.2328185216" lon="-81.1753174290"><ele>179.42</ele><time>2012-08-10T01:02:33Z</time></trkpt><trkpt lat="-4.2328645382" lon="-81.1753982306"><ele>180.87</ele><time>2012-08-10T01:02:34Z</time></trkpt><trkpt lat="-4.2328962218" lon="-81.1754859053"><ele>182.31</ele><time>2012-08-10T01:02:35Z</time></trkpt><trkpt lat="-4.2329170927" lon="-81.1755788606"><ele>184.23</ele><time>2012-08-10T01:02:36Z</time></trkpt><trkpt lat="-4.2329386342" lon="-81.1756733246"><ele>185.67</ele><time>2012-08-10T01:02:37Z</time></trkpt><trkpt lat="-4.2329724133" lon="-81.1757665314"><ele>187.11</ele><time>2012-08-10T01:02:38Z</time></trkpt><trkpt lat="-4.2330217827" lon="-81.1758527812"><ele>189.04</ele><time>2012-08-10T01:02:39Z</time></trkpt><trkpt lat="-4.2330885027" lon="-81.1759293079"><ele>190.00</ele><time>2012-08-10T01:02:40Z</time></trkpt><trkpt lat="-4.2331690527" lon="-81.1759930942"><ele>190.96</ele><time>2012-08-10T01:02:41Z</time></trkpt><trkpt lat="-4.2332594097" lon="-81.1760427989"><ele>191.92</ele><time>2012-08-10T01:02:42Z</time></trkpt><trkpt lat="-4.2333530355" lon="-81.1760727223"><ele>192.88</ele><time>2012-08-10T01:02:43Z</time></trkpt><trkpt lat="-4.2334449850" lon="-81.1760751531"><ele>193.36</ele><time>2012-08-10T01:02:44Z</time></trkpt><trkpt lat="-4.2335357610" lon="-81.1760646757"><ele>193.36</ele><time>2012-08-10T01:02:45Z</time></trkpt><trkpt lat="-4.2336252797" lon="-81.1760438047"><ele>193.84</ele><time>2012-08-10T01:02:46Z</time></trkpt><trkpt lat="-4.2337096855" lon="-81.1760131270"><ele>193.84</ele><time>2012-08-10T01:02:47Z</time></trkpt><trkpt lat="-4.2337866314" lon="-81.1759663559"><ele>194.80</ele><time>2012-08-10T01:02:48Z</time></trkpt><trkpt lat="-4.2338521779" lon="-81.1759052519"><ele>195.77</ele><time>2012-08-10T01:02:49Z</time></trkpt><trkpt lat="-4.2339129467" lon="-81.1758491769"><ele>197.21</ele><time>2012-08-10T01:02:50Z</time></trkpt><trkpt lat="-4.2340396810" lon="-81.1757617537"><ele>200.57</ele><time>2012-08-10T01:02:52Z</time></trkpt><trkpt lat="-4.2341019586" lon="-81.1757519469"><ele>202.01</ele><time>2012-08-10T01:02:53Z</time></trkpt><trkpt lat="-4.2341573630" lon="-81.1757672019"><ele>203.94</ele><time>2012-08-10T01:02:54Z</time></trkpt><trkpt lat="-4.2342056427" lon="-81.1758029927"><ele>205.38</ele><time>2012-08-10T01:02:55Z</time></trkpt><trkpt lat="-4.2342473846" lon="-81.1758551281"><ele>206.34</ele><time>2012-08-10T01:02:56Z</time></trkpt><trkpt lat="-4.2342830077" lon="-81.1759189982"><ele>207.30</ele><time>2012-08-10T01:02:57Z</time></trkpt><trkpt lat="-4.2343108356" lon="-81.1759883165"><ele>207.30</ele><time>2012-08-10T01:02:58Z</time></trkpt><trkpt lat="-4.2343369871" lon="-81.1760636698"><ele>206.82</ele><time>2012-08-10T01:02:59Z</time></trkpt><trkpt lat="-4.2345451098" lon="-81.1765627284"><ele>206.34</ele><time>2012-08-10T01:03:05Z</time></trkpt><trkpt lat="-4.2346099857" lon="-81.1766358186"><ele>206.34</ele><time>2012-08-10T01:03:06Z</time></trkpt><trkpt lat="-4.2346900329" lon="-81.1766984314"><ele>207.30</ele><time>2012-08-10T01:03:07Z</time></trkpt><trkpt lat="-4.2347828206" lon="-81.1767440289"><ele>208.74</ele><time>2012-08-10T01:03:08Z</time></trkpt><trkpt lat="-4.2348813917" lon="-81.1767753772"><ele>210.19</ele><time>2012-08-10T01:03:09Z</time></trkpt><trkpt lat="-4.2349832319" lon="-81.1767945718"><ele>212.59</ele><time>2012-08-10T01:03:10Z</time></trkpt><trkpt lat="-4.2350838147" lon="-81.1768093240"><ele>214.51</ele><time>2012-08-10T01:03:11Z</time></trkpt><trkpt lat="-4.2352717370" lon="-81.1768445279"><ele>218.84</ele><time>2012-08-10T01:03:13Z</time></trkpt><trkpt lat="-4.2354490981" lon="-81.1769047100"><ele>222.20</ele><time>2012-08-10T01:03:15Z</time></trkpt><trkpt lat="-4.2355307378" lon="-81.1769499723"><ele>223.64</ele><time>2012-08-10T01:03:16Z</time></trkpt><trkpt lat="-4.2356065940" lon="-81.1770038679"><ele>224.61</ele><time>2012-08-10T01:03:17Z</time></trkpt><trkpt lat="-4.2356778402" lon="-81.1770665646"><ele>225.09</ele><time>2012-08-10T01:03:18Z</time></trkpt><trkpt lat="-4.2357464880" lon="-81.1771370564"><ele>224.61</ele><time>2012-08-10T01:03:19Z</time></trkpt><trkpt lat="-4.2368154321" lon="-81.1780809425"><ele>227.97</ele><time>2012-08-10T01:03:32Z</time></trkpt><trkpt lat="-4.2370082159" lon="-81.1782232672"><ele>231.33</ele><time>2012-08-10T01:03:34Z</time></trkpt><trkpt lat="-4.2372210324" lon="-81.1783435475"><ele>234.22</ele><time>2012-08-10T01:03:36Z</time></trkpt><trkpt lat="-4.2373392172" lon="-81.1783850379"><ele>235.66</ele><time>2012-08-10T01:03:37Z</time></trkpt><trkpt lat="-4.2374657001" lon="-81.1784122791"><ele>236.62</ele><time>2012-08-10T01:03:38Z</time></trkpt><trkpt lat="-4.2375962902" lon="-81.1784241814"><ele>237.58</ele><time>2012-08-10T01:03:39Z</time></trkpt><trkpt lat="-4.2377293110" lon="-81.1784214154"><ele>238.06</ele><time>2012-08-10T01:03:40Z</time></trkpt><trkpt lat="-4.2378612421" lon="-81.1784161348"><ele>239.02</ele><time>2012-08-10T01:03:41Z</time></trkpt><trkpt lat="-4.2381118611" lon="-81.1784214992"><ele>239.99</ele><time>2012-08-10T01:03:43Z</time></trkpt><trkpt lat="-4.2382283695" lon="-81.1784453038"><ele>240.95</ele><time>2012-08-10T01:03:44Z</time></trkpt><trkpt lat="-4.2383328080" lon="-81.1784920748"><ele>241.43</ele><time>2012-08-10T01:03:45Z</time></trkpt><trkpt lat="-4.2384276073" lon="-81.1785581242"><ele>241.91</ele><time>2012-08-10T01:03:46Z</time></trkpt><trkpt lat="-4.2385128513" lon="-81.1786400154"><ele>241.91</ele><time>2012-08-10T01:03:47Z</time></trkpt><trkpt lat="-4.2385832593" lon="-81.1787361559"><ele>242.39</ele><time>2012-08-10T01:03:48Z</time></trkpt><trkpt lat="-4.2386343889" lon="-81.1788466293"><ele>242.39</ele><time>2012-08-10T01:03:49Z</time></trkpt><trkpt lat="-4.2386654858" lon="-81.1789677478"><ele>242.87</ele><time>2012-08-10T01:03:50Z</time></trkpt><trkpt lat="-4.2386801541" lon="-81.1790980864"><ele>242.87</ele><time>2012-08-10T01:03:51Z</time></trkpt><trkpt lat="-4.2386856023" lon="-81.1792324483"><ele>242.87</ele><time>2012-08-10T01:03:52Z</time></trkpt><trkpt lat="-4.2387790605" lon="-81.1802355945"><ele>246.72</ele><time>2012-08-10T01:03:59Z</time></trkpt><trkpt lat="-4.2389279231" lon="-81.1806597188"><ele>250.56</ele><time>2012-08-10T01:04:02Z</time></trkpt><trkpt lat="-4.2390718404" lon="-81.1809366569"><ele>253.44</ele><time>2012-08-10T01:04:04Z</time></trkpt><trkpt lat="-4.2392493691" lon="-81.1811977532"><ele>256.81</ele><time>2012-08-10T01:04:06Z</time></trkpt><trkpt lat="-4.2394506186" lon="-81.1814340390"><ele>259.69</ele><time>2012-08-10T01:04:08Z</time></trkpt><trkpt lat="-4.2410463654" lon="-81.1830312945"><ele>261.62</ele><time>2012-08-10T01:04:22Z</time></trkpt><trkpt lat="-4.2419482581" lon="-81.1839419045"><ele>265.46</ele><time>2012-08-10T01:04:29Z</time></trkpt><trkpt lat="-4.2432285100" lon="-81.1852645688"><ele>268.35</ele><time>2012-08-10T01:04:40Z</time></trkpt><trkpt lat="-4.2439789418" lon="-81.1864734907"><ele>265.46</ele><time>2012-08-10T01:04:48Z</time></trkpt><trkpt lat="-4.2443429679" lon="-81.1869235989"><ele>262.10</ele><time>2012-08-10T01:04:51Z</time></trkpt><trkpt lat="-4.2445765715" lon="-81.1872345675"><ele>261.14</ele><time>2012-08-10T01:04:53Z</time></trkpt><trkpt lat="-4.2450866941" lon="-81.1880851630"><ele>257.77</ele><time>2012-08-10T01:04:58Z</time></trkpt><trkpt lat="-4.2466907389" lon="-81.1909172405"><ele>259.69</ele><time>2012-08-10T01:05:14Z</time></trkpt><trkpt lat="-4.2468990292" lon="-81.1912856251"><ele>255.85</ele><time>2012-08-10T01:05:16Z</time></trkpt><trkpt lat="-4.2485025711" lon="-81.1941214744"><ele>258.73</ele><time>2012-08-10T01:05:31Z</time></trkpt><trkpt lat="-4.2490449641" lon="-81.1950610857"><ele>262.10</ele><time>2012-08-10T01:05:36Z</time></trkpt><trkpt lat="-4.2493366543" lon="-81.1955959350"><ele>265.46</ele><time>2012-08-10T01:05:39Z</time></trkpt><trkpt lat="-4.2502356973" lon="-81.1967409030"><ele>263.06</ele><time>2012-08-10T01:05:47Z</time></trkpt><trkpt lat="-4.2512557749" lon="-81.1974039115"><ele>266.90</ele><time>2012-08-10T01:05:53Z</time></trkpt><trkpt lat="-4.2516167834" lon="-81.1976150516"><ele>270.27</ele><time>2012-08-10T01:05:55Z</time></trkpt><trkpt lat="-4.2534882110" lon="-81.1987180263"><ele>266.42</ele><time>2012-08-10T01:06:05Z</time></trkpt><trkpt lat="-4.2540543247" lon="-81.1990552302"><ele>264.50</ele><time>2012-08-10T01:06:08Z</time></trkpt><trkpt lat="-4.2544293310" lon="-81.1992769316"><ele>280.84</ele><time>2012-08-10T01:06:10Z</time></trkpt><trkpt lat="-4.2546150740" lon="-81.1993869860"><ele>277.48</ele><time>2012-08-10T01:06:11Z</time></trkpt><trkpt lat="-4.2548019905" lon="-81.1994977109"><ele>269.31</ele><time>2012-08-10T01:06:12Z</time></trkpt><trkpt lat="-4.2549881525" lon="-81.1996078491"><ele>269.31</ele><time>2012-08-10T01:06:13Z</time></trkpt><trkpt lat="-4.2569971271" lon="-81.2007963192"><ele>272.67</ele><time>2012-08-10T01:06:24Z</time></trkpt><trkpt lat="-4.2595619895" lon="-81.2023206521"><ele>269.31</ele><time>2012-08-10T01:06:38Z</time></trkpt><trkpt lat="-4.2601225711" lon="-81.2026538327"><ele>267.86</ele><time>2012-08-10T01:06:41Z</time></trkpt><trkpt lat="-4.2623348068" lon="-81.2039673608"><ele>264.50</ele><time>2012-08-10T01:06:53Z</time></trkpt><trkpt lat="-4.2630111426" lon="-81.2043662556"><ele>261.14</ele><time>2012-08-10T01:06:57Z</time></trkpt><trkpt lat="-4.2636195011" lon="-81.2047270127"><ele>257.77</ele><time>2012-08-10T01:07:01Z</time></trkpt><trkpt lat="-4.2648072168" lon="-81.2051333673"><ele>256.33</ele><time>2012-08-10T01:07:09Z</time></trkpt><trkpt lat="-4.2658167332" lon="-81.2050411664"><ele>257.77</ele><time>2012-08-10T01:07:15Z</time></trkpt><trkpt lat="-4.2667409219" lon="-81.2045726180"><ele>257.77</ele><time>2012-08-10T01:07:22Z</time></trkpt><trkpt lat="-4.2668770440" lon="-81.2044674251"><ele>254.41</ele><time>2012-08-10T01:07:24Z</time></trkpt><trkpt lat="-4.2670489568" lon="-81.2043120246"><ele>250.08</ele><time>2012-08-10T01:07:27Z</time></trkpt><trkpt lat="-4.2675293237" lon="-81.2036430649"><ele>248.64</ele><time>2012-08-10T01:07:38Z</time></trkpt><trkpt lat="-4.2676648591" lon="-81.2036591582"><ele>248.64</ele><time>2012-08-10T01:07:46Z</time></trkpt><trkpt lat="-4.2676620930" lon="-81.2036744133"><ele>248.64</ele><time>2012-08-10T01:07:47Z</time></trkpt><trkpt lat="-4.2676582374" lon="-81.2036885787"><ele>248.64</ele><time>2012-08-10T01:07:48Z</time></trkpt><trkpt lat="-4.2676538788" lon="-81.2037021574"><ele>248.64</ele><time>2012-08-10T01:07:49Z</time></trkpt><trkpt lat="-4.2676473409" lon="-81.2037164066"><ele>248.64</ele><time>2012-08-10T01:07:50Z</time></trkpt><trkpt lat="-4.2675434053" lon="-81.2039407901"><ele>248.16</ele><time>2012-08-10T01:08:07Z</time></trkpt><trkpt lat="-4.2674911022" lon="-81.2041926663"><ele>248.64</ele><time>2012-08-10T01:08:27Z</time></trkpt><trkpt lat="-4.2675669584" lon="-81.2042731326"><ele>248.64</ele><time>2012-08-10T01:08:42Z</time></trkpt><trkpt lat="-4.2675447464" lon="-81.2042599730"><ele>248.64</ele><time>2012-08-10T01:08:58Z</time></trkpt><trkpt lat="-4.2675643601" lon="-81.2039343361"><ele>249.12</ele><time>2012-08-10T01:09:12Z</time></trkpt><trkpt lat="-4.2676495202" lon="-81.2034674641"><ele>249.12</ele><time>2012-08-10T01:09:26Z</time></trkpt><trkpt lat="-4.2677060980" lon="-81.2031407375"><ele>250.56</ele><time>2012-08-10T01:09:33Z</time></trkpt><trkpt lat="-4.2677760869" lon="-81.2027748674"><ele>253.93</ele><time>2012-08-10T01:09:37Z</time></trkpt><trkpt lat="-4.2678122129" lon="-81.2024029624"><ele>258.25</ele><time>2012-08-10T01:09:40Z</time></trkpt><trkpt lat="-4.2678402923" lon="-81.2019829452"><ele>261.62</ele><time>2012-08-10T01:09:43Z</time></trkpt><trkpt lat="-4.2679389473" lon="-81.2000506651"><ele>264.98</ele><time>2012-08-10T01:09:55Z</time></trkpt><trkpt lat="-4.2679528613" lon="-81.1993808672"><ele>269.31</ele><time>2012-08-10T01:09:59Z</time></trkpt><trkpt lat="-4.2679571360" lon="-81.1990553141"><ele>272.67</ele><time>2012-08-10T01:10:01Z</time></trkpt><trkpt lat="-4.2679596506" lon="-81.1987244803"><ele>276.04</ele><time>2012-08-10T01:10:03Z</time></trkpt><trkpt lat="-4.2679656856" lon="-81.1982149445"><ele>279.88</ele><time>2012-08-10T01:10:06Z</time></trkpt><trkpt lat="-4.2680060863" lon="-81.1977150477"><ele>281.80</ele><time>2012-08-10T01:10:09Z</time></trkpt><trkpt lat="-4.2680469062" lon="-81.1975545343"><ele>281.32</ele><time>2012-08-10T01:10:10Z</time></trkpt><trkpt lat="-4.2681017239" lon="-81.1973941885"><ele>281.80</ele><time>2012-08-10T01:10:11Z</time></trkpt><trkpt lat="-4.2681776639" lon="-81.1972407158"><ele>281.32</ele><time>2012-08-10T01:10:12Z</time></trkpt><trkpt lat="-4.2682712059" lon="-81.1970951222"><ele>281.32</ele><time>2012-08-10T01:10:13Z</time></trkpt><trkpt lat="-4.2683823500" lon="-81.1969589163"><ele>281.32</ele><time>2012-08-10T01:10:14Z</time></trkpt><trkpt lat="-4.2685099225" lon="-81.1968314275"><ele>281.32</ele><time>2012-08-10T01:10:15Z</time></trkpt><trkpt lat="-4.2686524987" lon="-81.1967150029"><ele>281.32</ele><time>2012-08-10T01:10:16Z</time></trkpt><trkpt lat="-4.2688089889" lon="-81.1966090556"><ele>281.80</ele><time>2012-08-10T01:10:17Z</time></trkpt><trkpt lat="-4.2689713463" lon="-81.1965229735"><ele>281.32</ele><time>2012-08-10T01:10:18Z</time></trkpt><trkpt lat="-4.2691422533" lon="-81.1964533199"><ele>281.32</ele><time>2012-08-10T01:10:19Z</time></trkpt><trkpt lat="-4.2693184409" lon="-81.1964016035"><ele>281.32</ele><time>2012-08-10T01:10:20Z</time></trkpt><trkpt lat="-4.2695008311" lon="-81.1963622086"><ele>281.32</ele><time>2012-08-10T01:10:21Z</time></trkpt><trkpt lat="-4.2696879990" lon="-81.1963328719"><ele>281.32</ele><time>2012-08-10T01:10:22Z</time></trkpt><trkpt lat="-4.2721238639" lon="-81.1960125994"><ele>283.25</ele><time>2012-08-10T01:10:34Z</time></trkpt><trkpt lat="-4.2756249849" lon="-81.1955655087"><ele>283.73</ele><time>2012-08-10T01:10:50Z</time></trkpt><trkpt lat="-4.2771609686" lon="-81.1954260338"><ele>287.09</ele><time>2012-08-10T01:10:57Z</time></trkpt><trkpt lat="-4.2800784577" lon="-81.1951351818"><ele>288.53</ele><time>2012-08-10T01:11:10Z</time></trkpt><trkpt lat="-4.2804889195" lon="-81.1949926056"><ele>284.69</ele><time>2012-08-10T01:11:12Z</time></trkpt><trkpt lat="-4.2808840424" lon="-81.1948031746"><ele>283.25</ele><time>2012-08-10T01:11:14Z</time></trkpt><trkpt lat="-4.2815797403" lon="-81.1942847539"><ele>279.88</ele><time>2012-08-10T01:11:18Z</time></trkpt><trkpt lat="-4.2828862276" lon="-81.1927983910"><ele>280.36</ele><time>2012-08-10T01:11:27Z</time></trkpt><trkpt lat="-4.2854792532" lon="-81.1898644734"><ele>281.80</ele><time>2012-08-10T01:11:44Z</time></trkpt><trkpt lat="-4.2887417413" lon="-81.1862014141"><ele>278.92</ele><time>2012-08-10T01:12:05Z</time></trkpt><trkpt lat="-4.2898051534" lon="-81.1850033887"><ele>280.36</ele><time>2012-08-10T01:12:12Z</time></trkpt><trkpt lat="-4.2913297378" lon="-81.1829714477"><ele>281.80</ele><time>2012-08-10T01:12:23Z</time></trkpt><trkpt lat="-4.2922031321" lon="-81.1816155910"><ele>277.96</ele><time>2012-08-10T01:12:30Z</time></trkpt><trkpt lat="-4.2927384842" lon="-81.1808530055"><ele>274.59</ele><time>2012-08-10T01:12:34Z</time></trkpt><trkpt lat="-4.2944816686" lon="-81.1789439432"><ele>273.63</ele><time>2012-08-10T01:12:45Z</time></trkpt><trkpt lat="-4.2972751893" lon="-81.1759722233"><ele>275.07</ele><time>2012-08-10T01:13:02Z</time></trkpt><trkpt lat="-4.2980921734" lon="-81.1751533113"><ele>271.71</ele><time>2012-08-10T01:13:07Z</time></trkpt><trkpt lat="-4.3004659284" lon="-81.1732621863"><ele>269.79</ele><time>2012-08-10T01:13:20Z</time></trkpt><trkpt lat="-4.3033085670" lon="-81.1710582487"><ele>265.46</ele><time>2012-08-10T01:13:35Z</time></trkpt><trkpt lat="-4.3037001695" lon="-81.1707497109"><ele>262.58</ele><time>2012-08-10T01:13:37Z</time></trkpt><trkpt lat="-4.3040962983" lon="-81.1704368144"><ele>258.73</ele><time>2012-08-10T01:13:39Z</time></trkpt><trkpt lat="-4.3044954445" lon="-81.1701188050"><ele>255.37</ele><time>2012-08-10T01:13:41Z</time></trkpt><trkpt lat="-4.3050959241" lon="-81.1696395278"><ele>251.52</ele><time>2012-08-10T01:13:44Z</time></trkpt><trkpt lat="-4.3054954056" lon="-81.1693216022"><ele>251.04</ele><time>2012-08-10T01:13:46Z</time></trkpt><trkpt lat="-4.3089190777" lon="-81.1665867548"><ele>251.52</ele><time>2012-08-10T01:14:04Z</time></trkpt><trkpt lat="-4.3115128577" lon="-81.1645281594"><ele>247.68</ele><time>2012-08-10T01:14:18Z</time></trkpt><trkpt lat="-4.3118026201" lon="-81.1642166041"><ele>244.31</ele><time>2012-08-10T01:14:20Z</time></trkpt><trkpt lat="-4.3120477069" lon="-81.1638741195"><ele>240.95</ele><time>2012-08-10T01:14:22Z</time></trkpt><trkpt lat="-4.3129619211" lon="-81.1621347908"><ele>244.79</ele><time>2012-08-10T01:14:31Z</time></trkpt><trkpt lat="-4.3132916652" lon="-81.1615179665"><ele>247.68</ele><time>2012-08-10T01:14:34Z</time></trkpt><trkpt lat="-4.3145492021" lon="-81.1591949221"><ele>244.31</ele><time>2012-08-10T01:14:45Z</time></trkpt><trkpt lat="-4.3151194230" lon="-81.1581507884"><ele>240.47</ele><time>2012-08-10T01:14:50Z</time></trkpt><trkpt lat="-4.3161816616" lon="-81.1566983722"><ele>238.06</ele><time>2012-08-10T01:14:58Z</time></trkpt><trkpt lat="-4.3172889948" lon="-81.1554125044"><ele>241.43</ele><time>2012-08-10T01:15:05Z</time></trkpt><trkpt lat="-4.3179275282" lon="-81.1546600610"><ele>244.79</ele><time>2012-08-10T01:15:09Z</time></trkpt><trkpt lat="-4.3197398633" lon="-81.1525242683"><ele>241.43</ele><time>2012-08-10T01:15:21Z</time></trkpt><trkpt lat="-4.3198550306" lon="-81.1523982044"><ele>238.54</ele><time>2012-08-10T01:15:22Z</time></trkpt><trkpt lat="-4.3199740537" lon="-81.1522953585"><ele>228.93</ele><time>2012-08-10T01:15:23Z</time></trkpt><trkpt lat="-4.3201015424" lon="-81.1522090249"><ele>227.97</ele><time>2012-08-10T01:15:24Z</time></trkpt><trkpt lat="-4.3202322163" lon="-81.1521320790"><ele>227.97</ele><time>2012-08-10T01:15:25Z</time></trkpt><trkpt lat="-4.3205078132" lon="-81.1519908439"><ele>231.33</ele><time>2012-08-10T01:15:27Z</time></trkpt><trkpt lat="-4.3218825292" lon="-81.1512876023"><ele>229.89</ele><time>2012-08-10T01:15:36Z</time></trkpt><trkpt lat="-4.3219820224" lon="-81.1511924677"><ele>217.88</ele><time>2012-08-10T01:15:37Z</time></trkpt><trkpt lat="-4.3220624886" lon="-81.1510882806"><ele>214.99</ele><time>2012-08-10T01:15:38Z</time></trkpt><trkpt lat="-4.3221261911" lon="-81.1509721912"><ele>219.80</ele><time>2012-08-10T01:15:39Z</time></trkpt><trkpt lat="-4.3221770693" lon="-81.1508464627"><ele>222.68</ele><time>2012-08-10T01:15:40Z</time></trkpt><trkpt lat="-4.3222175539" lon="-81.1507113464"><ele>223.16</ele><time>2012-08-10T01:15:41Z</time></trkpt><trkpt lat="-4.3222490698" lon="-81.1505719554"><ele>224.61</ele><time>2012-08-10T01:15:42Z</time></trkpt><trkpt lat="-4.3222762272" lon="-81.1504262779"><ele>223.64</ele><time>2012-08-10T01:15:43Z</time></trkpt><trkpt lat="-4.3223768938" lon="-81.1499988846"><ele>221.24</ele><time>2012-08-10T01:15:46Z</time></trkpt><trkpt lat="-4.3224347290" lon="-81.1498652771"><ele>220.76</ele><time>2012-08-10T01:15:47Z</time></trkpt><trkpt lat="-4.3225105852" lon="-81.1497411411"><ele>221.72</ele><time>2012-08-10T01:15:48Z</time></trkpt><trkpt lat="-4.3226055522" lon="-81.1496271472"><ele>221.72</ele><time>2012-08-10T01:15:49Z</time></trkpt><trkpt lat="-4.3227149360" lon="-81.1495200265"><ele>222.20</ele><time>2012-08-10T01:15:50Z</time></trkpt><trkpt lat="-4.3232194427" lon="-81.1490524840"><ele>225.57</ele><time>2012-08-10T01:15:54Z</time></trkpt><trkpt lat="-4.3244079128" lon="-81.1476568971"><ele>227.49</ele><time>2012-08-10T01:16:04Z</time></trkpt><trkpt lat="-4.3251958955" lon="-81.1462484021"><ele>230.85</ele><time>2012-08-10T01:16:12Z</time></trkpt><trkpt lat="-4.3255018350" lon="-81.1457084399"><ele>234.22</ele><time>2012-08-10T01:16:15Z</time></trkpt><trkpt lat="-4.3258194253" lon="-81.1451655440"><ele>237.10</ele><time>2012-08-10T01:16:18Z</time></trkpt><trkpt lat="-4.3259261269" lon="-81.1449882668"><ele>236.62</ele><time>2012-08-10T01:16:19Z</time></trkpt><trkpt lat="-4.3269084021" lon="-81.1438292172"><ele>237.10</ele><time>2012-08-10T01:16:26Z</time></trkpt><trkpt lat="-4.3290891219" lon="-81.1418198235"><ele>240.95</ele><time>2012-08-10T01:16:39Z</time></trkpt><trkpt lat="-4.3298414815" lon="-81.1412411369"><ele>243.83</ele><time>2012-08-10T01:16:43Z</time></trkpt><trkpt lat="-4.3309923168" lon="-81.1403474584"><ele>240.95</ele><time>2012-08-10T01:16:49Z</time></trkpt><trkpt lat="-4.3315616157" lon="-81.1399022955"><ele>237.10</ele><time>2012-08-10T01:16:52Z</time></trkpt><trkpt lat="-4.3319383822" lon="-81.1396033969"><ele>233.74</ele><time>2012-08-10T01:16:54Z</time></trkpt><trkpt lat="-4.3323238660" lon="-81.1393039115"><ele>230.37</ele><time>2012-08-10T01:16:56Z</time></trkpt><trkpt lat="-4.3328991160" lon="-81.1388541386"><ele>227.01</ele><time>2012-08-10T01:16:59Z</time></trkpt><trkpt lat="-4.3351681810" lon="-81.1368499417"><ele>228.45</ele><time>2012-08-10T01:17:12Z</time></trkpt><trkpt lat="-4.3356734421" lon="-81.1363371368"><ele>229.89</ele><time>2012-08-10T01:17:15Z</time></trkpt><trkpt lat="-4.3368832022" lon="-81.1351291370"><ele>226.53</ele><time>2012-08-10T01:17:22Z</time></trkpt><trkpt lat="-4.3375945743" lon="-81.1344221234"><ele>222.68</ele><time>2012-08-10T01:17:26Z</time></trkpt><trkpt lat="-4.3404336087" lon="-81.1315953266"><ele>219.32</ele><time>2012-08-10T01:17:42Z</time></trkpt><trkpt lat="-4.3411106989" lon="-81.1309225950"><ele>215.47</ele><time>2012-08-10T01:17:46Z</time></trkpt><trkpt lat="-4.3426860776" lon="-81.1294654850"><ele>218.84</ele><time>2012-08-10T01:17:55Z</time></trkpt><trkpt lat="-4.3439587858" lon="-81.1283552181"><ele>214.99</ele><time>2012-08-10T01:18:03Z</time></trkpt><trkpt lat="-4.3442721013" lon="-81.1281109694"><ele>211.63</ele><time>2012-08-10T01:18:05Z</time></trkpt><trkpt lat="-4.3447936233" lon="-81.1278050300"><ele>208.26</ele><time>2012-08-10T01:18:08Z</time></trkpt><trkpt lat="-4.3449854013" lon="-81.1277202051"><ele>208.26</ele><time>2012-08-10T01:18:09Z</time></trkpt><trkpt lat="-4.3453977071" lon="-81.1275549978"><ele>213.55</ele><time>2012-08-10T01:18:11Z</time></trkpt><trkpt lat="-4.3458230048" lon="-81.1273893714"><ele>215.47</ele><time>2012-08-10T01:18:13Z</time></trkpt><trkpt lat="-4.3498173170" lon="-81.1257924512"><ele>215.47</ele><time>2012-08-10T01:18:31Z</time></trkpt><trkpt lat="-4.3535020016" lon="-81.1243360955"><ele>213.07</ele><time>2012-08-10T01:18:48Z</time></trkpt><trkpt lat="-4.3541057501" lon="-81.1241915915"><ele>209.70</ele><time>2012-08-10T01:18:51Z</time></trkpt><trkpt lat="-4.3549281824" lon="-81.1241822038"><ele>205.86</ele><time>2012-08-10T01:18:55Z</time></trkpt><trkpt lat="-4.3551381491" lon="-81.1242091935"><ele>205.86</ele><time>2012-08-10T01:18:56Z</time></trkpt><trkpt lat="-4.3565955944" lon="-81.1247039773"><ele>208.26</ele><time>2012-08-10T01:19:03Z</time></trkpt><trkpt lat="-4.3578779418" lon="-81.1252707615"><ele>211.63</ele><time>2012-08-10T01:19:09Z</time></trkpt><trkpt lat="-4.3592026178" lon="-81.1258528847"><ele>207.78</ele><time>2012-08-10T01:19:15Z</time></trkpt><trkpt lat="-4.3638098147" lon="-81.1278531421"><ele>205.86</ele><time>2012-08-10T01:19:35Z</time></trkpt><trkpt lat="-4.3689049222" lon="-81.1300584208"><ele>204.42</ele><time>2012-08-10T01:19:57Z</time></trkpt><trkpt lat="-4.3728792015" lon="-81.1317862663"><ele>201.05</ele><time>2012-08-10T01:20:14Z</time></trkpt><trkpt lat="-4.3735120352" lon="-81.1320594326"><ele>197.69</ele><time>2012-08-10T01:20:17Z</time></trkpt><trkpt lat="-4.3743620440" lon="-81.1324230395"><ele>194.32</ele><time>2012-08-10T01:20:21Z</time></trkpt><trkpt lat="-4.3759017158" lon="-81.1330874730"><ele>197.69</ele><time>2012-08-10T01:20:28Z</time></trkpt><trkpt lat="-4.3761272728" lon="-81.1331862118"><ele>198.17</ele><time>2012-08-10T01:20:29Z</time></trkpt><trkpt lat="-4.3770227954" lon="-81.1335681751"><ele>200.57</ele><time>2012-08-10T01:20:33Z</time></trkpt><trkpt lat="-4.3792523816" lon="-81.1345275678"><ele>196.73</ele><time>2012-08-10T01:20:43Z</time></trkpt><trkpt lat="-4.3844375107" lon="-81.1367798690"><ele>195.28</ele><time>2012-08-10T01:21:06Z</time></trkpt><trkpt lat="-4.3850814085" lon="-81.1370603275"><ele>190.96</ele><time>2012-08-10T01:21:09Z</time></trkpt><trkpt lat="-4.3875256553" lon="-81.1381141003"><ele>193.84</ele><time>2012-08-10T01:21:20Z</time></trkpt><trkpt lat="-4.3907197472" lon="-81.1394904088"><ele>192.88</ele><time>2012-08-10T01:21:34Z</time></trkpt><trkpt lat="-4.3957716879" lon="-81.1416750681"><ele>190.48</ele><time>2012-08-10T01:21:56Z</time></trkpt><trkpt lat="-4.4010769296" lon="-81.1439725477"><ele>189.04</ele><time>2012-08-10T01:22:19Z</time></trkpt><trkpt lat="-4.4019742962" lon="-81.1443541758"><ele>185.67</ele><time>2012-08-10T01:22:23Z</time></trkpt><trkpt lat="-4.4060876314" lon="-81.1461435445"><ele>185.67</ele><time>2012-08-10T01:22:41Z</time></trkpt><trkpt lat="-4.4088823255" lon="-81.1473417375"><ele>184.23</ele><time>2012-08-10T01:22:53Z</time></trkpt><trkpt lat="-4.4095177576" lon="-81.1476320028"><ele>180.87</ele><time>2012-08-10T01:22:56Z</time></trkpt><trkpt lat="-4.4101310614" lon="-81.1479025707"><ele>177.02</ele><time>2012-08-10T01:22:59Z</time></trkpt><trkpt lat="-4.4139488507" lon="-81.1495524645"><ele>176.06</ele><time>2012-08-10T01:23:18Z</time></trkpt><trkpt lat="-4.4173539151" lon="-81.1509961635"><ele>177.50</ele><time>2012-08-10T01:23:34Z</time></trkpt><trkpt lat="-4.4182849769" lon="-81.1513922922"><ele>181.83</ele><time>2012-08-10T01:23:38Z</time></trkpt><trkpt lat="-4.4189953431" lon="-81.1516967230"><ele>184.71</ele><time>2012-08-10T01:23:41Z</time></trkpt><trkpt lat="-4.4197172765" lon="-81.1520038359"><ele>188.56</ele><time>2012-08-10T01:23:44Z</time></trkpt><trkpt lat="-4.4201970566" lon="-81.1522190832"><ele>192.88</ele><time>2012-08-10T01:23:46Z</time></trkpt><trkpt lat="-4.4209103566" lon="-81.1525469832"><ele>191.92</ele><time>2012-08-10T01:23:49Z</time></trkpt><trkpt lat="-4.4218359701" lon="-81.1529553495"><ele>187.11</ele><time>2012-08-10T01:23:53Z</time></trkpt><trkpt lat="-4.4222703204" lon="-81.1531424336"><ele>184.23</ele><time>2012-08-10T01:23:55Z</time></trkpt><trkpt lat="-4.4226887450" lon="-81.1533253267"><ele>180.87</ele><time>2012-08-10T01:23:57Z</time></trkpt><trkpt lat="-4.4232903142" lon="-81.1536329426"><ele>177.02</ele><time>2012-08-10T01:24:00Z</time></trkpt><trkpt lat="-4.4238380715" lon="-81.1540176719"><ele>175.10</ele><time>2012-08-10T01:24:03Z</time></trkpt><trkpt lat="-4.4255643245" lon="-81.1556291766"><ele>176.54</ele><time>2012-08-10T01:24:13Z</time></trkpt><trkpt lat="-4.4275608100" lon="-81.1575190444"><ele>176.54</ele><time>2012-08-10T01:24:24Z</time></trkpt><trkpt lat="-4.4298727065" lon="-81.1596828327"><ele>180.38</ele><time>2012-08-10T01:24:36Z</time></trkpt><trkpt lat="-4.4330687262" lon="-81.1626742501"><ele>176.54</ele><time>2012-08-10T01:24:52Z</time></trkpt><trkpt lat="-4.4346609525" lon="-81.1641694140"><ele>173.17</ele><time>2012-08-10T01:25:00Z</time></trkpt><trkpt lat="-4.4365092460" lon="-81.1659107544"><ele>169.33</ele><time>2012-08-10T01:25:10Z</time></trkpt><trkpt lat="-4.4369858410" lon="-81.1663596053"><ele>165.00</ele><time>2012-08-10T01:25:13Z</time></trkpt><trkpt lat="-4.4374562334" lon="-81.1667984817"><ele>161.64</ele><time>2012-08-10T01:25:16Z</time></trkpt><trkpt lat="-4.4390405808" lon="-81.1682493892"><ele>165.00</ele><time>2012-08-10T01:25:26Z</time></trkpt><trkpt lat="-4.4397210237" lon="-81.1688279081"><ele>168.85</ele><time>2012-08-10T01:25:30Z</time></trkpt><trkpt lat="-4.4430866931" lon="-81.1715586483"><ele>170.29</ele><time>2012-08-10T01:25:49Z</time></trkpt><trkpt lat="-4.4453536626" lon="-81.1734029185"><ele>170.77</ele><time>2012-08-10T01:26:01Z</time></trkpt><trkpt lat="-4.4466785062" lon="-81.1744903866"><ele>167.89</ele><time>2012-08-10T01:26:08Z</time></trkpt><trkpt lat="-4.4472360704" lon="-81.1749443505"><ele>163.56</ele><time>2012-08-10T01:26:11Z</time></trkpt><trkpt lat="-4.4477444328" lon="-81.1753578298"><ele>160.20</ele><time>2012-08-10T01:26:14Z</time></trkpt><trkpt lat="-4.4483444095" lon="-81.1758422200"><ele>157.31</ele><time>2012-08-10T01:26:18Z</time></trkpt><trkpt lat="-4.4493421074" lon="-81.1767596193"><ele>155.87</ele><time>2012-08-10T01:26:25Z</time></trkpt><trkpt lat="-4.4494516589" lon="-81.1769231502"><ele>155.87</ele><time>2012-08-10T01:26:26Z</time></trkpt><trkpt lat="-4.4495493080" lon="-81.1770962365"><ele>155.87</ele><time>2012-08-10T01:26:27Z</time></trkpt><trkpt lat="-4.4496383239" lon="-81.1772761960"><ele>155.87</ele><time>2012-08-10T01:26:28Z</time></trkpt><trkpt lat="-4.4497198798" lon="-81.1774636153"><ele>156.35</ele><time>2012-08-10T01:26:29Z</time></trkpt><trkpt lat="-4.4506748300" lon="-81.1796934530"><ele>159.72</ele><time>2012-08-10T01:26:40Z</time></trkpt><trkpt lat="-4.4522321038" lon="-81.1832643952"><ele>160.68</ele><time>2012-08-10T01:26:56Z</time></trkpt><trkpt lat="-4.4533418678" lon="-81.1858204566"><ele>156.83</ele><time>2012-08-10T01:27:07Z</time></trkpt><trkpt lat="-4.4537161198" lon="-81.1866836250"><ele>153.47</ele><time>2012-08-10T01:27:11Z</time></trkpt><trkpt lat="-4.4545812998" lon="-81.1888770014"><ele>150.58</ele><time>2012-08-10T01:27:22Z</time></trkpt><trkpt lat="-4.4547209423" lon="-81.1907148175"><ele>150.58</ele><time>2012-08-10T01:27:31Z</time></trkpt><trkpt lat="-4.4547693059" lon="-81.1913772393"><ele>153.95</ele><time>2012-08-10T01:27:34Z</time></trkpt><trkpt lat="-4.4548950344" lon="-81.1923616938"><ele>152.03</ele><time>2012-08-10T01:27:39Z</time></trkpt><trkpt lat="-4.4549553003" lon="-81.1925310921"><ele>150.58</ele><time>2012-08-10T01:27:40Z</time></trkpt><trkpt lat="-4.4550293125" lon="-81.1926958803"><ele>149.14</ele><time>2012-08-10T01:27:41Z</time></trkpt><trkpt lat="-4.4551161490" lon="-81.1928558908"><ele>147.70</ele><time>2012-08-10T01:27:42Z</time></trkpt><trkpt lat="-4.4552149717" lon="-81.1930073518"><ele>146.26</ele><time>2012-08-10T01:27:43Z</time></trkpt><trkpt lat="-4.4553262834" lon="-81.1931516882"><ele>145.30</ele><time>2012-08-10T01:27:44Z</time></trkpt><trkpt lat="-4.4554507546" lon="-81.1932871398"><ele>144.82</ele><time>2012-08-10T01:27:45Z</time></trkpt><trkpt lat="-4.4555890560" lon="-81.1934132036"><ele>145.78</ele><time>2012-08-10T01:27:46Z</time></trkpt><trkpt lat="-4.4557400141" lon="-81.1935302988"><ele>145.30</ele><time>2012-08-10T01:27:47Z</time></trkpt><trkpt lat="-4.4559013657" lon="-81.1936394311"><ele>145.78</ele><time>2012-08-10T01:27:48Z</time></trkpt><trkpt lat="-4.4560685847" lon="-81.1937429477"><ele>147.70</ele><time>2012-08-10T01:27:49Z</time></trkpt><trkpt lat="-4.4564184453" lon="-81.1939510703"><ele>150.58</ele><time>2012-08-10T01:27:51Z</time></trkpt><trkpt lat="-4.4567793701" lon="-81.1941661499"><ele>154.91</ele><time>2012-08-10T01:27:53Z</time></trkpt><trkpt lat="-4.4571461622" lon="-81.1943896115"><ele>158.27</ele><time>2012-08-10T01:27:55Z</time></trkpt><trkpt lat="-4.4584206305" lon="-81.1951678712"><ele>154.43</ele><time>2012-08-10T01:28:02Z</time></trkpt><trkpt lat="-4.4585906155" lon="-81.1952651013"><ele>147.22</ele><time>2012-08-10T01:28:03Z</time></trkpt><trkpt lat="-4.4589361176" lon="-81.1954319011"><ele>143.85</ele><time>2012-08-10T01:28:05Z</time></trkpt><trkpt lat="-4.4594932627" lon="-81.1956260260"><ele>140.01</ele><time>2012-08-10T01:28:08Z</time></trkpt><trkpt lat="-4.4600192271" lon="-81.1957671773"><ele>138.09</ele><time>2012-08-10T01:28:11Z</time></trkpt><trkpt lat="-4.4601897988" lon="-81.1957761459"><ele>137.13</ele><time>2012-08-10T01:28:12Z</time></trkpt><trkpt lat="-4.4618992042" lon="-81.1959442031"><ele>136.64</ele><time>2012-08-10T01:28:21Z</time></trkpt><trkpt lat="-4.4626482110" lon="-81.1961620487"><ele>136.16</ele><time>2012-08-10T01:28:25Z</time></trkpt><trkpt lat="-4.4628150947" lon="-81.1962399166"><ele>136.16</ele><time>2012-08-10T01:28:26Z</time></trkpt><trkpt lat="-4.4640816841" lon="-81.1969688069"><ele>132.32</ele><time>2012-08-10T01:28:34Z</time></trkpt><trkpt lat="-4.4641912356" lon="-81.1970562302"><ele>130.40</ele><time>2012-08-10T01:28:35Z</time></trkpt><trkpt lat="-4.4642775692" lon="-81.1971455812"><ele>127.99</ele><time>2012-08-10T01:28:36Z</time></trkpt><trkpt lat="-4.4643433671" lon="-81.1972435657"><ele>125.59</ele><time>2012-08-10T01:28:37Z</time></trkpt><trkpt lat="-4.4643882941" lon="-81.1973519437"><ele>123.67</ele><time>2012-08-10T01:28:38Z</time></trkpt><trkpt lat="-4.4644141942" lon="-81.1974718887"><ele>121.26</ele><time>2012-08-10T01:28:39Z</time></trkpt><trkpt lat="-4.4644192234" lon="-81.1976055801"><ele>119.82</ele><time>2012-08-10T01:28:40Z</time></trkpt><trkpt lat="-4.4644024596" lon="-81.1977451388"><ele>117.90</ele><time>2012-08-10T01:28:41Z</time></trkpt><trkpt lat="-4.4643618073" lon="-81.1978771538"><ele>116.94</ele><time>2012-08-10T01:28:42Z</time></trkpt><trkpt lat="-4.4643010385" lon="-81.1979945842"><ele>115.98</ele><time>2012-08-10T01:28:43Z</time></trkpt><trkpt lat="-4.4642335642" lon="-81.1980989389"><ele>115.50</ele><time>2012-08-10T01:28:44Z</time></trkpt><trkpt lat="-4.4641761482" lon="-81.1981967557"><ele>114.53</ele><time>2012-08-10T01:28:45Z</time></trkpt><trkpt lat="-4.4641365856" lon="-81.1982878670"><ele>113.57</ele><time>2012-08-10T01:28:46Z</time></trkpt><trkpt lat="-4.4641236775" lon="-81.1983742006"><ele>112.61</ele><time>2012-08-10T01:28:47Z</time></trkpt><trkpt lat="-4.4641389325" lon="-81.1984526552"><ele>111.65</ele><time>2012-08-10T01:28:48Z</time></trkpt><trkpt lat="-4.4641727116" lon="-81.1985208001"><ele>110.69</ele><time>2012-08-10T01:28:49Z</time></trkpt><trkpt lat="-4.4642214943" lon="-81.1985738575"><ele>109.25</ele><time>2012-08-10T01:28:50Z</time></trkpt><trkpt lat="-4.4642766472" lon="-81.1985914595"><ele>108.29</ele><time>2012-08-10T01:28:51Z</time></trkpt><trkpt lat="-4.4643319678" lon="-81.1985978298"><ele>107.81</ele><time>2012-08-10T01:28:52Z</time></trkpt><trkpt lat="-4.4643836841" lon="-81.1985898670"><ele>107.81</ele><time>2012-08-10T01:28:53Z</time></trkpt><trkpt lat="-4.4644400105" lon="-81.1985693313"><ele>107.81</ele><time>2012-08-10T01:28:54Z</time></trkpt><trkpt lat="-4.4644942414" lon="-81.1985390726"><ele>107.32</ele><time>2012-08-10T01:28:55Z</time></trkpt><trkpt lat="-4.4645525794" lon="-81.1985035334"><ele>107.32</ele><time>2012-08-10T01:28:56Z</time></trkpt><trkpt lat="-4.4651491195" lon="-81.1983089056"><ele>107.32</ele><time>2012-08-10T01:29:01Z</time></trkpt><trkpt lat="-4.4662512559" lon="-81.1982507352"><ele>103.48</ele><time>2012-08-10T01:29:07Z</time></trkpt><trkpt lat="-4.4663835224" lon="-81.1982936505"><ele>92.42</ele><time>2012-08-10T01:29:08Z</time></trkpt><trkpt lat="-4.4665049762" lon="-81.1983577721"><ele>91.46</ele><time>2012-08-10T01:29:09Z</time></trkpt><trkpt lat="-4.4666079897" lon="-81.1984415911"><ele>95.79</ele><time>2012-08-10T01:29:10Z</time></trkpt><trkpt lat="-4.4667015318" lon="-81.1985372286"><ele>98.19</ele><time>2012-08-10T01:29:11Z</time></trkpt><trkpt lat="-4.4667690899" lon="-81.1986477021"><ele>96.75</ele><time>2012-08-10T01:29:12Z</time></trkpt><trkpt lat="-4.4668064732" lon="-81.1987709161"><ele>96.75</ele><time>2012-08-10T01:29:13Z</time></trkpt><trkpt lat="-4.4668192975" lon="-81.1989056971"><ele>93.87</ele><time>2012-08-10T01:29:14Z</time></trkpt><trkpt lat="-4.4668251649" lon="-81.1990460940"><ele>92.90</ele><time>2012-08-10T01:29:15Z</time></trkpt><trkpt lat="-4.4668216445" lon="-81.1991906818"><ele>92.90</ele><time>2012-08-10T01:29:16Z</time></trkpt><trkpt lat="-4.4668363128" lon="-81.1998330709"><ele>90.50</ele><time>2012-08-10T01:29:21Z</time></trkpt><trkpt lat="-4.4668736961" lon="-81.1999168899"><ele>89.54</ele><time>2012-08-10T01:29:22Z</time></trkpt><trkpt lat="-4.4669342972" lon="-81.1999919917"><ele>88.10</ele><time>2012-08-10T01:29:23Z</time></trkpt><trkpt lat="-4.4670188706" lon="-81.2000516709"><ele>87.14</ele><time>2012-08-10T01:29:24Z</time></trkpt><trkpt lat="-4.4671199564" lon="-81.2000997830"><ele>86.18</ele><time>2012-08-10T01:29:25Z</time></trkpt><trkpt lat="-4.4672340341" lon="-81.2001334783"><ele>85.21</ele><time>2012-08-10T01:29:26Z</time></trkpt><trkpt lat="-4.4682751503" lon="-81.2004347239"><ele>83.77</ele><time>2012-08-10T01:29:33Z</time></trkpt><trkpt lat="-4.4697273150" lon="-81.2009911146"><ele>80.41</ele><time>2012-08-10T01:29:41Z</time></trkpt><trkpt lat="-4.4701205101" lon="-81.2011832278"><ele>77.04</ele><time>2012-08-10T01:29:43Z</time></trkpt><trkpt lat="-4.4705204945" lon="-81.2013791129"><ele>72.72</ele><time>2012-08-10T01:29:45Z</time></trkpt><trkpt lat="-4.4709071517" lon="-81.2015695497"><ele>68.39</ele><time>2012-08-10T01:29:47Z</time></trkpt><trkpt lat="-4.4710868597" lon="-81.2016634271"><ele>65.03</ele><time>2012-08-10T01:29:48Z</time></trkpt><trkpt lat="-4.4714313559" lon="-81.2018747348"><ele>61.18</ele><time>2012-08-10T01:29:50Z</time></trkpt><trkpt lat="-4.4717524666" lon="-81.2021256052"><ele>56.37</ele><time>2012-08-10T01:29:52Z</time></trkpt><trkpt lat="-4.4720343500" lon="-81.2024032976"><ele>53.01</ele><time>2012-08-10T01:29:54Z</time></trkpt><trkpt lat="-4.4722751621" lon="-81.2027048785"><ele>49.65</ele><time>2012-08-10T01:29:56Z</time></trkpt><trkpt lat="-4.4725016411" lon="-81.2030337844"><ele>48.68</ele><time>2012-08-10T01:29:58Z</time></trkpt><trkpt lat="-4.4730354846" lon="-81.2038445659"><ele>34.74</ele><time>2012-08-10T01:30:03Z</time></trkpt><trkpt lat="-4.4731462095" lon="-81.2039904110"><ele>31.38</ele><time>2012-08-10T01:30:04Z</time></trkpt><trkpt lat="-4.4732667413" lon="-81.2041295506"><ele>39.55</ele><time>2012-08-10T01:30:05Z</time></trkpt><trkpt lat="-4.4733994268" lon="-81.2042597216"><ele>37.63</ele><time>2012-08-10T01:30:06Z</time></trkpt><trkpt lat="-4.4736919552" lon="-81.2044813391"><ele>37.15</ele><time>2012-08-10T01:30:08Z</time></trkpt><trkpt lat="-4.4738500379" lon="-81.2045686785"><ele>37.15</ele><time>2012-08-10T01:30:09Z</time></trkpt><trkpt lat="-4.4740174245" lon="-81.2046408467"><ele>38.11</ele><time>2012-08-10T01:30:10Z</time></trkpt><trkpt lat="-4.4741941150" lon="-81.2046985980"><ele>38.11</ele><time>2012-08-10T01:30:11Z</time></trkpt><trkpt lat="-4.4743779302" lon="-81.2047483027"><ele>35.71</ele><time>2012-08-10T01:30:12Z</time></trkpt><trkpt lat="-4.4745664392" lon="-81.2047930621"><ele>36.67</ele><time>2012-08-10T01:30:13Z</time></trkpt><trkpt lat="-4.4751466345" lon="-81.2049399968"><ele>39.55</ele><time>2012-08-10T01:30:16Z</time></trkpt><trkpt lat="-4.4757338706" lon="-81.2050891947"><ele>42.92</ele><time>2012-08-10T01:30:19Z</time></trkpt><trkpt lat="-4.4761069492" lon="-81.2051958125"><ele>43.40</ele><time>2012-08-10T01:30:21Z</time></trkpt><trkpt lat="-4.4766218495" lon="-81.2053884286"><ele>41.95</ele><time>2012-08-10T01:30:24Z</time></trkpt><trkpt lat="-4.4767835364" lon="-81.2054771930"><ele>40.51</ele><time>2012-08-10T01:30:25Z</time></trkpt><trkpt lat="-4.4769388530" lon="-81.2055773567"><ele>38.59</ele><time>2012-08-10T01:30:26Z</time></trkpt><trkpt lat="-4.4770860393" lon="-81.2056897581"><ele>36.67</ele><time>2012-08-10T01:30:27Z</time></trkpt><trkpt lat="-4.4772225805" lon="-81.2058165763"><ele>34.74</ele><time>2012-08-10T01:30:28Z</time></trkpt><trkpt lat="-4.4773463812" lon="-81.2059564702"><ele>33.30</ele><time>2012-08-10T01:30:29Z</time></trkpt><trkpt lat="-4.4774592854" lon="-81.2061086018"><ele>32.34</ele><time>2012-08-10T01:30:30Z</time></trkpt><trkpt lat="-4.4775603712" lon="-81.2062715460"><ele>31.38</ele><time>2012-08-10T01:30:31Z</time></trkpt><trkpt lat="-4.4776526559" lon="-81.2064453866"><ele>31.38</ele><time>2012-08-10T01:30:32Z</time></trkpt><trkpt lat="-4.4781256467" lon="-81.2073547393"><ele>35.23</ele><time>2012-08-10T01:30:37Z</time></trkpt><trkpt lat="-4.4784268085" lon="-81.2079237867"><ele>39.07</ele><time>2012-08-10T01:30:40Z</time></trkpt><trkpt lat="-4.4796578586" lon="-81.2100319192"><ele>35.23</ele><time>2012-08-10T01:30:51Z</time></trkpt><trkpt lat="-4.4801260717" lon="-81.2107832730"><ele>31.86</ele><time>2012-08-10T01:30:55Z</time></trkpt><trkpt lat="-4.4814168010" lon="-81.2128259428"><ele>34.74</ele><time>2012-08-10T01:31:06Z</time></trkpt><trkpt lat="-4.4818969164" lon="-81.2135790568"><ele>32.34</ele><time>2012-08-10T01:31:10Z</time></trkpt><trkpt lat="-4.4835089240" lon="-81.2161275744"><ele>29.94</ele><time>2012-08-10T01:31:24Z</time></trkpt><trkpt lat="-4.4838183839" lon="-81.2168504298"><ele>26.57</ele><time>2012-08-10T01:31:28Z</time></trkpt><trkpt lat="-4.4845126569" lon="-81.2184983958"><ele>25.13</ele><time>2012-08-10T01:31:38Z</time></trkpt><trkpt lat="-4.4856604747" lon="-81.2199997623"><ele>22.25</ele><time>2012-08-10T01:31:51Z</time></trkpt><trkpt lat="-4.4859813340" lon="-81.2202844117"><ele>21.77</ele><time>2012-08-10T01:31:54Z</time></trkpt><trkpt lat="-4.4861046318" lon="-81.2203630339"><ele>22.25</ele><time>2012-08-10T01:31:55Z</time></trkpt><trkpt lat="-4.4862339646" lon="-81.2204302568"><ele>22.25</ele><time>2012-08-10T01:31:56Z</time></trkpt><trkpt lat="-4.4863659795" lon="-81.2204848230"><ele>22.25</ele><time>2012-08-10T01:31:57Z</time></trkpt><trkpt lat="-4.4864990003" lon="-81.2205286603"><ele>22.25</ele><time>2012-08-10T01:31:58Z</time></trkpt><trkpt lat="-4.4866300933" lon="-81.2205617689"><ele>22.25</ele><time>2012-08-10T01:31:59Z</time></trkpt><trkpt lat="-4.4867634494" lon="-81.2205867469"><ele>22.25</ele><time>2012-08-10T01:32:00Z</time></trkpt><trkpt lat="-4.4881322142" lon="-81.2206957117"><ele>22.25</ele><time>2012-08-10T01:32:10Z</time></trkpt><trkpt lat="-4.4901024643" lon="-81.2208575662"><ele>22.25</ele><time>2012-08-10T01:32:24Z</time></trkpt><trkpt lat="-4.4919185713" lon="-81.2210036628"><ele>22.25</ele><time>2012-08-10T01:32:36Z</time></trkpt><trkpt lat="-4.4940339122" lon="-81.2211481668"><ele>21.77</ele><time>2012-08-10T01:32:50Z</time></trkpt><trkpt lat="-4.4948868547" lon="-81.2212070916"><ele>25.61</ele><time>2012-08-10T01:32:55Z</time></trkpt><trkpt lat="-4.4954461791" lon="-81.2212645076"><ele>29.46</ele><time>2012-08-10T01:32:58Z</time></trkpt><trkpt lat="-4.4981453195" lon="-81.2215119414"><ele>32.34</ele><time>2012-08-10T01:33:11Z</time></trkpt><trkpt lat="-4.5020764321" lon="-81.2218348123"><ele>32.82</ele><time>2012-08-10T01:33:29Z</time></trkpt><trkpt lat="-4.5022596605" lon="-81.2218504027"><ele>29.46</ele><time>2012-08-10T01:33:30Z</time></trkpt><trkpt lat="-4.5027639158" lon="-81.2218701839"><ele>25.61</ele><time>2012-08-10T01:33:33Z</time></trkpt><trkpt lat="-4.5029205736" lon="-81.2218559347"><ele>24.17</ele><time>2012-08-10T01:33:34Z</time></trkpt><trkpt lat="-4.5030773152" lon="-81.2218255084"><ele>22.73</ele><time>2012-08-10T01:33:35Z</time></trkpt><trkpt lat="-4.5032306202" lon="-81.2217789888"><ele>21.77</ele><time>2012-08-10T01:33:36Z</time></trkpt><trkpt lat="-4.5033787284" lon="-81.2217133585"><ele>21.29</ele><time>2012-08-10T01:33:37Z</time></trkpt><trkpt lat="-4.5035214722" lon="-81.2216297910"><ele>21.29</ele><time>2012-08-10T01:33:38Z</time></trkpt><trkpt lat="-4.5036614500" lon="-81.2215365004"><ele>21.77</ele><time>2012-08-10T01:33:39Z</time></trkpt><trkpt lat="-4.5038025174" lon="-81.2214381807"><ele>31.38</ele><time>2012-08-10T01:33:40Z</time></trkpt><trkpt lat="-4.5039472729" lon="-81.2213371787"><ele>31.38</ele><time>2012-08-10T01:33:41Z</time></trkpt><trkpt lat="-4.5044026617" lon="-81.2210203428"><ele>34.74</ele><time>2012-08-10T01:33:44Z</time></trkpt><trkpt lat="-4.5047208387" lon="-81.2207978871"><ele>24.65</ele><time>2012-08-10T01:33:46Z</time></trkpt><trkpt lat="-4.5052195620" lon="-81.2204529718"><ele>30.42</ele><time>2012-08-10T01:33:49Z</time></trkpt><trkpt lat="-4.5055629686" lon="-81.2202180270"><ele>32.34</ele><time>2012-08-10T01:33:51Z</time></trkpt><trkpt lat="-4.5057368092" lon="-81.2200998422"><ele>36.19</ele><time>2012-08-10T01:33:52Z</time></trkpt><trkpt lat="-4.5059107337" lon="-81.2199814059"><ele>40.51</ele><time>2012-08-10T01:33:53Z</time></trkpt><trkpt lat="-4.5060827304" lon="-81.2198630534"><ele>40.99</ele><time>2012-08-10T01:33:54Z</time></trkpt><trkpt lat="-4.5062517934" lon="-81.2197449524"><ele>38.11</ele><time>2012-08-10T01:33:55Z</time></trkpt><trkpt lat="-4.5064180903" lon="-81.2196268514"><ele>31.38</ele><time>2012-08-10T01:33:56Z</time></trkpt><trkpt lat="-4.5065826271" lon="-81.2195080798"><ele>34.26</ele><time>2012-08-10T01:33:57Z</time></trkpt><trkpt lat="-4.5079156850" lon="-81.2187345978"><ele>30.42</ele><time>2012-08-10T01:34:05Z</time></trkpt><trkpt lat="-4.5096083265" lon="-81.2181389797"><ele>34.74</ele><time>2012-08-10T01:34:14Z</time></trkpt><trkpt lat="-4.5102263242" lon="-81.2179497164"><ele>38.59</ele><time>2012-08-10T01:34:17Z</time></trkpt><trkpt lat="-4.5123853348" lon="-81.2172440439"><ele>35.23</ele><time>2012-08-10T01:34:27Z</time></trkpt><trkpt lat="-4.5150377881" lon="-81.2163553108"><ele>38.59</ele><time>2012-08-10T01:34:39Z</time></trkpt><trkpt lat="-4.5152581483" lon="-81.2162817176"><ele>39.07</ele><time>2012-08-10T01:34:40Z</time></trkpt><trkpt lat="-4.5170870796" lon="-81.2156631332"><ele>35.23</ele><time>2012-08-10T01:34:49Z</time></trkpt><trkpt lat="-4.5175528619" lon="-81.2154251710"><ele>32.34</ele><time>2012-08-10T01:34:52Z</time></trkpt><trkpt lat="-4.5176948514" lon="-81.2153176311"><ele>31.86</ele><time>2012-08-10T01:34:53Z</time></trkpt><trkpt lat="-4.5178277884" lon="-81.2151948363"><ele>32.34</ele><time>2012-08-10T01:34:54Z</time></trkpt><trkpt lat="-4.5179470628" lon="-81.2150655035"><ele>32.34</ele><time>2012-08-10T01:34:55Z</time></trkpt><trkpt lat="-4.5180527586" lon="-81.2149258610"><ele>32.34</ele><time>2012-08-10T01:34:56Z</time></trkpt><trkpt lat="-4.5181444567" lon="-81.2147774175"><ele>32.34</ele><time>2012-08-10T01:34:57Z</time></trkpt><trkpt lat="-4.5182230789" lon="-81.2146221846"><ele>32.34</ele><time>2012-08-10T01:34:58Z</time></trkpt><trkpt lat="-4.5182843506" lon="-81.2144599948"><ele>34.26</ele><time>2012-08-10T01:34:59Z</time></trkpt><trkpt lat="-4.5183307864" lon="-81.2142936978"><ele>34.74</ele><time>2012-08-10T01:35:00Z</time></trkpt><trkpt lat="-4.5183637273" lon="-81.2141233776"><ele>35.23</ele><time>2012-08-10T01:35:01Z</time></trkpt><trkpt lat="-4.5183813293" lon="-81.2139478605"><ele>36.19</ele><time>2012-08-10T01:35:02Z</time></trkpt><trkpt lat="-4.5183835085" lon="-81.2137683202"><ele>36.67</ele><time>2012-08-10T01:35:03Z</time></trkpt><trkpt lat="-4.5183748752" lon="-81.2135863490"><ele>37.15</ele><time>2012-08-10T01:35:04Z</time></trkpt><trkpt lat="-4.5181791577" lon="-81.2109822594"><ele>38.59</ele><time>2012-08-10T01:35:17Z</time></trkpt><trkpt lat="-4.5181297883" lon="-81.2103393674"><ele>41.95</ele><time>2012-08-10T01:35:20Z</time></trkpt><trkpt lat="-4.5180897228" lon="-81.2097327691"><ele>43.40</ele><time>2012-08-10T01:35:23Z</time></trkpt><trkpt lat="-4.5182530023" lon="-81.2082233559"><ele>44.36</ele><time>2012-08-10T01:35:31Z</time></trkpt><trkpt lat="-4.5189535618" lon="-81.2069550902"><ele>44.36</ele><time>2012-08-10T01:35:38Z</time></trkpt><trkpt lat="-4.5198908262" lon="-81.2056361977"><ele>40.99</ele><time>2012-08-10T01:35:46Z</time></trkpt><trkpt lat="-4.5200204942" lon="-81.2054668833"><ele>40.99</ele><time>2012-08-10T01:35:47Z</time></trkpt><trkpt lat="-4.5213988982" lon="-81.2038870621"><ele>40.51</ele><time>2012-08-10T01:35:57Z</time></trkpt><trkpt lat="-4.5216794405" lon="-81.2036703061"><ele>41.47</ele><time>2012-08-10T01:35:59Z</time></trkpt><trkpt lat="-4.5218157303" lon="-81.2036068551"><ele>41.47</ele><time>2012-08-10T01:36:00Z</time></trkpt><trkpt lat="-4.5219509304" lon="-81.2035765126"><ele>38.59</ele><time>2012-08-10T01:36:01Z</time></trkpt><trkpt lat="-4.5220870525" lon="-81.2035777699"><ele>28.50</ele><time>2012-08-10T01:36:02Z</time></trkpt><trkpt lat="-4.5222220011" lon="-81.2036072742"><ele>26.09</ele><time>2012-08-10T01:36:03Z</time></trkpt><trkpt lat="-4.5223630685" lon="-81.2036439031"><ele>28.50</ele><time>2012-08-10T01:36:04Z</time></trkpt><trkpt lat="-4.5226583630" lon="-81.2037175801"><ele>32.82</ele><time>2012-08-10T01:36:06Z</time></trkpt><trkpt lat="-4.5228118356" lon="-81.2037539575"><ele>35.71</ele><time>2012-08-10T01:36:07Z</time></trkpt><trkpt lat="-4.5246157888" lon="-81.2041508406"><ele>35.23</ele><time>2012-08-10T01:36:17Z</time></trkpt><trkpt lat="-4.5275597647" lon="-81.2047602050"><ele>36.67</ele><time>2012-08-10T01:36:31Z</time></trkpt><trkpt lat="-4.5282205101" lon="-81.2048652302"><ele>39.55</ele><time>2012-08-10T01:36:34Z</time></trkpt><trkpt lat="-4.5304421335" lon="-81.2052176893"><ele>38.11</ele><time>2012-08-10T01:36:44Z</time></trkpt><trkpt lat="-4.5325430576" lon="-81.2055567373"><ele>40.51</ele><time>2012-08-10T01:36:54Z</time></trkpt><trkpt lat="-4.5335850958" lon="-81.2057276443"><ele>37.63</ele><time>2012-08-10T01:36:59Z</time></trkpt><trkpt lat="-4.5356126782" lon="-81.2062283792"><ele>40.03</ele><time>2012-08-10T01:37:09Z</time></trkpt><trkpt lat="-4.5363041852" lon="-81.2066261005"><ele>43.40</ele><time>2012-08-10T01:37:13Z</time></trkpt><trkpt lat="-4.5367962029" lon="-81.2069109175"><ele>46.76</ele><time>2012-08-10T01:37:16Z</time></trkpt><trkpt lat="-4.5372720435" lon="-81.2071927171"><ele>50.61</ele><time>2012-08-10T01:37:19Z</time></trkpt><trkpt lat="-4.5379989222" lon="-81.2076313421"><ele>54.45</ele><time>2012-08-10T01:37:24Z</time></trkpt><trkpt lat="-4.5385252219" lon="-81.2079455797"><ele>57.82</ele><time>2012-08-10T01:37:28Z</time></trkpt><trkpt lat="-4.5389761683" lon="-81.2082090229"><ele>61.66</ele><time>2012-08-10T01:37:32Z</time></trkpt><trkpt lat="-4.5391986240" lon="-81.2083367631"><ele>65.51</ele><time>2012-08-10T01:37:34Z</time></trkpt><trkpt lat="-4.5394192357" lon="-81.2084652577"><ele>70.79</ele><time>2012-08-10T01:37:36Z</time></trkpt><trkpt lat="-4.5396400988" lon="-81.2085949257"><ele>76.56</ele><time>2012-08-10T01:37:38Z</time></trkpt><trkpt lat="-4.5397486445" lon="-81.2086595502"><ele>79.45</ele><time>2012-08-10T01:37:39Z</time></trkpt><trkpt lat="-4.5400714315" lon="-81.2088554353"><ele>84.25</ele><time>2012-08-10T01:37:42Z</time></trkpt><trkpt lat="-4.5403970685" lon="-81.2090401724"><ele>88.10</ele><time>2012-08-10T01:37:45Z</time></trkpt><trkpt lat="-4.5420254208" lon="-81.2097331043"><ele>87.14</ele><time>2012-08-10T01:37:58Z</time></trkpt><trkpt lat="-4.5423261635" lon="-81.2098375428"><ele>90.50</ele><time>2012-08-10T01:38:00Z</time></trkpt><trkpt lat="-4.5428035129" lon="-81.2100056000"><ele>94.83</ele><time>2012-08-10T01:38:03Z</time></trkpt><trkpt lat="-4.5456147194" lon="-81.2110135239"><ele>96.27</ele><time>2012-08-10T01:38:19Z</time></trkpt><trkpt lat="-4.5485181268" lon="-81.2120395526"><ele>99.63</ele><time>2012-08-10T01:38:33Z</time></trkpt><trkpt lat="-4.5534953009" lon="-81.2138171867"><ele>97.71</ele><time>2012-08-10T01:38:55Z</time></trkpt><trkpt lat="-4.5583024900" lon="-81.2155709323"><ele>98.19</ele><time>2012-08-10T01:39:16Z</time></trkpt><trkpt lat="-4.5587274525" lon="-81.2157250755"><ele>94.83</ele><time>2012-08-10T01:39:18Z</time></trkpt><trkpt lat="-4.5593320392" lon="-81.2159475312"><ele>91.46</ele><time>2012-08-10T01:39:21Z</time></trkpt><trkpt lat="-4.5598448440" lon="-81.2161451764"><ele>88.10</ele><time>2012-08-10T01:39:24Z</time></trkpt><trkpt lat="-4.5602835529" lon="-81.2163349427"><ele>84.73</ele><time>2012-08-10T01:39:27Z</time></trkpt><trkpt lat="-4.5607195795" lon="-81.2165398803"><ele>82.81</ele><time>2012-08-10T01:39:30Z</time></trkpt><trkpt lat="-4.5616691653" lon="-81.2169812713"><ele>86.66</ele><time>2012-08-10T01:39:36Z</time></trkpt><trkpt lat="-4.5621859934" lon="-81.2171898130"><ele>90.02</ele><time>2012-08-10T01:39:39Z</time></trkpt><trkpt lat="-4.5630901493" lon="-81.2175697647"><ele>86.18</ele><time>2012-08-10T01:39:46Z</time></trkpt><trkpt lat="-4.5631914027" lon="-81.2175913900"><ele>84.25</ele><time>2012-08-10T01:39:47Z</time></trkpt><trkpt lat="-4.5632979367" lon="-81.2176007777"><ele>82.81</ele><time>2012-08-10T01:39:48Z</time></trkpt><trkpt lat="-4.5634067338" lon="-81.2175981794"><ele>81.37</ele><time>2012-08-10T01:39:49Z</time></trkpt><trkpt lat="-4.5635151956" lon="-81.2175853550"><ele>80.89</ele><time>2012-08-10T01:39:50Z</time></trkpt><trkpt lat="-4.5636212267" lon="-81.2175612990"><ele>80.41</ele><time>2012-08-10T01:39:51Z</time></trkpt><trkpt lat="-4.5637263358" lon="-81.2175232451"><ele>81.37</ele><time>2012-08-10T01:39:52Z</time></trkpt><trkpt lat="-4.5638272539" lon="-81.2174720317"><ele>81.37</ele><time>2012-08-10T01:39:53Z</time></trkpt><trkpt lat="-4.5639229752" lon="-81.2174084969"><ele>81.85</ele><time>2012-08-10T01:39:54Z</time></trkpt><trkpt lat="-4.5640143380" lon="-81.2173331436"><ele>81.85</ele><time>2012-08-10T01:39:55Z</time></trkpt><trkpt lat="-4.5641004201" lon="-81.2172468100"><ele>84.25</ele><time>2012-08-10T01:39:56Z</time></trkpt><trkpt lat="-4.5641895197" lon="-81.2171349954"><ele>85.21</ele><time>2012-08-10T01:39:57Z</time></trkpt><trkpt lat="-4.5642527193" lon="-81.2170431297"><ele>87.62</ele><time>2012-08-10T01:39:58Z</time></trkpt><trkpt lat="-4.5644051861" lon="-81.2168190815"><ele>90.98</ele><time>2012-08-10T01:40:00Z</time></trkpt><trkpt lat="-4.5647213515" lon="-81.2163555622"><ele>94.83</ele><time>2012-08-10T01:40:04Z</time></trkpt><trkpt lat="-4.5654727053" lon="-81.2152779847"><ele>90.50</ele><time>2012-08-10T01:40:13Z</time></trkpt><trkpt lat="-4.5658055507" lon="-81.2147954386"><ele>87.14</ele><time>2012-08-10T01:40:17Z</time></trkpt><trkpt lat="-4.5664187707" lon="-81.2139522191"><ele>85.21</ele><time>2012-08-10T01:40:26Z</time></trkpt><trkpt lat="-4.5665700641" lon="-81.2138005905"><ele>83.77</ele><time>2012-08-10T01:40:29Z</time></trkpt><trkpt lat="-4.5666115545" lon="-81.2137712538"><ele>83.29</ele><time>2012-08-10T01:40:30Z</time></trkpt><trkpt lat="-4.5666500274" lon="-81.2137471139"><ele>82.33</ele><time>2012-08-10T01:40:31Z</time></trkpt><trkpt lat="-4.5666801184" lon="-81.2137290090"><ele>81.37</ele><time>2012-08-10T01:40:32Z</time></trkpt><trkpt lat="-4.5667030849" lon="-81.2137130834"><ele>80.41</ele><time>2012-08-10T01:40:33Z</time></trkpt><trkpt lat="-4.5667210221" lon="-81.2137015164"><ele>78.00</ele><time>2012-08-10T01:40:43Z</time></trkpt><trkpt lat="-4.5667354390" lon="-81.2137109041"><ele>79.45</ele><time>2012-08-10T01:40:57Z</time></trkpt><trkpt lat="-4.5667091198" lon="-81.2137135025"><ele>80.41</ele><time>2012-08-10T01:41:22Z</time></trkpt><trkpt lat="-4.5666945353" lon="-81.2137064617"><ele>80.41</ele><time>2012-08-10T01:41:47Z</time></trkpt><trkpt lat="-4.5666882489" lon="-81.2136997562"><ele>80.89</ele><time>2012-08-10T01:42:04Z</time></trkpt><trkpt lat="-4.5666910149" lon="-81.2136808131"><ele>80.89</ele><time>2012-08-10T01:42:30Z</time></trkpt><trkpt lat="-4.5668365248" lon="-81.2133607082"><ele>81.37</ele><time>2012-08-10T01:42:38Z</time></trkpt><trkpt lat="-4.5670963638" lon="-81.2129232567"><ele>84.73</ele><time>2012-08-10T01:42:44Z</time></trkpt><trkpt lat="-4.5672140457" lon="-81.2127457280"><ele>88.10</ele><time>2012-08-10T01:42:46Z</time></trkpt><trkpt lat="-4.5674243476" lon="-81.2124483380"><ele>91.46</ele><time>2012-08-10T01:42:49Z</time></trkpt><trkpt lat="-4.5674986113" lon="-81.2123394571"><ele>91.46</ele><time>2012-08-10T01:42:50Z</time></trkpt><trkpt lat="-4.5677305385" lon="-81.2120071985"><ele>94.83</ele><time>2012-08-10T01:42:53Z</time></trkpt><trkpt lat="-4.5681732707" lon="-81.2113669887"><ele>98.67</ele><time>2012-08-10T01:42:58Z</time></trkpt><trkpt lat="-4.5686613489" lon="-81.2106661778"><ele>102.04</ele><time>2012-08-10T01:43:03Z</time></trkpt><trkpt lat="-4.5693935920" lon="-81.2096115667"><ele>100.60</ele><time>2012-08-10T01:43:10Z</time></trkpt><trkpt lat="-4.5700586960" lon="-81.2086531799"><ele>103.96</ele><time>2012-08-10T01:43:16Z</time></trkpt><trkpt lat="-4.5701731090" lon="-81.2084887270"><ele>104.44</ele><time>2012-08-10T01:43:17Z</time></trkpt><trkpt lat="-4.5722398348" lon="-81.2054934539"><ele>105.40</ele><time>2012-08-10T01:43:34Z</time></trkpt><trkpt lat="-4.5733858086" lon="-81.2038309872"><ele>108.29</ele><time>2012-08-10T01:43:43Z</time></trkpt><trkpt lat="-4.5740263537" lon="-81.2029070500"><ele>92.90</ele><time>2012-08-10T01:43:48Z</time></trkpt><trkpt lat="-4.5741510764" lon="-81.2027271744"><ele>86.18</ele><time>2012-08-10T01:43:49Z</time></trkpt><trkpt lat="-4.5742792357" lon="-81.2025425211"><ele>87.62</ele><time>2012-08-10T01:43:50Z</time></trkpt><trkpt lat="-4.5744078979" lon="-81.2023569457"><ele>90.50</ele><time>2012-08-10T01:43:51Z</time></trkpt><trkpt lat="-4.5746655576" lon="-81.2019829452"><ele>91.94</ele><time>2012-08-10T01:43:53Z</time></trkpt><trkpt lat="-4.5775499381" lon="-81.1978185643"><ele>92.42</ele><time>2012-08-10T01:44:15Z</time></trkpt><trkpt lat="-4.5788340457" lon="-81.1959674209"><ele>92.42</ele><time>2012-08-10T01:44:26Z</time></trkpt><trkpt lat="-4.5806671679" lon="-81.1933138780"><ele>93.87</ele><time>2012-08-10T01:44:43Z</time></trkpt><trkpt lat="-4.5821123756" lon="-81.1912063323"><ele>94.83</ele><time>2012-08-10T01:44:57Z</time></trkpt><trkpt lat="-4.5832407475" lon="-81.1895975098"><ele>95.79</ele><time>2012-08-10T01:45:09Z</time></trkpt><trkpt lat="-4.5843908284" lon="-81.1878632940"><ele>97.71</ele><time>2012-08-10T01:45:21Z</time></trkpt><trkpt lat="-4.5847390965" lon="-81.1873813346"><ele>102.04</ele><time>2012-08-10T01:45:24Z</time></trkpt><trkpt lat="-4.5852214750" lon="-81.1867195833"><ele>105.40</ele><time>2012-08-10T01:45:28Z</time></trkpt><trkpt lat="-4.5861610863" lon="-81.1853600387"><ele>102.52</ele><time>2012-08-10T01:45:36Z</time></trkpt><trkpt lat="-4.5881630201" lon="-81.1824805196"><ele>103.48</ele><time>2012-08-10T01:45:53Z</time></trkpt><trkpt lat="-4.5906755794" lon="-81.1788599566"><ele>106.36</ele><time>2012-08-10T01:46:14Z</time></trkpt><trkpt lat="-4.5925023314" lon="-81.1762077548"><ele>109.25</ele><time>2012-08-10T01:46:29Z</time></trkpt><trkpt lat="-4.5945378765" lon="-81.1732680537"><ele>112.61</ele><time>2012-08-10T01:46:45Z</time></trkpt><trkpt lat="-4.5970794372" lon="-81.1695901584"><ele>115.98</ele><time>2012-08-10T01:47:05Z</time></trkpt><trkpt lat="-4.5986739267" lon="-81.1672900803"><ele>116.94</ele><time>2012-08-10T01:47:18Z</time></trkpt><trkpt lat="-4.5999985188" lon="-81.1653736420"><ele>117.90</ele><time>2012-08-10T01:47:30Z</time></trkpt><trkpt lat="-4.6008827258" lon="-81.1641016882"><ele>117.90</ele><time>2012-08-10T01:47:40Z</time></trkpt><trkpt lat="-4.6012133919" lon="-81.1636924837"><ele>117.90</ele><time>2012-08-10T01:47:47Z</time></trkpt><trkpt lat="-4.6014071815" lon="-81.1634379253"><ele>116.46</ele><time>2012-08-10T01:47:55Z</time></trkpt><trkpt lat="-4.6018170565" lon="-81.1627546325"><ele>116.46</ele><time>2012-08-10T01:48:04Z</time></trkpt><trkpt lat="-4.6026419196" lon="-81.1615563557"><ele>116.94</ele><time>2012-08-10T01:48:14Z</time></trkpt><trkpt lat="-4.6040059067" lon="-81.1595745385"><ele>118.86</ele><time>2012-08-10T01:48:27Z</time></trkpt><trkpt lat="-4.6055820398" lon="-81.1576504726"><ele>119.82</ele><time>2012-08-10T01:48:39Z</time></trkpt><trkpt lat="-4.6076560579" lon="-81.1558765266"><ele>120.78</ele><time>2012-08-10T01:48:51Z</time></trkpt><trkpt lat="-4.6111183707" lon="-81.1532310303"><ele>122.22</ele><time>2012-08-10T01:49:10Z</time></trkpt><trkpt lat="-4.6132075600" lon="-81.1516406480"><ele>122.22</ele><time>2012-08-10T01:49:22Z</time></trkpt><trkpt lat="-4.6161399689" lon="-81.1494046077"><ele>122.22</ele><time>2012-08-10T01:49:39Z</time></trkpt><trkpt lat="-4.6179092210" lon="-81.1483368371"><ele>122.22</ele><time>2012-08-10T01:49:49Z</time></trkpt><trkpt lat="-4.6186590660" lon="-81.1480105296"><ele>122.22</ele><time>2012-08-10T01:49:54Z</time></trkpt><trkpt lat="-4.6196600329" lon="-81.1478149798"><ele>120.78</ele><time>2012-08-10T01:50:01Z</time></trkpt><trkpt lat="-4.6198069677" lon="-81.1477578990"><ele>120.78</ele><time>2012-08-10T01:50:02Z</time></trkpt><trkpt lat="-4.6199474484" lon="-81.1476848926"><ele>120.78</ele><time>2012-08-10T01:50:03Z</time></trkpt><trkpt lat="-4.6200829837" lon="-81.1475981399"><ele>120.78</ele><time>2012-08-10T01:50:04Z</time></trkpt><trkpt lat="-4.6202149987" lon="-81.1475029215"><ele>120.30</ele><time>2012-08-10T01:50:05Z</time></trkpt><trkpt lat="-4.6210545301" lon="-81.1468814034"><ele>120.30</ele><time>2012-08-10T01:50:11Z</time></trkpt><trkpt lat="-4.6228469163" lon="-81.1460493319"><ele>120.78</ele><time>2012-08-10T01:50:21Z</time></trkpt><trkpt lat="-4.6259094123" lon="-81.1446206365"><ele>122.71</ele><time>2012-08-10T01:50:36Z</time></trkpt><trkpt lat="-4.6275109425" lon="-81.1438825261"><ele>122.71</ele><time>2012-08-10T01:50:45Z</time></trkpt><trkpt lat="-4.6276389342" lon="-81.1438335758"><ele>121.26</ele><time>2012-08-10T01:50:46Z</time></trkpt><trkpt lat="-4.6277686022" lon="-81.1437958572"><ele>121.26</ele><time>2012-08-10T01:50:47Z</time></trkpt><trkpt lat="-4.6287870873" lon="-81.1433700565"><ele>120.78</ele><time>2012-08-10T01:50:55Z</time></trkpt><trkpt lat="-4.6292565577" lon="-81.1429464351"><ele>120.30</ele><time>2012-08-10T01:50:59Z</time></trkpt><trkpt lat="-4.6293575596" lon="-81.1428140011"><ele>120.30</ele><time>2012-08-10T01:51:00Z</time></trkpt><trkpt lat="-4.6297724638" lon="-81.1422740389"><ele>120.30</ele><time>2012-08-10T01:51:04Z</time></trkpt><trkpt lat="-4.6299004555" lon="-81.1421598773"><ele>120.30</ele><time>2012-08-10T01:51:05Z</time></trkpt><trkpt lat="-4.6318183187" lon="-81.1406126618"><ele>121.74</ele><time>2012-08-10T01:51:18Z</time></trkpt><trkpt lat="-4.6340779122" lon="-81.1386674736"><ele>123.67</ele><time>2012-08-10T01:51:33Z</time></trkpt><trkpt lat="-4.6350000892" lon="-81.1379315425"><ele>124.15</ele><time>2012-08-10T01:51:40Z</time></trkpt><trkpt lat="-4.6363695245" lon="-81.1372154765"><ele>124.63</ele><time>2012-08-10T01:51:50Z</time></trkpt><trkpt lat="-4.6379309893" lon="-81.1369480938"><ele>125.59</ele><time>2012-08-10T01:52:00Z</time></trkpt><trkpt lat="-4.6393393166" lon="-81.1370532867"><ele>126.07</ele><time>2012-08-10T01:52:09Z</time></trkpt><trkpt lat="-4.6412703395" lon="-81.1370801926"><ele>126.55</ele><time>2012-08-10T01:52:21Z</time></trkpt><trkpt lat="-4.6414321940" lon="-81.1370387860"><ele>126.55</ele><time>2012-08-10T01:52:22Z</time></trkpt><trkpt lat="-4.6415919531" lon="-81.1369863153"><ele>127.03</ele><time>2012-08-10T01:52:23Z</time></trkpt><trkpt lat="-4.6425955184" lon="-81.1363818962"><ele>127.51</ele><time>2012-08-10T01:52:30Z</time></trkpt><trkpt lat="-4.6432421822" lon="-81.1354408599"><ele>127.51</ele><time>2012-08-10T01:52:37Z</time></trkpt><trkpt lat="-4.6440225374" lon="-81.1333354097"><ele>128.95</ele><time>2012-08-10T01:52:50Z</time></trkpt><trkpt lat="-4.6448279545" lon="-81.1312639061"><ele>129.43</ele><time>2012-08-10T01:53:03Z</time></trkpt><trkpt lat="-4.6456790529" lon="-81.1289529316"><ele>131.36</ele><time>2012-08-10T01:53:17Z</time></trkpt><trkpt lat="-4.6460220404" lon="-81.1280429922"><ele>134.24</ele><time>2012-08-10T01:53:22Z</time></trkpt><trkpt lat="-4.6461674664" lon="-81.1276697461"><ele>137.61</ele><time>2012-08-10T01:53:24Z</time></trkpt><trkpt lat="-4.6464005671" lon="-81.1271038838"><ele>141.45</ele><time>2012-08-10T01:53:27Z</time></trkpt><trkpt lat="-4.6472702734" lon="-81.1256654654"><ele>142.89</ele><time>2012-08-10T01:53:35Z</time></trkpt><trkpt lat="-4.6487513557" lon="-81.1243324075"><ele>142.89</ele><time>2012-08-10T01:53:44Z</time></trkpt><trkpt lat="-4.6525723301" lon="-81.1210206337"><ele>145.30</ele><time>2012-08-10T01:54:06Z</time></trkpt><trkpt lat="-4.6559882909" lon="-81.1180610675"><ele>146.74</ele><time>2012-08-10T01:54:25Z</time></trkpt><trkpt lat="-4.6587563306" lon="-81.1156545393"><ele>148.18</ele><time>2012-08-10T01:54:41Z</time></trkpt><trkpt lat="-4.6614816226" lon="-81.1133008171"><ele>148.66</ele><time>2012-08-10T01:54:57Z</time></trkpt><trkpt lat="-4.6637423057" lon="-81.1113450676"><ele>151.54</ele><time>2012-08-10T01:55:10Z</time></trkpt><trkpt lat="-4.6649888624" lon="-81.1102723517"><ele>154.91</ele><time>2012-08-10T01:55:17Z</time></trkpt><trkpt lat="-4.6655296627" lon="-81.1098053958"><ele>156.35</ele><time>2012-08-10T01:55:20Z</time></trkpt><trkpt lat="-4.6694601048" lon="-81.1063989904"><ele>157.79</ele><time>2012-08-10T01:55:42Z</time></trkpt><trkpt lat="-4.6729183942" lon="-81.1034063157"><ele>160.68</ele><time>2012-08-10T01:56:02Z</time></trkpt><trkpt lat="-4.6758469474" lon="-81.1008650903"><ele>162.60</ele><time>2012-08-10T01:56:19Z</time></trkpt><trkpt lat="-4.6777819097" lon="-81.0991782323"><ele>164.04</ele><time>2012-08-10T01:56:32Z</time></trkpt><trkpt lat="-4.6792814322" lon="-81.0978727508"><ele>167.41</ele><time>2012-08-10T01:56:41Z</time></trkpt><trkpt lat="-4.6799692512" lon="-81.0972995125"><ele>170.77</ele><time>2012-08-10T01:56:45Z</time></trkpt><trkpt lat="-4.6809689607" lon="-81.0964280460"><ele>174.62</ele><time>2012-08-10T01:56:51Z</time></trkpt><trkpt lat="-4.6843312774" lon="-81.0935023427"><ele>176.54</ele><time>2012-08-10T01:57:11Z</time></trkpt><trkpt lat="-4.6873227786" lon="-81.0909163579"><ele>179.42</ele><time>2012-08-10T01:57:28Z</time></trkpt><trkpt lat="-4.6899857931" lon="-81.0886056349"><ele>182.31</ele><time>2012-08-10T01:57:43Z</time></trkpt><trkpt lat="-4.6931422502" lon="-81.0856358428"><ele>184.23</ele><time>2012-08-10T01:58:01Z</time></trkpt><trkpt lat="-4.6948496439" lon="-81.0833110381"><ele>186.63</ele><time>2012-08-10T01:58:13Z</time></trkpt><trkpt lat="-4.6968369931" lon="-81.0800171178"><ele>189.52</ele><time>2012-08-10T01:58:29Z</time></trkpt><trkpt lat="-4.6991876978" lon="-81.0761156771"><ele>192.88</ele><time>2012-08-10T01:58:48Z</time></trkpt><trkpt lat="-4.7015822399" lon="-81.0721212812"><ele>193.84</ele><time>2012-08-10T01:59:08Z</time></trkpt><trkpt lat="-4.7030143719" lon="-81.0697342828"><ele>198.17</ele><time>2012-08-10T01:59:20Z</time></trkpt><trkpt lat="-4.7033721115" lon="-81.0691415146"><ele>201.53</ele><time>2012-08-10T01:59:23Z</time></trkpt><trkpt lat="-4.7036102414" lon="-81.0687423684"><ele>202.49</ele><time>2012-08-10T01:59:25Z</time></trkpt><trkpt lat="-4.7039653827" lon="-81.0681545455"><ele>203.94</ele><time>2012-08-10T01:59:28Z</time></trkpt><trkpt lat="-4.7062765248" lon="-81.0643127002"><ele>204.90</ele><time>2012-08-10T01:59:47Z</time></trkpt><trkpt lat="-4.7090456542" lon="-81.0597020667"><ele>207.30</ele><time>2012-08-10T02:00:09Z</time></trkpt><trkpt lat="-4.7112012282" lon="-81.0561218206"><ele>207.30</ele><time>2012-08-10T02:00:26Z</time></trkpt><trkpt lat="-4.7113250289" lon="-81.0559169669"><ele>217.40</ele><time>2012-08-10T02:00:27Z</time></trkpt><trkpt lat="-4.7118126042" lon="-81.0550973844"><ele>215.47</ele><time>2012-08-10T02:00:31Z</time></trkpt><trkpt lat="-4.7120385803" lon="-81.0547233839"><ele>210.67</ele><time>2012-08-10T02:00:33Z</time></trkpt><trkpt lat="-4.7121467069" lon="-81.0545452684"><ele>211.15</ele><time>2012-08-10T02:00:34Z</time></trkpt><trkpt lat="-4.7136545274" lon="-81.0520377383"><ele>209.22</ele><time>2012-08-10T02:00:49Z</time></trkpt><trkpt lat="-4.7151859012" lon="-81.0494552739"><ele>211.15</ele><time>2012-08-10T02:01:04Z</time></trkpt><trkpt lat="-4.7167579271" lon="-81.0468058381"><ele>214.99</ele><time>2012-08-10T02:01:17Z</time></trkpt><trkpt lat="-4.7170300875" lon="-81.0463775229"><ele>217.88</ele><time>2012-08-10T02:01:19Z</time></trkpt><trkpt lat="-4.7174308263" lon="-81.0457337089"><ele>221.72</ele><time>2012-08-10T02:01:22Z</time></trkpt><trkpt lat="-4.7184614651" lon="-81.0440179333"><ele>218.36</ele><time>2012-08-10T02:01:30Z</time></trkpt><trkpt lat="-4.7189700790" lon="-81.0431610513"><ele>215.47</ele><time>2012-08-10T02:01:34Z</time></trkpt><trkpt lat="-4.7202447988" lon="-81.0410495661"><ele>218.84</ele><time>2012-08-10T02:01:44Z</time></trkpt><trkpt lat="-4.7207580227" lon="-81.0402034968"><ele>222.68</ele><time>2012-08-10T02:01:48Z</time></trkpt><trkpt lat="-4.7224126104" lon="-81.0374290030"><ele>219.80</ele><time>2012-08-10T02:02:01Z</time></trkpt><trkpt lat="-4.7235620208" lon="-81.0355226230"><ele>215.95</ele><time>2012-08-10T02:02:11Z</time></trkpt><trkpt lat="-4.7251028661" lon="-81.0329351295"><ele>219.80</ele><time>2012-08-10T02:02:25Z</time></trkpt><trkpt lat="-4.7254290059" lon="-81.0323944967"><ele>222.20</ele><time>2012-08-10T02:02:28Z</time></trkpt><trkpt lat="-4.7258395515" lon="-81.0317143891"><ele>218.84</ele><time>2012-08-10T02:02:32Z</time></trkpt><trkpt lat="-4.7261423059" lon="-81.0312172584"><ele>214.99</ele><time>2012-08-10T02:02:35Z</time></trkpt><trkpt lat="-4.7264472395" lon="-81.0307112429"><ele>211.63</ele><time>2012-08-10T02:02:38Z</time></trkpt><trkpt lat="-4.7275010962" lon="-81.0293150693"><ele>209.70</ele><time>2012-08-10T02:02:47Z</time></trkpt><trkpt lat="-4.7280954570" lon="-81.0284378193"><ele>209.70</ele><time>2012-08-10T02:02:53Z</time></trkpt><trkpt lat="-4.7281366959" lon="-81.0282825865"><ele>209.70</ele><time>2012-08-10T02:02:54Z</time></trkpt><trkpt lat="-4.7283505183" lon="-81.0275353398"><ele>209.22</ele><time>2012-08-10T02:02:59Z</time></trkpt><trkpt lat="-4.7293951549" lon="-81.0257899761"><ele>213.07</ele><time>2012-08-10T02:03:11Z</time></trkpt><trkpt lat="-4.7297844943" lon="-81.0251482576"><ele>216.43</ele><time>2012-08-10T02:03:15Z</time></trkpt><trkpt lat="-4.7317389864" lon="-81.0218898766"><ele>217.40</ele><time>2012-08-10T02:03:34Z</time></trkpt><trkpt lat="-4.7328227665" lon="-81.0200860072"><ele>220.76</ele><time>2012-08-10T02:03:44Z</time></trkpt><trkpt lat="-4.7342690639" lon="-81.0176840052"><ele>217.40</ele><time>2012-08-10T02:03:57Z</time></trkpt><trkpt lat="-4.7357523255" lon="-81.0152027104"><ele>220.76</ele><time>2012-08-10T02:04:10Z</time></trkpt><trkpt lat="-4.7371403687" lon="-81.0129051469"><ele>217.40</ele><time>2012-08-10T02:04:22Z</time></trkpt><trkpt lat="-4.7393134609" lon="-81.0092853382"><ele>216.43</ele><time>2012-08-10T02:04:40Z</time></trkpt><trkpt lat="-4.7418498248" lon="-81.0050627869"><ele>214.51</ele><time>2012-08-10T02:05:01Z</time></trkpt><trkpt lat="-4.7424338758" lon="-81.0040880553"><ele>211.15</ele><time>2012-08-10T02:05:06Z</time></trkpt><trkpt lat="-4.7438062448" lon="-81.0018054117"><ele>210.19</ele><time>2012-08-10T02:05:18Z</time></trkpt><trkpt lat="-4.7452460043" lon="-80.9993920103"><ele>208.26</ele><time>2012-08-10T02:05:31Z</time></trkpt><trkpt lat="-4.7457671072" lon="-80.9985331167"><ele>204.90</ele><time>2012-08-10T02:05:36Z</time></trkpt><trkpt lat="-4.7472558171" lon="-80.9960593656"><ele>202.98</ele><time>2012-08-10T02:05:51Z</time></trkpt><trkpt lat="-4.7482069116" lon="-80.9944801312"><ele>202.98</ele><time>2012-08-10T02:06:01Z</time></trkpt><trkpt lat="-4.7495328449" lon="-80.9926393814"><ele>200.57</ele><time>2012-08-10T02:06:13Z</time></trkpt><trkpt lat="-4.7500387765" lon="-80.9920685738"><ele>197.21</ele><time>2012-08-10T02:06:17Z</time></trkpt><trkpt lat="-4.7505563591" lon="-80.9915074054"><ele>193.84</ele><time>2012-08-10T02:06:21Z</time></trkpt><trkpt lat="-4.7510674037" lon="-80.9909497574"><ele>190.00</ele><time>2012-08-10T02:06:25Z</time></trkpt><trkpt lat="-4.7514477745" lon="-80.9905210230"><ele>185.67</ele><time>2012-08-10T02:06:28Z</time></trkpt><trkpt lat="-4.7517109662" lon="-80.9902339429"><ele>182.31</ele><time>2012-08-10T02:06:30Z</time></trkpt><trkpt lat="-4.7519779298" lon="-80.9899432585"><ele>178.94</ele><time>2012-08-10T02:06:32Z</time></trkpt><trkpt lat="-4.7523822729" lon="-80.9894935694"><ele>174.62</ele><time>2012-08-10T02:06:35Z</time></trkpt><trkpt lat="-4.7527820058" lon="-80.9890563693"><ele>170.29</ele><time>2012-08-10T02:06:38Z</time></trkpt><trkpt lat="-4.7531816550" lon="-80.9886201750"><ele>165.96</ele><time>2012-08-10T02:06:41Z</time></trkpt><trkpt lat="-4.7533165198" lon="-80.9884709772"><ele>165.96</ele><time>2012-08-10T02:06:42Z</time></trkpt><trkpt lat="-4.7539456654" lon="-80.9877653047"><ele>162.60</ele><time>2012-08-10T02:06:47Z</time></trkpt><trkpt lat="-4.7546890564" lon="-80.9869306348"><ele>165.96</ele><time>2012-08-10T02:06:53Z</time></trkpt><trkpt lat="-4.7550747078" lon="-80.9865109529"><ele>169.33</ele><time>2012-08-10T02:06:56Z</time></trkpt><trkpt lat="-4.7555883508" lon="-80.9859467670"><ele>172.69</ele><time>2012-08-10T02:07:00Z</time></trkpt><trkpt lat="-4.7567556147" lon="-80.9846653417"><ele>170.77</ele><time>2012-08-10T02:07:09Z</time></trkpt><trkpt lat="-4.7572495602" lon="-80.9841246251"><ele>166.93</ele><time>2012-08-10T02:07:13Z</time></trkpt><trkpt lat="-4.7576067131" lon="-80.9837427456"><ele>162.60</ele><time>2012-08-10T02:07:16Z</time></trkpt><trkpt lat="-4.7578380536" lon="-80.9835343715"><ele>159.72</ele><time>2012-08-10T02:07:18Z</time></trkpt><trkpt lat="-4.7581041791" lon="-80.9833559208"><ele>156.35</ele><time>2012-08-10T02:07:20Z</time></trkpt><trkpt lat="-4.7582549695" lon="-80.9832892846"><ele>154.91</ele><time>2012-08-10T02:07:21Z</time></trkpt><trkpt lat="-4.7584121302" lon="-80.9832399990"><ele>153.95</ele><time>2012-08-10T02:07:22Z</time></trkpt><trkpt lat="-4.7585738171" lon="-80.9832066391"><ele>152.51</ele><time>2012-08-10T02:07:23Z</time></trkpt><trkpt lat="-4.7587391082" lon="-80.9831800684"><ele>152.03</ele><time>2012-08-10T02:07:24Z</time></trkpt><trkpt lat="-4.7596661467" lon="-80.9827969316"><ele>150.10</ele><time>2012-08-10T02:07:30Z</time></trkpt><trkpt lat="-4.7603320889" lon="-80.9820371121"><ele>149.14</ele><time>2012-08-10T02:07:36Z</time></trkpt><trkpt lat="-4.7606461588" lon="-80.9811461996"><ele>150.58</ele><time>2012-08-10T02:07:43Z</time></trkpt><trkpt lat="-4.7607923392" lon="-80.9806244262"><ele>153.95</ele><time>2012-08-10T02:07:48Z</time></trkpt><trkpt lat="-4.7608905751" lon="-80.9803139605"><ele>157.79</ele><time>2012-08-10T02:07:51Z</time></trkpt><trkpt lat="-4.7610276192" lon="-80.9800157323"><ele>161.64</ele><time>2012-08-10T02:07:54Z</time></trkpt><trkpt lat="-4.7617315315" lon="-80.9791716747"><ele>160.20</ele><time>2012-08-10T02:08:04Z</time></trkpt><trkpt lat="-4.7622323502" lon="-80.9786377475"><ele>163.08</ele><time>2012-08-10T02:08:11Z</time></trkpt><trkpt lat="-4.7626848053" lon="-80.9781335760"><ele>166.45</ele><time>2012-08-10T02:08:17Z</time></trkpt><trkpt lat="-4.7634055652" lon="-80.9773604292"><ele>164.52</ele><time>2012-08-10T02:08:26Z</time></trkpt><trkpt lat="-4.7642434202" lon="-80.9763968457"><ele>165.00</ele><time>2012-08-10T02:08:34Z</time></trkpt><trkpt lat="-4.7656089161" lon="-80.9749301802"><ele>166.45</ele><time>2012-08-10T02:08:44Z</time></trkpt><trkpt lat="-4.7661284264" lon="-80.9743677545"><ele>169.81</ele><time>2012-08-10T02:08:48Z</time></trkpt><trkpt lat="-4.7680752911" lon="-80.9722432774"><ele>166.93</ele><time>2012-08-10T02:09:03Z</time></trkpt><trkpt lat="-4.7693637572" lon="-80.9707678948"><ele>170.29</ele><time>2012-08-10T02:09:13Z</time></trkpt><trkpt lat="-4.7696521785" lon="-80.9704460297"><ele>173.66</ele><time>2012-08-10T02:09:15Z</time></trkpt><trkpt lat="-4.7699497361" lon="-80.9701128490"><ele>177.02</ele><time>2012-08-10T02:09:17Z</time></trkpt><trkpt lat="-4.7704219725" lon="-80.9696095996"><ele>179.90</ele><time>2012-08-10T02:09:20Z</time></trkpt><trkpt lat="-4.7712237015" lon="-80.9687626082"><ele>176.06</ele><time>2012-08-10T02:09:25Z</time></trkpt><trkpt lat="-4.7718507517" lon="-80.9680644795"><ele>171.73</ele><time>2012-08-10T02:09:29Z</time></trkpt><trkpt lat="-4.7730931174" lon="-80.9666952118"><ele>175.10</ele><time>2012-08-10T02:09:37Z</time></trkpt><trkpt lat="-4.7736935969" lon="-80.9660544153"><ele>178.46</ele><time>2012-08-10T02:09:41Z</time></trkpt><trkpt lat="-4.7744390834" lon="-80.9652404487"><ele>174.14</ele><time>2012-08-10T02:09:46Z</time></trkpt><trkpt lat="-4.7749022674" lon="-80.9647312481"><ele>169.81</ele><time>2012-08-10T02:09:49Z</time></trkpt><trkpt lat="-4.7752187680" lon="-80.9643852431"><ele>166.45</ele><time>2012-08-10T02:09:51Z</time></trkpt><trkpt lat="-4.7755430639" lon="-80.9640228096"><ele>163.08</ele><time>2012-08-10T02:09:53Z</time></trkpt><trkpt lat="-4.7758759093" lon="-80.9636483062"><ele>159.72</ele><time>2012-08-10T02:09:55Z</time></trkpt><trkpt lat="-4.7763817571" lon="-80.9630810190"><ele>155.87</ele><time>2012-08-10T02:09:58Z</time></trkpt><trkpt lat="-4.7767294385" lon="-80.9626989719"><ele>152.03</ele><time>2012-08-10T02:10:00Z</time></trkpt><trkpt lat="-4.7770734318" lon="-80.9623165056"><ele>148.66</ele><time>2012-08-10T02:10:02Z</time></trkpt><trkpt lat="-4.7774096299" lon="-80.9619413316"><ele>145.30</ele><time>2012-08-10T02:10:04Z</time></trkpt><trkpt lat="-4.7780649271" lon="-80.9612075798"><ele>141.93</ele><time>2012-08-10T02:10:08Z</time></trkpt><trkpt lat="-4.7795159183" lon="-80.9596124198"><ele>138.57</ele><time>2012-08-10T02:10:17Z</time></trkpt><trkpt lat="-4.7813678160" lon="-80.9575865977"><ele>135.20</ele><time>2012-08-10T02:10:29Z</time></trkpt><trkpt lat="-4.7839060239" lon="-80.9547882993"><ele>133.28</ele><time>2012-08-10T02:10:45Z</time></trkpt><trkpt lat="-4.7853612900" lon="-80.9531850088"><ele>129.92</ele><time>2012-08-10T02:10:54Z</time></trkpt><trkpt lat="-4.7858278267" lon="-80.9526713658"><ele>126.07</ele><time>2012-08-10T02:10:57Z</time></trkpt><trkpt lat="-4.7864669468" lon="-80.9519673698"><ele>122.71</ele><time>2012-08-10T02:11:01Z</time></trkpt><trkpt lat="-4.7892048117" lon="-80.9489376470"><ele>120.78</ele><time>2012-08-10T02:11:18Z</time></trkpt><trkpt lat="-4.7911893111" lon="-80.9467401635"><ele>117.42</ele><time>2012-08-10T02:11:31Z</time></trkpt><trkpt lat="-4.7915990185" lon="-80.9462880436"><ele>114.53</ele><time>2012-08-10T02:11:34Z</time></trkpt><trkpt lat="-4.7921531461" lon="-80.9456774220"><ele>111.17</ele><time>2012-08-10T02:11:38Z</time></trkpt><trkpt lat="-4.7927196790" lon="-80.9450614359"><ele>107.81</ele><time>2012-08-10T02:11:42Z</time></trkpt><trkpt lat="-4.7933008801" lon="-80.9444124252"><ele>103.96</ele><time>2012-08-10T02:11:46Z</time></trkpt><trkpt lat="-4.7937531676" lon="-80.9439152945"><ele>100.60</ele><time>2012-08-10T02:11:49Z</time></trkpt><trkpt lat="-4.7943567485" lon="-80.9432489332"><ele>96.75</ele><time>2012-08-10T02:11:53Z</time></trkpt><trkpt lat="-4.7956722043" lon="-80.9417939186"><ele>100.11</ele><time>2012-08-10T02:12:02Z</time></trkpt><trkpt lat="-4.7974377684" lon="-80.9398491494"><ele>96.75</ele><time>2012-08-10T02:12:14Z</time></trkpt><trkpt lat="-4.7981615458" lon="-80.9390497673"><ele>93.39</ele><time>2012-08-10T02:12:19Z</time></trkpt><trkpt lat="-4.7992765903" lon="-80.9378455393"><ele>90.02</ele><time>2012-08-10T02:12:27Z</time></trkpt><trkpt lat="-4.8009528872" lon="-80.9364976455"><ele>87.62</ele><time>2012-08-10T02:12:38Z</time></trkpt><trkpt lat="-4.8019487411" lon="-80.9352637455"><ele>87.62</ele><time>2012-08-10T02:12:46Z</time></trkpt><trkpt lat="-4.8031766061" lon="-80.9334929846"><ele>87.14</ele><time>2012-08-10T02:12:57Z</time></trkpt><trkpt lat="-4.8048925493" lon="-80.9316024464"><ele>87.14</ele><time>2012-08-10T02:13:09Z</time></trkpt><trkpt lat="-4.8073134944" lon="-80.9289359953"><ele>87.14</ele><time>2012-08-10T02:13:25Z</time></trkpt><trkpt lat="-4.8098877445" lon="-80.9260988049"><ele>86.18</ele><time>2012-08-10T02:13:42Z</time></trkpt><trkpt lat="-4.8106539343" lon="-80.9252437670"><ele>89.06</ele><time>2012-08-10T02:13:47Z</time></trkpt><trkpt lat="-4.8111094907" lon="-80.9247396793"><ele>92.42</ele><time>2012-08-10T02:13:50Z</time></trkpt><trkpt lat="-4.8123484198" lon="-80.9233755246"><ele>89.06</ele><time>2012-08-10T02:13:58Z</time></trkpt><trkpt lat="-4.8126690276" lon="-80.9230198804"><ele>85.69</ele><time>2012-08-10T02:14:00Z</time></trkpt><trkpt lat="-4.8131588660" lon="-80.9224742185"><ele>82.81</ele><time>2012-08-10T02:14:03Z</time></trkpt><trkpt lat="-4.8138149176" lon="-80.9217496030"><ele>79.45</ele><time>2012-08-10T02:14:07Z</time></trkpt><trkpt lat="-4.8151829280" lon="-80.9202354960"><ele>82.81</ele><time>2012-08-10T02:14:16Z</time></trkpt><trkpt lat="-4.8168329056" lon="-80.9184083249"><ele>78.97</ele><time>2012-08-10T02:14:27Z</time></trkpt><trkpt lat="-4.8173045553" lon="-80.9178833663"><ele>77.04</ele><time>2012-08-10T02:14:30Z</time></trkpt><trkpt lat="-4.8185558897" lon="-80.9164700098"><ele>74.16</ele><time>2012-08-10T02:14:38Z</time></trkpt><trkpt lat="-4.8192763142" lon="-80.9156567976"><ele>70.31</ele><time>2012-08-10T02:14:43Z</time></trkpt><trkpt lat="-4.8201600183" lon="-80.9147264063"><ele>66.95</ele><time>2012-08-10T02:14:49Z</time></trkpt><trkpt lat="-4.8222700786" lon="-80.9123917948"><ele>66.47</ele><time>2012-08-10T02:15:03Z</time></trkpt><trkpt lat="-4.8250007350" lon="-80.9093845356"><ele>63.10</ele><time>2012-08-10T02:15:20Z</time></trkpt><trkpt lat="-4.8280167952" lon="-80.9060414135"><ele>60.22</ele><time>2012-08-10T02:15:39Z</time></trkpt><trkpt lat="-4.8302052263" lon="-80.9036347177"><ele>57.82</ele><time>2012-08-10T02:15:53Z</time></trkpt><trkpt lat="-4.8306257464" lon="-80.9031547699"><ele>54.45</ele><time>2012-08-10T02:15:56Z</time></trkpt><trkpt lat="-4.8309828155" lon="-80.9026448987"><ele>50.61</ele><time>2012-08-10T02:15:59Z</time></trkpt><trkpt lat="-4.8319638334" lon="-80.9013127629"><ele>49.65</ele><time>2012-08-10T02:16:07Z</time></trkpt><trkpt lat="-4.8334155791" lon="-80.9000966325"><ele>49.65</ele><time>2012-08-10T02:16:16Z</time></trkpt><trkpt lat="-4.8351514712" lon="-80.8981885761"><ele>49.65</ele><time>2012-08-10T02:16:28Z</time></trkpt><trkpt lat="-4.8371306900" lon="-80.8960006479"><ele>51.09</ele><time>2012-08-10T02:16:42Z</time></trkpt><trkpt lat="-4.8397325166" lon="-80.8931200393"><ele>51.57</ele><time>2012-08-10T02:16:59Z</time></trkpt><trkpt lat="-4.8418473545" lon="-80.8907782193"><ele>51.57</ele><time>2012-08-10T02:17:13Z</time></trkpt><trkpt lat="-4.8431670852" lon="-80.8893239591"><ele>51.57</ele><time>2012-08-10T02:17:23Z</time></trkpt><trkpt lat="-4.8444958683" lon="-80.8875919227"><ele>49.16</ele><time>2012-08-10T02:17:35Z</time></trkpt><trkpt lat="-4.8447806016" lon="-80.8871433232"><ele>45.80</ele><time>2012-08-10T02:17:38Z</time></trkpt><trkpt lat="-4.8450417817" lon="-80.8866617829"><ele>41.47</ele><time>2012-08-10T02:17:41Z</time></trkpt><trkpt lat="-4.8459202051" lon="-80.8846349549"><ele>41.47</ele><time>2012-08-10T02:17:52Z</time></trkpt><trkpt lat="-4.8463337682" lon="-80.8833055850"><ele>38.11</ele><time>2012-08-10T02:18:00Z</time></trkpt><trkpt lat="-4.8463893402" lon="-80.8830674551"><ele>34.74</ele><time>2012-08-10T02:18:02Z</time></trkpt><trkpt lat="-4.8464342672" lon="-80.8828688879"><ele>30.90</ele><time>2012-08-10T02:18:04Z</time></trkpt><trkpt lat="-4.8465598281" lon="-80.8820589446"><ele>29.46</ele><time>2012-08-10T02:18:13Z</time></trkpt><trkpt lat="-4.8465973791" lon="-80.8816840220"><ele>29.46</ele><time>2012-08-10T02:18:21Z</time></trkpt><trkpt lat="-4.8466282245" lon="-80.8811500110"><ele>30.42</ele><time>2012-08-10T02:18:32Z</time></trkpt><trkpt lat="-4.8466444854" lon="-80.8806155808"><ele>30.90</ele><time>2012-08-10T02:18:39Z</time></trkpt><trkpt lat="-4.8466772586" lon="-80.8791505080"><ele>33.78</ele><time>2012-08-10T02:18:51Z</time></trkpt><trkpt lat="-4.8467091937" lon="-80.8773250133"><ele>34.74</ele><time>2012-08-10T02:19:05Z</time></trkpt><trkpt lat="-4.8467407934" lon="-80.8758613653"><ele>33.30</ele><time>2012-08-10T02:19:20Z</time></trkpt><trkpt lat="-4.8467595689" lon="-80.8752865344"><ele>31.86</ele><time>2012-08-10T02:19:29Z</time></trkpt><trkpt lat="-4.8467449006" lon="-80.8749886416"><ele>31.86</ele><time>2012-08-10T02:19:38Z</time></trkpt><trkpt lat="-4.8467676993" lon="-80.8740957174"><ele>32.82</ele><time>2012-08-10T02:19:48Z</time></trkpt><trkpt lat="-4.8467858043" lon="-80.8731675893"><ele>33.30</ele><time>2012-08-10T02:20:00Z</time></trkpt><trkpt lat="-4.8467987962" lon="-80.8726910781"><ele>33.30</ele><time>2012-08-10T02:20:08Z</time></trkpt><trkpt lat="-4.8468479142" lon="-80.8715312742"><ele>35.23</ele><time>2012-08-10T02:20:18Z</time></trkpt><trkpt lat="-4.8469594773" lon="-80.8700951189"><ele>36.19</ele><time>2012-08-10T02:20:31Z</time></trkpt><trkpt lat="-4.8469797615" lon="-80.8699514531"><ele>32.82</ele><time>2012-08-10T02:20:35Z</time></trkpt><trkpt lat="-4.8469768278" lon="-80.8699041791"><ele>32.34</ele><time>2012-08-10T02:20:36Z</time></trkpt><trkpt lat="-4.8469734751" lon="-80.8698484395"><ele>32.34</ele><time>2012-08-10T02:20:37Z</time></trkpt><trkpt lat="-4.8469979502" lon="-80.8692462835"><ele>36.19</ele><time>2012-08-10T02:20:44Z</time></trkpt><trkpt lat="-4.8470162228" lon="-80.8688951656"><ele>39.07</ele><time>2012-08-10T02:20:47Z</time></trkpt><trkpt lat="-4.8469042405" lon="-80.8679118007"><ele>36.19</ele><time>2012-08-10T02:20:55Z</time></trkpt><trkpt lat="-4.8468875606" lon="-80.8674744330"><ele>34.74</ele><time>2012-08-10T02:20:58Z</time></trkpt><trkpt lat="-4.8469492514" lon="-80.8664536849"><ele>37.63</ele><time>2012-08-10T02:21:04Z</time></trkpt><trkpt lat="-4.8470260296" lon="-80.8657667879"><ele>40.99</ele><time>2012-08-10T02:21:08Z</time></trkpt><trkpt lat="-4.8473161273" lon="-80.8644836862"><ele>38.59</ele><time>2012-08-10T02:21:16Z</time></trkpt><trkpt lat="-4.8474202305" lon="-80.8634549752"><ele>41.95</ele><time>2012-08-10T02:21:22Z</time></trkpt><trkpt lat="-4.8474593740" lon="-80.8627114166"><ele>44.84</ele><time>2012-08-10T02:21:26Z</time></trkpt><trkpt lat="-4.8474716116" lon="-80.8625190519"><ele>44.84</ele><time>2012-08-10T02:21:27Z</time></trkpt><trkpt lat="-4.8476923909" lon="-80.8590688091"><ele>43.40</ele><time>2012-08-10T02:21:45Z</time></trkpt><trkpt lat="-4.8478306923" lon="-80.8569602575"><ele>44.84</ele><time>2012-08-10T02:21:55Z</time></trkpt><trkpt lat="-4.8479794711" lon="-80.8528723195"><ele>45.32</ele><time>2012-08-10T02:22:14Z</time></trkpt><trkpt lat="-4.8476501461" lon="-80.8503329381"><ele>45.32</ele><time>2012-08-10T02:22:26Z</time></trkpt><trkpt lat="-4.8471368384" lon="-80.8467135485"><ele>45.32</ele><time>2012-08-10T02:22:43Z</time></trkpt><trkpt lat="-4.8466205969" lon="-80.8431543410"><ele>45.32</ele><time>2012-08-10T02:23:00Z</time></trkpt><trkpt lat="-4.8461117316" lon="-80.8395901043"><ele>45.32</ele><time>2012-08-10T02:23:17Z</time></trkpt><trkpt lat="-4.8460565787" lon="-80.8390792273"><ele>40.99</ele><time>2012-08-10T02:23:20Z</time></trkpt><trkpt lat="-4.8460065387" lon="-80.8387283608"><ele>36.67</ele><time>2012-08-10T02:23:23Z</time></trkpt><trkpt lat="-4.8459751066" lon="-80.8385305479"><ele>33.78</ele><time>2012-08-10T02:23:25Z</time></trkpt><trkpt lat="-4.8458890244" lon="-80.8376501966"><ele>31.86</ele><time>2012-08-10T02:23:36Z</time></trkpt><trkpt lat="-4.8458850011" lon="-80.8376002405"><ele>31.86</ele><time>2012-08-10T02:23:37Z</time></trkpt><trkpt lat="-4.8457716778" lon="-80.8371019363"><ele>35.71</ele><time>2012-08-10T02:23:44Z</time></trkpt><trkpt lat="-4.8456857633" lon="-80.8366059791"><ele>39.07</ele><time>2012-08-10T02:23:48Z</time></trkpt><trkpt lat="-4.8455760442" lon="-80.8360030688"><ele>41.95</ele><time>2012-08-10T02:23:52Z</time></trkpt><trkpt lat="-4.8454759642" lon="-80.8353710733"><ele>38.11</ele><time>2012-08-10T02:23:58Z</time></trkpt><trkpt lat="-4.8454624694" lon="-80.8353025932"><ele>34.26</ele><time>2012-08-10T02:24:00Z</time></trkpt><trkpt lat="-4.8454397544" lon="-80.8352019265"><ele>31.38</ele><time>2012-08-10T02:24:02Z</time></trkpt><trkpt lat="-4.8453043029" lon="-80.8345452044"><ele>35.71</ele><time>2012-08-10T02:24:09Z</time></trkpt><trkpt lat="-4.8452576995" lon="-80.8342890535"><ele>39.55</ele><time>2012-08-10T02:24:11Z</time></trkpt><trkpt lat="-4.8452074081" lon="-80.8340075891"><ele>42.92</ele><time>2012-08-10T02:24:13Z</time></trkpt><trkpt lat="-4.8451547697" lon="-80.8337027393"><ele>43.88</ele><time>2012-08-10T02:24:15Z</time></trkpt><trkpt lat="-4.8447954375" lon="-80.8316694573"><ele>41.95</ele><time>2012-08-10T02:24:27Z</time></trkpt><trkpt lat="-4.8443235364" lon="-80.8290485200"><ele>44.36</ele><time>2012-08-10T02:24:41Z</time></trkpt><trkpt lat="-4.8439949658" lon="-80.8272117097"><ele>47.24</ele><time>2012-08-10T02:24:50Z</time></trkpt><trkpt lat="-4.8433488049" lon="-80.8236233331"><ele>48.20</ele><time>2012-08-10T02:25:07Z</time></trkpt><trkpt lat="-4.8427661788" lon="-80.8203760162"><ele>49.16</ele><time>2012-08-10T02:25:22Z</time></trkpt><trkpt lat="-4.8422149010" lon="-80.8173043840"><ele>49.16</ele><time>2012-08-10T02:25:37Z</time></trkpt><trkpt lat="-4.8417209554" lon="-80.8145977836"><ele>51.09</ele><time>2012-08-10T02:25:50Z</time></trkpt><trkpt lat="-4.8411407601" lon="-80.8113535680"><ele>53.97</ele><time>2012-08-10T02:26:05Z</time></trkpt><trkpt lat="-4.8406844493" lon="-80.8088313695"><ele>53.97</ele><time>2012-08-10T02:26:17Z</time></trkpt><trkpt lat="-4.8404145520" lon="-80.8061147947"><ele>53.97</ele><time>2012-08-10T02:26:30Z</time></trkpt><trkpt lat="-4.8406593036" lon="-80.8037448116"><ele>53.97</ele><time>2012-08-10T02:26:41Z</time></trkpt><trkpt lat="-4.8413612880" lon="-80.8014252875"><ele>54.45</ele><time>2012-08-10T02:26:52Z</time></trkpt><trkpt lat="-4.8424611613" lon="-80.7993155625"><ele>54.93</ele><time>2012-08-10T02:27:03Z</time></trkpt><trkpt lat="-4.8441340216" lon="-80.7970160712"><ele>55.41</ele><time>2012-08-10T02:27:16Z</time></trkpt><trkpt lat="-4.8452879582" lon="-80.7954790816"><ele>52.53</ele><time>2012-08-10T02:27:25Z</time></trkpt><trkpt lat="-4.8455262557" lon="-80.7951645926"><ele>50.61</ele><time>2012-08-10T02:27:27Z</time></trkpt><trkpt lat="-4.8470854573" lon="-80.7930697873"><ele>53.97</ele><time>2012-08-10T02:27:40Z</time></trkpt><trkpt lat="-4.8472108506" lon="-80.7929070108"><ele>53.97</ele><time>2012-08-10T02:27:41Z</time></trkpt><trkpt lat="-4.8479311075" lon="-80.7919516414"><ele>50.61</ele><time>2012-08-10T02:27:47Z</time></trkpt><trkpt lat="-4.8485059384" lon="-80.7911934983"><ele>47.24</ele><time>2012-08-10T02:27:52Z</time></trkpt><trkpt lat="-4.8495193105" lon="-80.7898372225"><ele>49.16</ele><time>2012-08-10T02:28:01Z</time></trkpt><trkpt lat="-4.8512578849" lon="-80.7875039522"><ele>51.09</ele><time>2012-08-10T02:28:16Z</time></trkpt><trkpt lat="-4.8525128234" lon="-80.7858295832"><ele>52.05</ele><time>2012-08-10T02:28:28Z</time></trkpt><trkpt lat="-4.8530651908" lon="-80.7850747090"><ele>55.41</ele><time>2012-08-10T02:28:34Z</time></trkpt><trkpt lat="-4.8533490859" lon="-80.7846924104"><ele>59.26</ele><time>2012-08-10T02:28:37Z</time></trkpt><trkpt lat="-4.8536388483" lon="-80.7843057532"><ele>63.10</ele><time>2012-08-10T02:28:40Z</time></trkpt><trkpt lat="-4.8539283592" lon="-80.7839159109"><ele>65.03</ele><time>2012-08-10T02:28:43Z</time></trkpt><trkpt lat="-4.8555203341" lon="-80.7817755081"><ele>64.55</ele><time>2012-08-10T02:28:58Z</time></trkpt><trkpt lat="-4.8569455091" lon="-80.7798753306"><ele>61.18</ele><time>2012-08-10T02:29:10Z</time></trkpt><trkpt lat="-4.8573051766" lon="-80.7793852407"><ele>56.86</ele><time>2012-08-10T02:29:13Z</time></trkpt><trkpt lat="-4.8575231060" lon="-80.7790471148"><ele>53.97</ele><time>2012-08-10T02:29:15Z</time></trkpt><trkpt lat="-4.8578118626" lon="-80.7785015367"><ele>51.09</ele><time>2012-08-10T02:29:18Z</time></trkpt><trkpt lat="-4.8582872003" lon="-80.7769170217"><ele>50.13</ele><time>2012-08-10T02:29:26Z</time></trkpt><trkpt lat="-4.8586649727" lon="-80.7746295165"><ele>50.13</ele><time>2012-08-10T02:29:38Z</time></trkpt><trkpt lat="-4.8588659707" lon="-80.7734642643"><ele>48.20</ele><time>2012-08-10T02:29:46Z</time></trkpt><trkpt lat="-4.8591277376" lon="-80.7719463855"><ele>46.28</ele><time>2012-08-10T02:29:58Z</time></trkpt><trkpt lat="-4.8592028394" lon="-80.7715807669"><ele>46.28</ele><time>2012-08-10T02:30:05Z</time></trkpt><trkpt lat="-4.8592415638" lon="-80.7712675352"><ele>48.20</ele><time>2012-08-10T02:30:14Z</time></trkpt><trkpt lat="-4.8593318369" lon="-80.7707004994"><ele>51.57</ele><time>2012-08-10T02:30:20Z</time></trkpt><trkpt lat="-4.8594002333" lon="-80.7703266665"><ele>55.41</ele><time>2012-08-10T02:30:23Z</time></trkpt><trkpt lat="-4.8594718147" lon="-80.7699403446"><ele>58.78</ele><time>2012-08-10T02:30:26Z</time></trkpt><trkpt lat="-4.8595480062" lon="-80.7695179805"><ele>60.22</ele><time>2012-08-10T02:30:29Z</time></trkpt><trkpt lat="-4.8598895688" lon="-80.7675627340"><ele>61.18</ele><time>2012-08-10T02:30:41Z</time></trkpt><trkpt lat="-4.8601845279" lon="-80.7657970022"><ele>57.82</ele><time>2012-08-10T02:30:51Z</time></trkpt><trkpt lat="-4.8602053151" lon="-80.7652515080"><ele>53.97</ele><time>2012-08-10T02:30:54Z</time></trkpt><trkpt lat="-4.8601996154" lon="-80.7646910939"><ele>50.61</ele><time>2012-08-10T02:30:57Z</time></trkpt><trkpt lat="-4.8600855377" lon="-80.7637643907"><ele>47.24</ele><time>2012-08-10T02:31:02Z</time></trkpt><trkpt lat="-4.8596504331" lon="-80.7622957975"><ele>47.24</ele><time>2012-08-10T02:31:11Z</time></trkpt><trkpt lat="-4.8592482693" lon="-80.7612438686"><ele>51.09</ele><time>2012-08-10T02:31:17Z</time></trkpt><trkpt lat="-4.8590360396" lon="-80.7606625836"><ele>54.45</ele><time>2012-08-10T02:31:20Z</time></trkpt><trkpt lat="-4.8588191159" lon="-80.7600507047"><ele>57.82</ele><time>2012-08-10T02:31:23Z</time></trkpt><trkpt lat="-4.8585124221" lon="-80.7591849379"><ele>60.22</ele><time>2012-08-10T02:31:27Z</time></trkpt><trkpt lat="-4.8573059309" lon="-80.7557261456"><ele>59.26</ele><time>2012-08-10T02:31:42Z</time></trkpt><trkpt lat="-4.8565199599" lon="-80.7535094675"><ele>56.37</ele><time>2012-08-10T02:31:52Z</time></trkpt><trkpt lat="-4.8562374059" lon="-80.7524697762"><ele>53.01</ele><time>2012-08-10T02:31:57Z</time></trkpt><trkpt lat="-4.8561690096" lon="-80.7519556303"><ele>49.65</ele><time>2012-08-10T02:32:00Z</time></trkpt><trkpt lat="-4.8561426066" lon="-80.7515430730"><ele>46.28</ele><time>2012-08-10T02:32:03Z</time></trkpt><trkpt lat="-4.8561364878" lon="-80.7497997209"><ele>49.16</ele><time>2012-08-10T02:32:15Z</time></trkpt><trkpt lat="-4.8561638966" lon="-80.7491158415"><ele>53.01</ele><time>2012-08-10T02:32:19Z</time></trkpt><trkpt lat="-4.8562204745" lon="-80.7468374725"><ele>53.01</ele><time>2012-08-10T02:32:31Z</time></trkpt><trkpt lat="-4.8562559299" lon="-80.7439794950"><ele>56.37</ele><time>2012-08-10T02:32:44Z</time></trkpt><trkpt lat="-4.8562894575" lon="-80.7430290710"><ele>60.22</ele><time>2012-08-10T02:32:48Z</time></trkpt><trkpt lat="-4.8563528247" lon="-80.7397378329"><ele>60.22</ele><time>2012-08-10T02:33:02Z</time></trkpt><trkpt lat="-4.8564487137" lon="-80.7361285854"><ele>58.78</ele><time>2012-08-10T02:33:19Z</time></trkpt><trkpt lat="-4.8569264822" lon="-80.7340836525"><ele>58.30</ele><time>2012-08-10T02:33:29Z</time></trkpt><trkpt lat="-4.8572746664" lon="-80.7332794089"><ele>59.74</ele><time>2012-08-10T02:33:33Z</time></trkpt><trkpt lat="-4.8585016094" lon="-80.7314371504"><ele>60.70</ele><time>2012-08-10T02:33:43Z</time></trkpt><trkpt lat="-4.8605550919" lon="-80.7288805023"><ele>61.66</ele><time>2012-08-10T02:33:58Z</time></trkpt><trkpt lat="-4.8624870367" lon="-80.7264612336"><ele>58.30</ele><time>2012-08-10T02:34:13Z</time></trkpt><trkpt lat="-4.8642376810" lon="-80.7242277917"><ele>55.41</ele><time>2012-08-10T02:34:27Z</time></trkpt><trkpt lat="-4.8645221628" lon="-80.7239078544"><ele>50.61</ele><time>2012-08-10T02:34:30Z</time></trkpt><trkpt lat="-4.8647781461" lon="-80.7236062735"><ele>46.28</ele><time>2012-08-10T02:34:33Z</time></trkpt><trkpt lat="-4.8654669710" lon="-80.7227422670"><ele>48.20</ele><time>2012-08-10T02:34:43Z</time></trkpt><trkpt lat="-4.8655869998" lon="-80.7225835975"><ele>47.72</ele><time>2012-08-10T02:34:50Z</time></trkpt><trkpt lat="-4.8659521155" lon="-80.7221194077"><ele>47.72</ele><time>2012-08-10T02:34:58Z</time></trkpt><trkpt lat="-4.8669164535" lon="-80.7209142577"><ele>48.20</ele><time>2012-08-10T02:35:10Z</time></trkpt><trkpt lat="-4.8680170812" lon="-80.7195216883"><ele>49.16</ele><time>2012-08-10T02:35:23Z</time></trkpt><trkpt lat="-4.8685876373" lon="-80.7188285887"><ele>47.72</ele><time>2012-08-10T02:35:33Z</time></trkpt><trkpt lat="-4.8687519226" lon="-80.7186218072"><ele>46.28</ele><time>2012-08-10T02:35:41Z</time></trkpt><trkpt lat="-4.8690047208" lon="-80.7182924822"><ele>46.28</ele><time>2012-08-10T02:35:48Z</time></trkpt><trkpt lat="-4.8696821462" lon="-80.7173977979"><ele>46.28</ele><time>2012-08-10T02:35:59Z</time></trkpt><trkpt lat="-4.8702403810" lon="-80.7167576719"><ele>49.65</ele><time>2012-08-10T02:36:05Z</time></trkpt><trkpt lat="-4.8706411198" lon="-80.7162649836"><ele>45.80</ele><time>2012-08-10T02:36:11Z</time></trkpt><trkpt lat="-4.8707293812" lon="-80.7161612995"><ele>42.92</ele><time>2012-08-10T02:36:14Z</time></trkpt><trkpt lat="-4.8710678425" lon="-80.7157178968"><ele>43.40</ele><time>2012-08-10T02:36:21Z</time></trkpt><trkpt lat="-4.8712595366" lon="-80.7154909987"><ele>47.24</ele><time>2012-08-10T02:36:24Z</time></trkpt><trkpt lat="-4.8714901228" lon="-80.7152229454"><ele>48.68</ele><time>2012-08-10T02:36:28Z</time></trkpt><trkpt lat="-4.8715257458" lon="-80.7151942793"><ele>48.20</ele><time>2012-08-10T02:36:29Z</time></trkpt><trkpt lat="-4.8715525679" lon="-80.7151789404"><ele>48.20</ele><time>2012-08-10T02:36:30Z</time></trkpt><trkpt lat="-4.8715733550" lon="-80.7151658647"><ele>48.20</ele><time>2012-08-10T02:36:31Z</time></trkpt><trkpt lat="-4.8715882748" lon="-80.7151553873"><ele>45.80</ele><time>2012-08-10T02:36:32Z</time></trkpt><trkpt lat="-4.8716013506" lon="-80.7151441555"><ele>42.44</ele><time>2012-08-10T02:36:35Z</time></trkpt><trkpt lat="-4.8715996742" lon="-80.7151460834"><ele>41.95</ele><time>2012-08-10T02:36:36Z</time></trkpt><trkpt lat="-4.8715942260" lon="-80.7151400484"><ele>41.95</ele><time>2012-08-10T02:36:45Z</time></trkpt><trkpt lat="-4.8716021050" lon="-80.7151249610"><ele>41.95</ele><time>2012-08-10T02:36:46Z</time></trkpt><trkpt lat="-4.8716154322" lon="-80.7151011564"><ele>42.92</ele><time>2012-08-10T02:36:47Z</time></trkpt><trkpt lat="-4.8719185218" lon="-80.7147071231"><ele>46.28</ele><time>2012-08-10T02:36:54Z</time></trkpt><trkpt lat="-4.8721475154" lon="-80.7144608628"><ele>49.16</ele><time>2012-08-10T02:36:57Z</time></trkpt><trkpt lat="-4.8727171496" lon="-80.7139549311"><ele>52.05</ele><time>2012-08-10T02:37:03Z</time></trkpt><trkpt lat="-4.8743523750" lon="-80.7127890084"><ele>51.57</ele><time>2012-08-10T02:37:17Z</time></trkpt><trkpt lat="-4.8760829866" lon="-80.7115790807"><ele>52.05</ele><time>2012-08-10T02:37:30Z</time></trkpt><trkpt lat="-4.8777369037" lon="-80.7104166783"><ele>53.97</ele><time>2012-08-10T02:37:42Z</time></trkpt><trkpt lat="-4.8779733572" lon="-80.7102498785"><ele>50.61</ele><time>2012-08-10T02:37:45Z</time></trkpt><trkpt lat="-4.8781495448" lon="-80.7101172768"><ele>46.28</ele><time>2012-08-10T02:37:48Z</time></trkpt><trkpt lat="-4.8783484474" lon="-80.7099837530"><ele>43.40</ele><time>2012-08-10T02:37:52Z</time></trkpt><trkpt lat="-4.8786753416" lon="-80.7097595371"><ele>47.24</ele><time>2012-08-10T02:37:58Z</time></trkpt><trkpt lat="-4.8789709713" lon="-80.7095402665"><ele>50.61</ele><time>2012-08-10T02:38:03Z</time></trkpt><trkpt lat="-4.8797454592" lon="-80.7090071775"><ele>53.01</ele><time>2012-08-10T02:38:11Z</time></trkpt><trkpt lat="-4.8810617533" lon="-80.7080363855"><ele>53.49</ele><time>2012-08-10T02:38:23Z</time></trkpt><trkpt lat="-4.8817446269" lon="-80.7072408590"><ele>52.05</ele><time>2012-08-10T02:38:31Z</time></trkpt><trkpt lat="-4.8821239080" lon="-80.7064826321"><ele>48.68</ele><time>2012-08-10T02:38:38Z</time></trkpt><trkpt lat="-4.8822276760" lon="-80.7061470207"><ele>45.32</ele><time>2012-08-10T02:38:42Z</time></trkpt><trkpt lat="-4.8824357148" lon="-80.7053228281"><ele>46.76</ele><time>2012-08-10T02:38:50Z</time></trkpt><trkpt lat="-4.8824487068" lon="-80.7052457146"><ele>47.24</ele><time>2012-08-10T02:38:51Z</time></trkpt><trkpt lat="-4.8824635427" lon="-80.7051862031"><ele>47.24</ele><time>2012-08-10T02:38:52Z</time></trkpt><trkpt lat="-4.8825191148" lon="-80.7049686927"><ele>43.88</ele><time>2012-08-10T02:38:57Z</time></trkpt><trkpt lat="-4.8827291653" lon="-80.7041875832"><ele>43.40</ele><time>2012-08-10T02:39:05Z</time></trkpt><trkpt lat="-4.8830980528" lon="-80.7028049044"><ele>44.84</ele><time>2012-08-10T02:39:17Z</time></trkpt><trkpt lat="-4.8835317325" lon="-80.7011872809"><ele>45.32</ele><time>2012-08-10T02:39:29Z</time></trkpt><trkpt lat="-4.8840763047" lon="-80.6997765228"><ele>45.32</ele><time>2012-08-10T02:39:40Z</time></trkpt><trkpt lat="-4.8846715875" lon="-80.6990135182"><ele>45.32</ele><time>2012-08-10T02:39:49Z</time></trkpt><trkpt lat="-4.8855729774" lon="-80.6983623281"><ele>44.36</ele><time>2012-08-10T02:40:00Z</time></trkpt><trkpt lat="-4.8858699482" lon="-80.6982433051"><ele>42.92</ele><time>2012-08-10T02:40:06Z</time></trkpt><trkpt lat="-4.8865448590" lon="-80.6980143115"><ele>43.40</ele><time>2012-08-10T02:40:14Z</time></trkpt><trkpt lat="-4.8874661978" lon="-80.6979198474"><ele>44.84</ele><time>2012-08-10T02:40:21Z</time></trkpt><trkpt lat="-4.8891515471" lon="-80.6978823803"><ele>47.72</ele><time>2012-08-10T02:40:32Z</time></trkpt><trkpt lat="-4.8897926789" lon="-80.6978609227"><ele>51.09</ele><time>2012-08-10T02:40:36Z</time></trkpt><trkpt lat="-4.8916746676" lon="-80.6978082005"><ele>53.01</ele><time>2012-08-10T02:40:48Z</time></trkpt><trkpt lat="-4.8933509644" lon="-80.6977690570"><ele>52.05</ele><time>2012-08-10T02:41:01Z</time></trkpt><trkpt lat="-4.8952258285" lon="-80.6977079529"><ele>52.05</ele><time>2012-08-10T02:41:16Z</time></trkpt><trkpt lat="-4.8968614731" lon="-80.6976648699"><ele>52.05</ele><time>2012-08-10T02:41:29Z</time></trkpt><trkpt lat="-4.8979155812" lon="-80.6975954678"><ele>53.01</ele><time>2012-08-10T02:41:37Z</time></trkpt><trkpt lat="-4.8983760830" lon="-80.6975644547"><ele>55.41</ele><time>2012-08-10T02:41:40Z</time></trkpt><trkpt lat="-4.8987253569" lon="-80.6975409016"><ele>58.78</ele><time>2012-08-10T02:41:43Z</time></trkpt><trkpt lat="-4.8992265109" lon="-80.6975689810"><ele>62.14</ele><time>2012-08-10T02:41:47Z</time></trkpt><trkpt lat="-4.9007320683" lon="-80.6975652091"><ele>63.58</ele><time>2012-08-10T02:41:59Z</time></trkpt><trkpt lat="-4.9016005173" lon="-80.6975611020"><ele>63.58</ele><time>2012-08-10T02:42:08Z</time></trkpt><trkpt lat="-4.9016767088" lon="-80.6975831464"><ele>63.58</ele><time>2012-08-10T02:42:09Z</time></trkpt><trkpt lat="-4.9018245656" lon="-80.6976258103"><ele>63.58</ele><time>2012-08-10T02:42:11Z</time></trkpt><trkpt lat="-4.9018812273" lon="-80.6976316776"><ele>63.58</ele><time>2012-08-10T02:42:12Z</time></trkpt><trkpt lat="-4.9019353744" lon="-80.6976294983"><ele>63.58</ele><time>2012-08-10T02:42:13Z</time></trkpt><trkpt lat="-4.9019864202" lon="-80.6976196077"><ele>63.58</ele><time>2012-08-10T02:42:14Z</time></trkpt><trkpt lat="-4.9020506255" lon="-80.6976035982"><ele>63.58</ele><time>2012-08-10T02:42:15Z</time></trkpt><trkpt lat="-4.9028670229" lon="-80.6975128222"><ele>63.58</ele><time>2012-08-10T02:42:24Z</time></trkpt><trkpt lat="-4.9039283395" lon="-80.6974832341"><ele>64.07</ele><time>2012-08-10T02:42:35Z</time></trkpt><trkpt lat="-4.9050558731" lon="-80.6974478625"><ele>64.55</ele><time>2012-08-10T02:42:50Z</time></trkpt><trkpt lat="-4.9059925508" lon="-80.6974046957"><ele>67.91</ele><time>2012-08-10T02:42:58Z</time></trkpt><trkpt lat="-4.9062986579" lon="-80.6974079646"><ele>71.27</ele><time>2012-08-10T02:43:00Z</time></trkpt><trkpt lat="-4.9067934416" lon="-80.6973999180"><ele>74.16</ele><time>2012-08-10T02:43:03Z</time></trkpt><trkpt lat="-4.9087984767" lon="-80.6973407418"><ele>70.79</ele><time>2012-08-10T02:43:15Z</time></trkpt><trkpt lat="-4.9097957555" lon="-80.6973169371"><ele>67.43</ele><time>2012-08-10T02:43:21Z</time></trkpt><trkpt lat="-4.9112506863" lon="-80.6972776260"><ele>67.43</ele><time>2012-08-10T02:43:31Z</time></trkpt><trkpt lat="-4.9127978180" lon="-80.6972187851"><ele>66.95</ele><time>2012-08-10T02:43:43Z</time></trkpt><trkpt lat="-4.9137987848" lon="-80.6972044520"><ele>70.79</ele><time>2012-08-10T02:43:49Z</time></trkpt><trkpt lat="-4.9143238273" lon="-80.6971925497"><ele>74.16</ele><time>2012-08-10T02:43:52Z</time></trkpt><trkpt lat="-4.9150481075" lon="-80.6971698347"><ele>77.52</ele><time>2012-08-10T02:43:56Z</time></trkpt><trkpt lat="-4.9161585420" lon="-80.6971340440"><ele>73.68</ele><time>2012-08-10T02:44:02Z</time></trkpt><trkpt lat="-4.9167372286" lon="-80.6971288472"><ele>71.76</ele><time>2012-08-10T02:44:05Z</time></trkpt><trkpt lat="-4.9188258313" lon="-80.6970721856"><ele>75.12</ele><time>2012-08-10T02:44:17Z</time></trkpt><trkpt lat="-4.9209757056" lon="-80.6969990954"><ele>75.12</ele><time>2012-08-10T02:44:30Z</time></trkpt><trkpt lat="-4.9214983173" lon="-80.6969902944"><ele>73.20</ele><time>2012-08-10T02:44:34Z</time></trkpt><trkpt lat="-4.9225175567" lon="-80.6969622150"><ele>72.72</ele><time>2012-08-10T02:44:45Z</time></trkpt><trkpt lat="-4.9229612108" lon="-80.6969462894"><ele>71.27</ele><time>2012-08-10T02:44:55Z</time></trkpt><trkpt lat="-4.9238003232" lon="-80.6969275139"><ele>71.27</ele><time>2012-08-10T02:45:07Z</time></trkpt><trkpt lat="-4.9243778363" lon="-80.6969049666"><ele>74.64</ele><time>2012-08-10T02:45:14Z</time></trkpt><trkpt lat="-4.9247379228" lon="-80.6968936510"><ele>78.00</ele><time>2012-08-10T02:45:17Z</time></trkpt><trkpt lat="-4.9251380749" lon="-80.6968827546"><ele>81.85</ele><time>2012-08-10T02:45:20Z</time></trkpt><trkpt lat="-4.9257327709" lon="-80.6968652364"><ele>85.21</ele><time>2012-08-10T02:45:24Z</time></trkpt><trkpt lat="-4.9280571565" lon="-80.6968027912"><ele>88.58</ele><time>2012-08-10T02:45:38Z</time></trkpt><trkpt lat="-4.9285805225" lon="-80.6967932358"><ele>92.42</ele><time>2012-08-10T02:45:41Z</time></trkpt><trkpt lat="-4.9291076604" lon="-80.6967795733"><ele>97.23</ele><time>2012-08-10T02:45:44Z</time></trkpt><trkpt lat="-4.9296368100" lon="-80.6967664137"><ele>101.08</ele><time>2012-08-10T02:45:47Z</time></trkpt><trkpt lat="-4.9303531274" lon="-80.6967437826"><ele>105.40</ele><time>2012-08-10T02:45:51Z</time></trkpt><trkpt lat="-4.9334271066" lon="-80.6966639031"><ele>107.81</ele><time>2012-08-10T02:46:07Z</time></trkpt><trkpt lat="-4.9367709830" lon="-80.6965748873"><ele>106.36</ele><time>2012-08-10T02:46:24Z</time></trkpt><trkpt lat="-4.9402510654" lon="-80.6966334768"><ele>107.81</ele><time>2012-08-10T02:46:41Z</time></trkpt><trkpt lat="-4.9423405901" lon="-80.6967343949"><ele>104.44</ele><time>2012-08-10T02:46:52Z</time></trkpt><trkpt lat="-4.9426104873" lon="-80.6967476383"><ele>101.56</ele><time>2012-08-10T02:46:54Z</time></trkpt><trkpt lat="-4.9428432528" lon="-80.6967626419"><ele>97.71</ele><time>2012-08-10T02:46:56Z</time></trkpt><trkpt lat="-4.9430582486" lon="-80.6967716105"><ele>94.35</ele><time>2012-08-10T02:46:58Z</time></trkpt><trkpt lat="-4.9433568958" lon="-80.6967800763"><ele>91.46</ele><time>2012-08-10T02:47:01Z</time></trkpt><trkpt lat="-4.9440001231" lon="-80.6968220696"><ele>94.83</ele><time>2012-08-10T02:47:08Z</time></trkpt><trkpt lat="-4.9455914274" lon="-80.6968831737"><ele>95.79</ele><time>2012-08-10T02:47:23Z</time></trkpt><trkpt lat="-4.9464594573" lon="-80.6969363149"><ele>99.15</ele><time>2012-08-10T02:47:29Z</time></trkpt><trkpt lat="-4.9473423231" lon="-80.6969782244"><ele>103.00</ele><time>2012-08-10T02:47:34Z</time></trkpt><trkpt lat="-4.9497643579" lon="-80.6970999297"><ele>103.48</ele><time>2012-08-10T02:47:46Z</time></trkpt><trkpt lat="-4.9538841471" lon="-80.6973053701"><ele>103.96</ele><time>2012-08-10T02:48:05Z</time></trkpt><trkpt lat="-4.9561258871" lon="-80.6974282488"><ele>107.32</ele><time>2012-08-10T02:48:16Z</time></trkpt><trkpt lat="-4.9570583738" lon="-80.6974782050"><ele>110.69</ele><time>2012-08-10T02:48:21Z</time></trkpt><trkpt lat="-4.9578054529" lon="-80.6975178514"><ele>114.05</ele><time>2012-08-10T02:48:25Z</time></trkpt><trkpt lat="-4.9585616682" lon="-80.6975599285"><ele>116.94</ele><time>2012-08-10T02:48:29Z</time></trkpt><trkpt lat="-4.9597182870" lon="-80.6976172607"><ele>120.30</ele><time>2012-08-10T02:48:35Z</time></trkpt><trkpt lat="-4.9625413958" lon="-80.6977217831"><ele>120.78</ele><time>2012-08-10T02:48:49Z</time></trkpt><trkpt lat="-4.9636448734" lon="-80.6977838092"><ele>123.67</ele><time>2012-08-10T02:48:54Z</time></trkpt><trkpt lat="-4.9651226029" lon="-80.6978742499"><ele>120.30</ele><time>2012-08-10T02:49:01Z</time></trkpt><trkpt lat="-4.9654331524" lon="-80.6978889182"><ele>115.98</ele><time>2012-08-10T02:49:03Z</time></trkpt><trkpt lat="-4.9656734616" lon="-80.6979064364"><ele>109.73</ele><time>2012-08-10T02:49:05Z</time></trkpt><trkpt lat="-4.9657872878" lon="-80.6979145668"><ele>106.36</ele><time>2012-08-10T02:49:06Z</time></trkpt><trkpt lat="-4.9660201371" lon="-80.6979320012"><ele>101.56</ele><time>2012-08-10T02:49:08Z</time></trkpt><trkpt lat="-4.9665067066" lon="-80.6979628466"><ele>114.53</ele><time>2012-08-10T02:49:12Z</time></trkpt><trkpt lat="-4.9666344468" lon="-80.6979687978"><ele>114.05</ele><time>2012-08-10T02:49:13Z</time></trkpt><trkpt lat="-4.9667640310" lon="-80.6979744975"><ele>107.81</ele><time>2012-08-10T02:49:14Z</time></trkpt><trkpt lat="-4.9677402712" lon="-80.6980235316"><ele>104.92</ele><time>2012-08-10T02:49:21Z</time></trkpt><trkpt lat="-4.9699761439" lon="-80.6981365196"><ele>101.56</ele><time>2012-08-10T02:49:35Z</time></trkpt><trkpt lat="-4.9706280045" lon="-80.6981719751"><ele>97.71</ele><time>2012-08-10T02:49:39Z</time></trkpt><trkpt lat="-4.9724263418" lon="-80.6982285529"><ele>101.08</ele><time>2012-08-10T02:49:49Z</time></trkpt><trkpt lat="-4.9728551600" lon="-80.6982484180"><ele>104.44</ele><time>2012-08-10T02:49:51Z</time></trkpt><trkpt lat="-4.9733009096" lon="-80.6982697081"><ele>108.77</ele><time>2012-08-10T02:49:53Z</time></trkpt><trkpt lat="-4.9741850328" lon="-80.6983335782"><ele>98.19</ele><time>2012-08-10T02:49:57Z</time></trkpt><trkpt lat="-4.9746218137" lon="-80.6983655132"><ele>101.56</ele><time>2012-08-10T02:49:59Z</time></trkpt><trkpt lat="-4.9750542361" lon="-80.6983938441"><ele>97.71</ele><time>2012-08-10T02:50:01Z</time></trkpt><trkpt lat="-4.9796694797" lon="-80.6986282859"><ele>96.75</ele><time>2012-08-10T02:50:22Z</time></trkpt><trkpt lat="-4.9833483808" lon="-80.6988086645"><ele>94.35</ele><time>2012-08-10T02:50:39Z</time></trkpt><trkpt lat="-4.9861043505" lon="-80.6989366561"><ele>90.98</ele><time>2012-08-10T02:50:51Z</time></trkpt><trkpt lat="-4.9867607374" lon="-80.6989765540"><ele>88.10</ele><time>2012-08-10T02:50:54Z</time></trkpt><trkpt lat="-4.9876052979" lon="-80.6990255881"><ele>84.73</ele><time>2012-08-10T02:50:58Z</time></trkpt><trkpt lat="-4.9900532328" lon="-80.6991496403"><ele>83.77</ele><time>2012-08-10T02:51:11Z</time></trkpt><trkpt lat="-4.9922407418" lon="-80.6992475409"><ele>83.29</ele><time>2012-08-10T02:51:24Z</time></trkpt><trkpt lat="-4.9936428666" lon="-80.6993065495"><ele>86.66</ele><time>2012-08-10T02:51:33Z</time></trkpt><trkpt lat="-4.9941305257" lon="-80.6993197929"><ele>90.98</ele><time>2012-08-10T02:51:36Z</time></trkpt><trkpt lat="-4.9946054444" lon="-80.6993658096"><ele>94.35</ele><time>2012-08-10T02:51:39Z</time></trkpt><trkpt lat="-4.9954050779" lon="-80.6994133350"><ele>90.98</ele><time>2012-08-10T02:51:44Z</time></trkpt><trkpt lat="-4.9959190562" lon="-80.6994417496"><ele>87.14</ele><time>2012-08-10T02:51:47Z</time></trkpt><trkpt lat="-4.9987773690" lon="-80.6995888520"><ele>85.21</ele><time>2012-08-10T02:52:02Z</time></trkpt><trkpt lat="-4.9998500850" lon="-80.6996336114"><ele>81.85</ele><time>2012-08-10T02:52:08Z</time></trkpt><trkpt lat="-5.0002721976" lon="-80.6996654626"><ele>78.00</ele><time>2012-08-10T02:52:11Z</time></trkpt><trkpt lat="-5.0006737746" lon="-80.6996782869"><ele>74.64</ele><time>2012-08-10T02:52:14Z</time></trkpt><trkpt lat="-5.0016617496" lon="-80.6997291651"><ele>78.00</ele><time>2012-08-10T02:52:22Z</time></trkpt><trkpt lat="-5.0036931876" lon="-80.6998206954"><ele>78.00</ele><time>2012-08-10T02:52:39Z</time></trkpt><trkpt lat="-5.0042911526" lon="-80.6998559833"><ele>81.85</ele><time>2012-08-10T02:52:43Z</time></trkpt><trkpt lat="-5.0066775642" lon="-80.6999824662"><ele>83.77</ele><time>2012-08-10T02:52:57Z</time></trkpt><trkpt lat="-5.0101250410" lon="-80.7001467515"><ele>84.25</ele><time>2012-08-10T02:53:15Z</time></trkpt><trkpt lat="-5.0125256181" lon="-80.7002607454"><ele>82.81</ele><time>2012-08-10T02:53:27Z</time></trkpt><trkpt lat="-5.0152569450" lon="-80.7003904972"><ele>79.45</ele><time>2012-08-10T02:53:40Z</time></trkpt><trkpt lat="-5.0161042716" lon="-80.7004288863"><ele>75.60</ele><time>2012-08-10T02:53:44Z</time></trkpt><trkpt lat="-5.0201226398" lon="-80.7006439660"><ele>74.64</ele><time>2012-08-10T02:54:03Z</time></trkpt><trkpt lat="-5.0235724635" lon="-80.7008297089"><ele>74.64</ele><time>2012-08-10T02:54:20Z</time></trkpt><trkpt lat="-5.0275633391" lon="-80.7010188885"><ele>73.20</ele><time>2012-08-10T02:54:39Z</time></trkpt><trkpt lat="-5.0311986543" lon="-80.7012042124"><ele>70.79</ele><time>2012-08-10T02:54:57Z</time></trkpt><trkpt lat="-5.0346662477" lon="-80.7013799809"><ele>69.83</ele><time>2012-08-10T02:55:14Z</time></trkpt><trkpt lat="-5.0355237164" lon="-80.7014205493"><ele>66.47</ele><time>2012-08-10T02:55:19Z</time></trkpt><trkpt lat="-5.0357154105" lon="-80.7014289312"><ele>62.62</ele><time>2012-08-10T02:55:21Z</time></trkpt><trkpt lat="-5.0358100422" lon="-80.7014303561"><ele>57.34</ele><time>2012-08-10T02:55:23Z</time></trkpt><trkpt lat="-5.0358656980" lon="-80.7014336251"><ele>52.53</ele><time>2012-08-10T02:55:25Z</time></trkpt><trkpt lat="-5.0359630957" lon="-80.7014368940"><ele>49.16</ele><time>2012-08-10T02:55:27Z</time></trkpt><trkpt lat="-5.0360297319" lon="-80.7014399115"><ele>49.16</ele><time>2012-08-10T02:55:28Z</time></trkpt><trkpt lat="-5.0361013133" lon="-80.7014454436"><ele>58.78</ele><time>2012-08-10T02:55:29Z</time></trkpt><trkpt lat="-5.0366494898" lon="-80.7014850900"><ele>57.82</ele><time>2012-08-10T02:55:38Z</time></trkpt><trkpt lat="-5.0370398350" lon="-80.7015144266"><ele>57.34</ele><time>2012-08-10T02:55:46Z</time></trkpt><trkpt lat="-5.0374381430" lon="-80.7015160192"><ele>56.86</ele><time>2012-08-10T02:55:53Z</time></trkpt><trkpt lat="-5.0385163911" lon="-80.7015834097"><ele>60.22</ele><time>2012-08-10T02:56:02Z</time></trkpt><trkpt lat="-5.0391110871" lon="-80.7016202062"><ele>63.58</ele><time>2012-08-10T02:56:06Z</time></trkpt><trkpt lat="-5.0405442249" lon="-80.7016945537"><ele>59.26</ele><time>2012-08-10T02:56:16Z</time></trkpt><trkpt lat="-5.0408385135" lon="-80.7017121557"><ele>56.37</ele><time>2012-08-10T02:56:19Z</time></trkpt><trkpt lat="-5.0412831735" lon="-80.7017475273"><ele>53.01</ele><time>2012-08-10T02:56:24Z</time></trkpt><trkpt lat="-5.0416683219" lon="-80.7017694879"><ele>56.37</ele><time>2012-08-10T02:56:28Z</time></trkpt><trkpt lat="-5.0420757663" lon="-80.7017941307"><ele>59.74</ele><time>2012-08-10T02:56:32Z</time></trkpt><trkpt lat="-5.0435249973" lon="-80.7018827274"><ele>61.66</ele><time>2012-08-10T02:56:44Z</time></trkpt><trkpt lat="-5.0440016761" lon="-80.7019594219"><ele>65.03</ele><time>2012-08-10T02:56:47Z</time></trkpt><trkpt lat="-5.0445108768" lon="-80.7020348590"><ele>68.39</ele><time>2012-08-10T02:56:50Z</time></trkpt><trkpt lat="-5.0459311903" lon="-80.7022378687"><ele>66.95</ele><time>2012-08-10T02:56:58Z</time></trkpt><trkpt lat="-5.0482361298" lon="-80.7026006375"><ele>70.31</ele><time>2012-08-10T02:57:10Z</time></trkpt><trkpt lat="-5.0522852596" lon="-80.7032332197"><ele>70.31</ele><time>2012-08-10T02:57:30Z</time></trkpt><trkpt lat="-5.0564965792" lon="-80.7038828172"><ele>71.27</ele><time>2012-08-10T02:57:50Z</time></trkpt><trkpt lat="-5.0601262785" lon="-80.7044450752"><ele>71.27</ele><time>2012-08-10T02:58:07Z</time></trkpt><trkpt lat="-5.0618426409" lon="-80.7046943530"><ele>74.64</ele><time>2012-08-10T02:58:15Z</time></trkpt><trkpt lat="-5.0646120217" lon="-80.7051134482"><ele>71.27</ele><time>2012-08-10T02:58:28Z</time></trkpt><trkpt lat="-5.0685589761" lon="-80.7057162747"><ele>74.64</ele><time>2012-08-10T02:58:46Z</time></trkpt><trkpt lat="-5.0710224174" lon="-80.7060801331"><ele>71.27</ele><time>2012-08-10T02:58:57Z</time></trkpt><trkpt lat="-5.0742298365" lon="-80.7065470889"><ele>74.16</ele><time>2012-08-10T02:59:12Z</time></trkpt><trkpt lat="-5.0773095153" lon="-80.7066625077"><ele>72.24</ele><time>2012-08-10T02:59:26Z</time></trkpt><trkpt lat="-5.0797286164" lon="-80.7067150623"><ele>73.20</ele><time>2012-08-10T02:59:37Z</time></trkpt><trkpt lat="-5.0838878006" lon="-80.7066583168"><ele>74.16</ele><time>2012-08-10T02:59:56Z</time></trkpt><trkpt lat="-5.0867088139" lon="-80.7062674686"><ele>75.12</ele><time>2012-08-10T03:00:09Z</time></trkpt><trkpt lat="-5.0873965491" lon="-80.7061722502"><ele>70.79</ele><time>2012-08-10T03:00:13Z</time></trkpt><trkpt lat="-5.0877050031" lon="-80.7061188575"><ele>67.43</ele><time>2012-08-10T03:00:15Z</time></trkpt><trkpt lat="-5.0879697874" lon="-80.7060784567"><ele>64.55</ele><time>2012-08-10T03:00:17Z</time></trkpt><trkpt lat="-5.0882199034" lon="-80.7060507126"><ele>60.70</ele><time>2012-08-10T03:00:19Z</time></trkpt><trkpt lat="-5.0895154942" lon="-80.7058523968"><ele>65.51</ele><time>2012-08-10T03:00:28Z</time></trkpt><trkpt lat="-5.0898723956" lon="-80.7058010157"><ele>68.39</ele><time>2012-08-10T03:00:30Z</time></trkpt><trkpt lat="-5.0902552810" lon="-80.7057474554"><ele>71.76</ele><time>2012-08-10T03:00:32Z</time></trkpt><trkpt lat="-5.0906605460" lon="-80.7056967448"><ele>75.12</ele><time>2012-08-10T03:00:34Z</time></trkpt><trkpt lat="-5.0914859120" lon="-80.7056129258"><ele>68.87</ele><time>2012-08-10T03:00:38Z</time></trkpt><trkpt lat="-5.0954063796" lon="-80.7050739694"><ele>69.35</ele><time>2012-08-10T03:00:56Z</time></trkpt><trkpt lat="-5.0997424219" lon="-80.7044724002"><ele>68.87</ele><time>2012-08-10T03:01:15Z</time></trkpt><trkpt lat="-5.1009397767" lon="-80.7043116353"><ele>65.51</ele><time>2012-08-10T03:01:20Z</time></trkpt><trkpt lat="-5.1016689185" lon="-80.7042115554"><ele>64.07</ele><time>2012-08-10T03:01:23Z</time></trkpt><trkpt lat="-5.1078254264" lon="-80.7033708505"><ele>65.51</ele><time>2012-08-10T03:01:49Z</time></trkpt><trkpt lat="-5.1138786692" lon="-80.7025454007"><ele>66.47</ele><time>2012-08-10T03:02:14Z</time></trkpt><trkpt lat="-5.1157490071" lon="-80.7022856455"><ele>62.62</ele><time>2012-08-10T03:02:22Z</time></trkpt><trkpt lat="-5.1212354656" lon="-80.7015301846"><ele>59.26</ele><time>2012-08-10T03:02:46Z</time></trkpt><trkpt lat="-5.1235217974" lon="-80.7012168691"><ele>56.37</ele><time>2012-08-10T03:02:56Z</time></trkpt><trkpt lat="-5.1271437854" lon="-80.7007174753"><ele>53.01</ele><time>2012-08-10T03:03:12Z</time></trkpt><trkpt lat="-5.1279765274" lon="-80.7006076723"><ele>49.65</ele><time>2012-08-10T03:03:16Z</time></trkpt><trkpt lat="-5.1291859522" lon="-80.7004161458"><ele>46.28</ele><time>2012-08-10T03:03:22Z</time></trkpt><trkpt lat="-5.1296235714" lon="-80.7003772538"><ele>42.92</ele><time>2012-08-10T03:03:25Z</time></trkpt><trkpt lat="-5.1300421637" lon="-80.7003312372"><ele>39.07</ele><time>2012-08-10T03:03:28Z</time></trkpt><trkpt lat="-5.1303196885" lon="-80.7002925128"><ele>37.63</ele><time>2012-08-10T03:03:30Z</time></trkpt><trkpt lat="-5.1310107764" lon="-80.7001880743"><ele>40.99</ele><time>2012-08-10T03:03:35Z</time></trkpt><trkpt lat="-5.1315851882" lon="-80.7001137268"><ele>44.84</ele><time>2012-08-10T03:03:39Z</time></trkpt><trkpt lat="-5.1333998702" lon="-80.6998638622"><ele>44.84</ele><time>2012-08-10T03:03:51Z</time></trkpt><trkpt lat="-5.1340928022" lon="-80.6997695658"><ele>41.47</ele><time>2012-08-10T03:03:56Z</time></trkpt><trkpt lat="-5.1361138467" lon="-80.6994722597"><ele>43.40</ele><time>2012-08-10T03:04:10Z</time></trkpt><trkpt lat="-5.1365839876" lon="-80.6994111557"><ele>44.84</ele><time>2012-08-10T03:04:13Z</time></trkpt><trkpt lat="-5.1384764537" lon="-80.6991542503"><ele>45.80</ele><time>2012-08-10T03:04:25Z</time></trkpt><trkpt lat="-5.1407596841" lon="-80.6988123525"><ele>43.40</ele><time>2012-08-10T03:04:40Z</time></trkpt><trkpt lat="-5.1416743174" lon="-80.6986759789"><ele>46.76</ele><time>2012-08-10T03:04:45Z</time></trkpt><trkpt lat="-5.1422670856" lon="-80.6985805929"><ele>51.09</ele><time>2012-08-10T03:04:48Z</time></trkpt><trkpt lat="-5.1437181607" lon="-80.6982125435"><ele>37.15</ele><time>2012-08-10T03:04:56Z</time></trkpt><trkpt lat="-5.1440889761" lon="-80.6981021538"><ele>44.36</ele><time>2012-08-10T03:04:59Z</time></trkpt><trkpt lat="-5.1442063227" lon="-80.6980657764"><ele>44.36</ele><time>2012-08-10T03:05:00Z</time></trkpt><trkpt lat="-5.1444422733" lon="-80.6979930215"><ele>42.44</ele><time>2012-08-10T03:05:02Z</time></trkpt><trkpt lat="-5.1454737503" lon="-80.6976679713"><ele>40.99</ele><time>2012-08-10T03:05:11Z</time></trkpt><trkpt lat="-5.1471436769" lon="-80.6971510593"><ele>40.51</ele><time>2012-08-10T03:05:26Z</time></trkpt><trkpt lat="-5.1486581191" lon="-80.6966794934"><ele>38.11</ele><time>2012-08-10T03:05:40Z</time></trkpt><trkpt lat="-5.1505567040" lon="-80.6960969511"><ele>37.15</ele><time>2012-08-10T03:05:58Z</time></trkpt><trkpt lat="-5.1518805418" lon="-80.6957061030"><ele>36.67</ele><time>2012-08-10T03:06:10Z</time></trkpt><trkpt lat="-5.1537259854" lon="-80.6951262429"><ele>35.71</ele><time>2012-08-10T03:06:27Z</time></trkpt><trkpt lat="-5.1548149623" lon="-80.6947764661"><ele>35.71</ele><time>2012-08-10T03:06:37Z</time></trkpt><trkpt lat="-5.1560918614" lon="-80.6943920720"><ele>35.23</ele><time>2012-08-10T03:06:49Z</time></trkpt><trkpt lat="-5.1574128494" lon="-80.6939602364"><ele>35.23</ele><time>2012-08-10T03:07:02Z</time></trkpt><trkpt lat="-5.1578229759" lon="-80.6938445661"><ele>38.11</ele><time>2012-08-10T03:07:05Z</time></trkpt><trkpt lat="-5.1590613183" lon="-80.6934656203"><ele>37.15</ele><time>2012-08-10T03:07:15Z</time></trkpt><trkpt lat="-5.1599187870" lon="-80.6932035182"><ele>40.99</ele><time>2012-08-10T03:07:21Z</time></trkpt><trkpt lat="-5.1603967231" lon="-80.6930710003"><ele>44.84</ele><time>2012-08-10T03:07:24Z</time></trkpt><trkpt lat="-5.1608925126" lon="-80.6929200422"><ele>46.76</ele><time>2012-08-10T03:07:27Z</time></trkpt><trkpt lat="-5.1618518215" lon="-80.6926201377"><ele>42.92</ele><time>2012-08-10T03:07:33Z</time></trkpt><trkpt lat="-5.1642354671" lon="-80.6918857992"><ele>45.80</ele><time>2012-08-10T03:07:48Z</time></trkpt><trkpt lat="-5.1667447574" lon="-80.6911108084"><ele>45.32</ele><time>2012-08-10T03:08:02Z</time></trkpt><trkpt lat="-5.1689134911" lon="-80.6902091671"><ele>45.80</ele><time>2012-08-10T03:08:14Z</time></trkpt><trkpt lat="-5.1702441182" lon="-80.6890572421"><ele>46.28</ele><time>2012-08-10T03:08:23Z</time></trkpt><trkpt lat="-5.1711819693" lon="-80.6875401177"><ele>46.76</ele><time>2012-08-10T03:08:32Z</time></trkpt><trkpt lat="-5.1716622524" lon="-80.6863047928"><ele>46.76</ele><time>2012-08-10T03:08:40Z</time></trkpt><trkpt lat="-5.1717448980" lon="-80.6860798225"><ele>42.92</ele><time>2012-08-10T03:08:42Z</time></trkpt><trkpt lat="-5.1718158927" lon="-80.6858885475"><ele>39.55</ele><time>2012-08-10T03:08:44Z</time></trkpt><trkpt lat="-5.1719024777" lon="-80.6856445502"><ele>35.23</ele><time>2012-08-10T03:08:47Z</time></trkpt><trkpt lat="-5.1721261069" lon="-80.6849723216"><ele>38.59</ele><time>2012-08-10T03:08:56Z</time></trkpt><trkpt lat="-5.1722924039" lon="-80.6846103072"><ele>38.11</ele><time>2012-08-10T03:09:04Z</time></trkpt><trkpt lat="-5.1722971816" lon="-80.6845879275"><ele>34.74</ele><time>2012-08-10T03:09:07Z</time></trkpt><trkpt lat="-5.1722924039" lon="-80.6845924538"><ele>33.78</ele><time>2012-08-10T03:09:09Z</time></trkpt><trkpt lat="-5.1722849440" lon="-80.6845954712"><ele>33.78</ele><time>2012-08-10T03:09:15Z</time></trkpt><trkpt lat="-5.1722903084" lon="-80.6845771987"><ele>33.78</ele><time>2012-08-10T03:09:16Z</time></trkpt><trkpt lat="-5.1723989379" lon="-80.6842152681"><ele>35.71</ele><time>2012-08-10T03:09:26Z</time></trkpt><trkpt lat="-5.1725684199" lon="-80.6837893836"><ele>36.67</ele><time>2012-08-10T03:09:41Z</time></trkpt><trkpt lat="-5.1725765504" lon="-80.6837747153"><ele>36.67</ele><time>2012-08-10T03:09:55Z</time></trkpt><trkpt lat="-5.1725927275" lon="-80.6837832648"><ele>36.67</ele><time>2012-08-10T03:10:13Z</time></trkpt><trkpt lat="-5.1726562623" lon="-80.6835694425"><ele>36.67</ele><time>2012-08-10T03:10:27Z</time></trkpt><trkpt lat="-5.1729089767" lon="-80.6827942841"><ele>38.11</ele><time>2012-08-10T03:10:36Z</time></trkpt><trkpt lat="-5.1730586775" lon="-80.6823678967"><ele>40.99</ele><time>2012-08-10T03:10:40Z</time></trkpt><trkpt lat="-5.1735962089" lon="-80.6808256265"><ele>42.92</ele><time>2012-08-10T03:10:53Z</time></trkpt><trkpt lat="-5.1740424614" lon="-80.6795343105"><ele>42.92</ele><time>2012-08-10T03:11:04Z</time></trkpt><trkpt lat="-5.1746893767" lon="-80.6777060498"><ele>43.40</ele><time>2012-08-10T03:11:20Z</time></trkpt><trkpt lat="-5.1751771197" lon="-80.6763089541"><ele>41.95</ele><time>2012-08-10T03:11:34Z</time></trkpt><trkpt lat="-5.1756760944" lon="-80.6748852041"><ele>41.95</ele><time>2012-08-10T03:11:48Z</time></trkpt><trkpt lat="-5.1760959439" lon="-80.6737197004"><ele>40.51</ele><time>2012-08-10T03:12:02Z</time></trkpt><trkpt lat="-5.1761222631" lon="-80.6736602727"><ele>40.51</ele><time>2012-08-10T03:12:03Z</time></trkpt><trkpt lat="-5.1761447266" lon="-80.6735948939"><ele>40.51</ele><time>2012-08-10T03:12:04Z</time></trkpt><trkpt lat="-5.1764399372" lon="-80.6727325637"><ele>40.51</ele><time>2012-08-10T03:12:13Z</time></trkpt><trkpt lat="-5.1767376624" lon="-80.6718409806"><ele>43.40</ele><time>2012-08-10T03:12:21Z</time></trkpt><trkpt lat="-5.1769345533" lon="-80.6713153515"><ele>45.32</ele><time>2012-08-10T03:12:25Z</time></trkpt><trkpt lat="-5.1775346976" lon="-80.6695951335"><ele>44.84</ele><time>2012-08-10T03:12:37Z</time></trkpt><trkpt lat="-5.1784284599" lon="-80.6670822389"><ele>45.32</ele><time>2012-08-10T03:12:53Z</time></trkpt><trkpt lat="-5.1795317698" lon="-80.6639560405"><ele>46.28</ele><time>2012-08-10T03:13:12Z</time></trkpt><trkpt lat="-5.1797300857" lon="-80.6634051818"><ele>42.44</ele><time>2012-08-10T03:13:17Z</time></trkpt><trkpt lat="-5.1798957121" lon="-80.6629369687"><ele>39.55</ele><time>2012-08-10T03:13:21Z</time></trkpt><trkpt lat="-5.1801378652" lon="-80.6622478925"><ele>43.40</ele><time>2012-08-10T03:13:26Z</time></trkpt><trkpt lat="-5.1802928466" lon="-80.6618110277"><ele>46.28</ele><time>2012-08-10T03:13:29Z</time></trkpt><trkpt lat="-5.1810933184" lon="-80.6595285516"><ele>49.16</ele><time>2012-08-10T03:13:43Z</time></trkpt><trkpt lat="-5.1818634477" lon="-80.6573211774"><ele>47.24</ele><time>2012-08-10T03:13:56Z</time></trkpt><trkpt lat="-5.1826010551" lon="-80.6552303117"><ele>44.84</ele><time>2012-08-10T03:14:09Z</time></trkpt><trkpt lat="-5.1832840126" lon="-80.6532844529"><ele>44.36</ele><time>2012-08-10T03:14:23Z</time></trkpt><trkpt lat="-5.1834175363" lon="-80.6529490929"><ele>40.99</ele><time>2012-08-10T03:14:28Z</time></trkpt><trkpt lat="-5.1834213082" lon="-80.6529276352"><ele>37.15</ele><time>2012-08-10T03:14:31Z</time></trkpt><trkpt lat="-5.1834076457" lon="-80.6529125478"><ele>39.55</ele><time>2012-08-10T03:14:51Z</time></trkpt><trkpt lat="-5.1834808197" lon="-80.6527001504"><ele>39.55</ele><time>2012-08-10T03:15:04Z</time></trkpt><trkpt lat="-5.1837426703" lon="-80.6519489642"><ele>39.55</ele><time>2012-08-10T03:15:14Z</time></trkpt><trkpt lat="-5.1837855019" lon="-80.6518482137"><ele>38.59</ele><time>2012-08-10T03:15:21Z</time></trkpt><trkpt lat="-5.1837965660" lon="-80.6518035382"><ele>37.63</ele><time>2012-08-10T03:15:48Z</time></trkpt><trkpt lat="-5.1839713287" lon="-80.6513178907"><ele>38.11</ele><time>2012-08-10T03:15:56Z</time></trkpt><trkpt lat="-5.1843845565" lon="-80.6501841545"><ele>38.11</ele><time>2012-08-10T03:16:07Z</time></trkpt><trkpt lat="-5.1848707907" lon="-80.6490398571"><ele>38.11</ele><time>2012-08-10T03:16:19Z</time></trkpt><trkpt lat="-5.1848945953" lon="-80.6489395257"><ele>38.11</ele><time>2012-08-10T03:16:20Z</time></trkpt><trkpt lat="-5.1852108445" lon="-80.6478152610"><ele>39.07</ele><time>2012-08-10T03:16:29Z</time></trkpt><trkpt lat="-5.1858782955" lon="-80.6459299196"><ele>40.51</ele><time>2012-08-10T03:16:42Z</time></trkpt><trkpt lat="-5.1863662899" lon="-80.6445133779"><ele>40.51</ele><time>2012-08-10T03:16:52Z</time></trkpt><trkpt lat="-5.1871744730" lon="-80.6422145572"><ele>39.55</ele><time>2012-08-10T03:17:08Z</time></trkpt><trkpt lat="-5.1872942504" lon="-80.6418798678"><ele>36.19</ele><time>2012-08-10T03:17:12Z</time></trkpt><trkpt lat="-5.1873135287" lon="-80.6418341864"><ele>31.86</ele><time>2012-08-10T03:17:15Z</time></trkpt><trkpt lat="-5.1873060688" lon="-80.6418646965"><ele>28.50</ele><time>2012-08-10T03:17:19Z</time></trkpt><trkpt lat="-5.1873021293" lon="-80.6418921892"><ele>32.34</ele><time>2012-08-10T03:17:26Z</time></trkpt><trkpt lat="-5.1873818412" lon="-80.6416777801"><ele>34.74</ele><time>2012-08-10T03:17:34Z</time></trkpt><trkpt lat="-5.1875927299" lon="-80.6410700921"><ele>34.74</ele><time>2012-08-10T03:17:43Z</time></trkpt><trkpt lat="-5.1881053671" lon="-80.6396038458"><ele>35.71</ele><time>2012-08-10T03:17:56Z</time></trkpt><trkpt lat="-5.1887995563" lon="-80.6377226114"><ele>38.11</ele><time>2012-08-10T03:18:11Z</time></trkpt><trkpt lat="-5.1893818472" lon="-80.6359498389"><ele>40.51</ele><time>2012-08-10T03:18:25Z</time></trkpt><trkpt lat="-5.1894219965" lon="-80.6358099449"><ele>36.67</ele><time>2012-08-10T03:18:27Z</time></trkpt><trkpt lat="-5.1894354913" lon="-80.6357812788"><ele>33.30</ele><time>2012-08-10T03:18:29Z</time></trkpt><trkpt lat="-5.1894258521" lon="-80.6358136330"><ele>31.86</ele><time>2012-08-10T03:18:31Z</time></trkpt><trkpt lat="-5.1894068252" lon="-80.6358416285"><ele>35.71</ele><time>2012-08-10T03:18:42Z</time></trkpt><trkpt lat="-5.1894131117" lon="-80.6358222663"><ele>36.19</ele><time>2012-08-10T03:18:43Z</time></trkpt><trkpt lat="-5.1895851083" lon="-80.6353860721"><ele>36.67</ele><time>2012-08-10T03:18:52Z</time></trkpt><trkpt lat="-5.1896763034" lon="-80.6351687293"><ele>35.23</ele><time>2012-08-10T03:18:58Z</time></trkpt><trkpt lat="-5.1896907203" lon="-80.6351116486"><ele>35.23</ele><time>2012-08-10T03:18:59Z</time></trkpt><trkpt lat="-5.1899446920" lon="-80.6343672518"><ele>35.23</ele><time>2012-08-10T03:19:07Z</time></trkpt><trkpt lat="-5.1902062073" lon="-80.6336528622"><ele>32.82</ele><time>2012-08-10T03:19:16Z</time></trkpt><trkpt lat="-5.1902252343" lon="-80.6335985474"><ele>29.46</ele><time>2012-08-10T03:19:19Z</time></trkpt><trkpt lat="-5.1902207918" lon="-80.6336013973"><ele>27.53</ele><time>2012-08-10T03:19:22Z</time></trkpt><trkpt lat="-5.1902142540" lon="-80.6336072646"><ele>28.02</ele><time>2012-08-10T03:19:26Z</time></trkpt><trkpt lat="-5.1902181096" lon="-80.6335920934"><ele>28.02</ele><time>2012-08-10T03:19:27Z</time></trkpt><trkpt lat="-5.1903581712" lon="-80.6331715733"><ele>29.94</ele><time>2012-08-10T03:19:35Z</time></trkpt><trkpt lat="-5.1907101274" lon="-80.6322089117"><ele>30.90</ele><time>2012-08-10T03:19:47Z</time></trkpt><trkpt lat="-5.1907579042" lon="-80.6320688501"><ele>30.90</ele><time>2012-08-10T03:19:54Z</time></trkpt><trkpt lat="-5.1909571420" lon="-80.6314998865"><ele>30.90</ele><time>2012-08-10T03:20:03Z</time></trkpt><trkpt lat="-5.1912667695" lon="-80.6306533143"><ele>30.90</ele><time>2012-08-10T03:20:15Z</time></trkpt><trkpt lat="-5.1912633330" lon="-80.6306602713"><ele>30.90</ele><time>2012-08-10T03:20:31Z</time></trkpt><trkpt lat="-5.1912678592" lon="-80.6306425016"><ele>30.90</ele><time>2012-08-10T03:20:32Z</time></trkpt><trkpt lat="-5.1914127823" lon="-80.6302239932"><ele>30.90</ele><time>2012-08-10T03:20:41Z</time></trkpt><trkpt lat="-5.1917064842" lon="-80.6294088531"><ele>32.34</ele><time>2012-08-10T03:20:52Z</time></trkpt><trkpt lat="-5.1921381522" lon="-80.6284632906"><ele>33.78</ele><time>2012-08-10T03:21:04Z</time></trkpt><trkpt lat="-5.1928426512" lon="-80.6269950327"><ele>34.74</ele><time>2012-08-10T03:21:22Z</time></trkpt><trkpt lat="-5.1929967944" lon="-80.6266603433"><ele>33.78</ele><time>2012-08-10T03:21:29Z</time></trkpt><trkpt lat="-5.1930245385" lon="-80.6266204454"><ele>33.30</ele><time>2012-08-10T03:21:30Z</time></trkpt><trkpt lat="-5.1933796797" lon="-80.6259336323"><ele>33.30</ele><time>2012-08-10T03:21:41Z</time></trkpt><trkpt lat="-5.1934133749" lon="-80.6258181296"><ele>32.82</ele><time>2012-08-10T03:21:48Z</time></trkpt><trkpt lat="-5.1934248582" lon="-80.6257727835"><ele>32.34</ele><time>2012-08-10T03:22:11Z</time></trkpt><trkpt lat="-5.1934340782" lon="-80.6257592048"><ele>32.34</ele><time>2012-08-10T03:22:12Z</time></trkpt><trkpt lat="-5.1934468187" lon="-80.6257386692"><ele>32.34</ele><time>2012-08-10T03:22:13Z</time></trkpt><trkpt lat="-5.1935717929" lon="-80.6254570372"><ele>32.82</ele><time>2012-08-10T03:22:19Z</time></trkpt><trkpt lat="-5.1936940011" lon="-80.6244214531"><ele>34.26</ele><time>2012-08-10T03:22:30Z</time></trkpt><trkpt lat="-5.1937240083" lon="-80.6239282619"><ele>37.15</ele><time>2012-08-10T03:22:34Z</time></trkpt><trkpt lat="-5.1937503275" lon="-80.6234934088"><ele>40.99</ele><time>2012-08-10T03:22:37Z</time></trkpt><trkpt lat="-5.1937994454" lon="-80.6221753545"><ele>37.63</ele><time>2012-08-10T03:22:46Z</time></trkpt><trkpt lat="-5.1938147843" lon="-80.6217596121"><ele>34.26</ele><time>2012-08-10T03:22:49Z</time></trkpt><trkpt lat="-5.1938290335" lon="-80.6213586219"><ele>31.86</ele><time>2012-08-10T03:22:52Z</time></trkpt><trkpt lat="-5.1938701887" lon="-80.6206767540"><ele>32.34</ele><time>2012-08-10T03:22:59Z</time></trkpt><trkpt lat="-5.1938810851" lon="-80.6205038354"><ele>32.34</ele><time>2012-08-10T03:23:04Z</time></trkpt><trkpt lat="-5.1938871201" lon="-80.6205099542"><ele>32.34</ele><time>2012-08-10T03:23:32Z</time></trkpt><trkpt lat="-5.1938890480" lon="-80.6204877421"><ele>32.34</ele><time>2012-08-10T03:23:33Z</time></trkpt><trkpt lat="-5.1939113438" lon="-80.6200013403"><ele>32.34</ele><time>2012-08-10T03:23:40Z</time></trkpt><trkpt lat="-5.1939386688" lon="-80.6194098294"><ele>36.67</ele><time>2012-08-10T03:23:45Z</time></trkpt><trkpt lat="-5.1940413471" lon="-80.6182102114"><ele>35.23</ele><time>2012-08-10T03:23:56Z</time></trkpt><trkpt lat="-5.1940454543" lon="-80.6181589980"><ele>34.26</ele><time>2012-08-10T03:23:57Z</time></trkpt><trkpt lat="-5.1940333843" lon="-80.6181159988"><ele>32.34</ele><time>2012-08-10T03:23:58Z</time></trkpt><trkpt lat="-5.1939945761" lon="-80.6180765200"><ele>31.86</ele><time>2012-08-10T03:23:59Z</time></trkpt><trkpt lat="-5.1939497329" lon="-80.6180648692"><ele>30.90</ele><time>2012-08-10T03:24:00Z</time></trkpt><trkpt lat="-5.1939106733" lon="-80.6180640310"><ele>29.94</ele><time>2012-08-10T03:24:01Z</time></trkpt><trkpt lat="-5.1938545983" lon="-80.6180702336"><ele>29.46</ele><time>2012-08-10T03:24:02Z</time></trkpt><trkpt lat="-5.1937901415" lon="-80.6180773582"><ele>30.42</ele><time>2012-08-10T03:24:03Z</time></trkpt><trkpt lat="-5.1933676098" lon="-80.6180660427"><ele>34.26</ele><time>2012-08-10T03:24:08Z</time></trkpt><trkpt lat="-5.1930699684" lon="-80.6180515420"><ele>37.15</ele><time>2012-08-10T03:24:11Z</time></trkpt><trkpt lat="-5.1920539141" lon="-80.6179772783"><ele>34.26</ele><time>2012-08-10T03:24:21Z</time></trkpt><trkpt lat="-5.1915076654" lon="-80.6179450918"><ele>32.82</ele><time>2012-08-10T03:24:28Z</time></trkpt><trkpt lat="-5.1914673485" lon="-80.6179255620"><ele>32.82</ele><time>2012-08-10T03:24:29Z</time></trkpt><trkpt lat="-5.1914418675" lon="-80.6178904418"><ele>32.82</ele><time>2012-08-10T03:24:30Z</time></trkpt><trkpt lat="-5.1914278697" lon="-80.6178462692"><ele>32.82</ele><time>2012-08-10T03:24:31Z</time></trkpt><trkpt lat="-5.1914234273" lon="-80.6177921221"><ele>32.82</ele><time>2012-08-10T03:24:32Z</time></trkpt><trkpt lat="-5.1914291270" lon="-80.6177321915"><ele>32.82</ele><time>2012-08-10T03:24:33Z</time></trkpt><trkpt lat="-5.1914400235" lon="-80.6176683214"><ele>32.82</ele><time>2012-08-10T03:24:34Z</time></trkpt><trkpt lat="-5.1914522611" lon="-80.6175966561"><ele>32.82</ele><time>2012-08-10T03:24:35Z</time></trkpt><trkpt lat="-5.1914612297" lon="-80.6175179500"><ele>32.82</ele><time>2012-08-10T03:24:36Z</time></trkpt><trkpt lat="-5.1914818492" lon="-80.6169953384"><ele>34.26</ele><time>2012-08-10T03:24:42Z</time></trkpt><trkpt lat="-5.1914471481" lon="-80.6161272246"><ele>34.26</ele><time>2012-08-10T03:24:53Z</time></trkpt><trkpt lat="-5.1913508400" lon="-80.6158389710"><ele>34.74</ele><time>2012-08-10T03:25:01Z</time></trkpt><trkpt lat="-5.1912970282" lon="-80.6157408189"><ele>33.78</ele><time>2012-08-10T03:25:08Z</time></trkpt><trkpt lat="-5.1912837848" lon="-80.6157380529"><ele>33.78</ele><time>2012-08-10T03:25:09Z</time></trkpt><trkpt lat="-5.1912591420" lon="-80.6157398131"><ele>33.30</ele><time>2012-08-10T03:25:20Z</time></trkpt><trkpt lat="-5.1912421267" lon="-80.6157585885"><ele>33.30</ele><time>2012-08-10T03:25:43Z</time></trkpt><trkpt lat="-5.1912448928" lon="-80.6157694012"><ele>33.30</ele><time>2012-08-10T03:26:01Z</time></trkpt><trkpt lat="-5.1912461501" lon="-80.6157747656"><ele>33.78</ele><time>2012-08-10T03:26:17Z</time></trkpt><trkpt lat="-5.1912655961" lon="-80.6157635339"><ele>33.78</ele><time>2012-08-10T03:26:27Z</time></trkpt><trkpt lat="-5.1912735589" lon="-80.6157561578"><ele>33.78</ele><time>2012-08-10T03:26:28Z</time></trkpt><trkpt lat="-5.1912797615" lon="-80.6157478597"><ele>33.78</ele><time>2012-08-10T03:26:40Z</time></trkpt><trkpt lat="-5.1912698708" lon="-80.6157407351"><ele>33.78</ele><time>2012-08-10T03:26:52Z</time></trkpt><trkpt lat="-5.1912505925" lon="-80.6157704908"><ele>33.78</ele><time>2012-08-10T03:27:04Z</time></trkpt><trkpt lat="-5.1912458986" lon="-80.6157993246"><ele>35.23</ele><time>2012-08-10T03:27:16Z</time></trkpt><trkpt lat="-5.1912308112" lon="-80.6158103887"><ele>36.67</ele><time>2012-08-10T03:27:32Z</time></trkpt><trkpt lat="-5.1912123710" lon="-80.6158154178"><ele>37.15</ele><time>2012-08-10T03:27:49Z</time></trkpt><trkpt lat="-5.1911799330" lon="-80.6158885919"><ele>37.15</ele><time>2012-08-10T03:28:10Z</time></trkpt></trkseg><trkseg><trkpt lat="-5.1911127102" lon="-80.6159715727"><ele>37.15</ele><time>2012-08-10T03:28:56Z</time></trkpt><trkpt lat="-5.1911145542" lon="-80.6159698963"><ele>37.15</ele><time>2012-08-10T03:28:57Z</time></trkpt></trkseg><trkseg><trkpt lat="-5.1912306435" lon="-80.6158216204"><ele>10.23</ele><time>2012-08-10T03:37:07Z</time></trkpt><trkpt lat="-5.1912178192" lon="-80.6158274040"><ele>10.23</ele><time>2012-08-10T03:37:08Z</time></trkpt><trkpt lat="-5.1911719702" lon="-80.6158433296"><ele>10.23</ele><time>2012-08-10T03:37:37Z</time></trkpt><trkpt lat="-5.1911568828" lon="-80.6158610154"><ele>10.23</ele><time>2012-08-10T03:38:07Z</time></trkpt><trkpt lat="-5.1911600679" lon="-80.6158468500"><ele>10.71</ele><time>2012-08-10T03:38:36Z</time></trkpt><trkpt lat="-5.1911689527" lon="-80.6158371270"><ele>11.19</ele><time>2012-08-10T03:38:55Z</time></trkpt></trkseg></trk></gpx>